[[{"header":{"parameterUnit":"m.s-1","parameterCategory":1,"la1":30.6,"la2":29.2853,"lo1":-89.7004,"lo2":-87.6739,"dy":0.0162,"dx":0.0183,"nx":112,"ny":82,"refTime":"2024-07-19T18:00:00:Z","depth":0,"parameterNumber":2,"parameterNumberName":"U-component_of_WINDS"},"data":[0.0,0.0,0.0,0.0,0.0,0.0,0.0,0.0,0.0,0.0,0.0,0.0,0.0,0.0,0.0,0.0,0.0,0.0,0.0,0.0,0.0,0.0,0.0,0.0,0.0,0.0,0.0,0.0,0.0,0.0,0.0,0.0,0.0,0.0,0.0,0.0,0.0,0.0,0.0,0.0,0.0,0.0,0.0,0.0,0.0,0.0,0.0,0.0,0.0,0.0,0.0,0.0,0.0,0.0,0.0,0.0,0.0,0.0,0.0,0.0,0.0,0.0,0.0,0.0,0.0,0.0,0.0,0.0,0.0,0.0,0.0,0.0,0.0,0.0,0.0,0.0,0.0,0.0,0.0,0.0,0.0,0.0,0.0,0.0,0.0,0.0,0.0,0.0,0.0,0.0,0.0,-0.7867,-0.9458,-1.0591,-1.1029,-1.1217,-1.0548,-0.879,0.0,0.0,0.0,0.0,0.0,0.0,0.0,0.0,0.0,0.0,0.0,0.0,0.0,0.0,0.0,0.0,0.0,0.0,0.0,0.0,0.0,0.0,0.0,0.0,0.0,0.0,0.0,0.0,0.0,0.0,0.0,0.0,0.0,0.0,0.0,0.0,0.0,0.0,0.0,0.0,0.0,0.0,0.0,0.0,0.0,0.0,0.0,0.0,0.0,0.0,0.0,0.0,0.0,0.0,0.0,0.0,0.0,0.0,0.0,0.0,0.0,0.0,0.0,0.0,0.0,0.0,0.0,0.0,0.0,0.0,0.0,0.0,0.0,0.0,0.0,0.0,0.0,0.0,0.0,0.0,0.0,0.0,0.0,0.0,0.0,0.0,0.0,0.0,0.0,0.0,0.0,0.0,0.0,0.0,0.0,0.0,0.0,0.0,0.0,0.0,0.0,0.0,0.0,0.0,-0.7474,-1.0097,-1.0727,-1.1096,-1.1407,-1.1611,-1.0813,-0.8755,0.0,0.0,0.0,0.0,0.0,0.0,0.0,0.0,0.0,0.0,0.0,0.0,0.0,0.0,0.0,0.0,0.0,0.0,0.0,0.0,0.0,0.0,0.0,0.0,0.0,0.0,0.0,0.0,0.0,0.0,0.0,0.0,0.0,0.0,0.0,0.0,0.0,0.0,0.0,0.0,0.0,0.0,0.0,0.0,0.0,0.0,0.0,0.0,0.0,0.0,0.0,0.0,0.0,0.0,0.0,0.0,0.0,0.0,0.0,0.0,0.0,0.0,0.0,0.0,0.0,0.0,0.0,0.0,0.0,0.0,0.0,0.0,0.0,0.0,0.0,0.0,0.0,0.0,0.0,0.0,0.0,0.0,0.0,0.0,0.0,0.0,0.0,0.0,0.0,0.0,0.0,0.0,0.0,0.0,0.0,0.0,0.0,0.0,0.0,0.0,0.0,0.0,0.0,-0.6555,-0.807,-1.0618,-1.0945,-1.1227,-1.1779,-1.1535,-1.0649,-0.8976,-0.8269,0.0,0.0,0.0,0.0,0.0,0.0,0.0,0.0,0.0,0.0,0.0,0.0,0.0,0.0,0.0,0.0,0.0,0.0,0.0,0.0,0.0,0.0,0.0,0.0,0.0,0.0,0.0,0.0,0.0,0.0,0.0,0.0,0.0,0.0,0.0,0.0,0.0,0.0,0.0,0.0,0.0,0.0,0.0,0.0,0.0,0.0,0.0,0.0,0.0,0.0,0.0,0.0,0.0,0.0,0.0,0.0,0.0,0.0,0.0,0.0,0.0,0.0,0.0,0.0,0.0,0.0,0.0,0.0,0.0,0.0,0.0,0.0,0.0,0.0,0.0,0.0,0.0,0.0,0.0,0.0,0.0,0.0,0.0,0.0,0.0,0.0,0.0,0.0,0.0,0.0,0.0,0.0,0.0,0.0,0.0,0.0,0.0,0.0,0.0,0.0,0.0,0.0,-0.7329,-0.846,-1.0655,-1.0901,-1.1196,-1.1899,-1.1182,-1.016,-0.8867,-0.7713,0.0,0.0,0.0,0.0,0.0,0.0,0.0,0.0,0.0,0.0,0.0,0.0,0.0,0.0,0.0,0.0,0.0,0.0,0.0,0.0,0.0,0.0,0.0,0.0,0.0,0.0,0.0,0.0,0.0,0.0,0.0,0.0,0.0,0.0,0.0,0.0,0.0,0.0,0.0,0.0,0.0,0.0,0.0,0.0,0.0,0.0,0.0,0.0,0.0,0.0,0.0,0.0,0.0,0.0,0.0,0.0,0.0,0.0,0.0,0.0,0.0,0.0,0.0,0.0,0.0,0.0,0.0,0.0,0.0,0.0,0.0,0.0,0.0,0.0,0.0,0.0,0.0,0.0,0.0,0.0,0.0,0.0,0.0,0.0,0.0,0.0,0.0,0.0,0.0,0.0,0.0,0.0,0.0,0.0,0.0,0.0,0.0,0.0,0.0,0.0,0.0,0.0,-0.7414,-0.8715,-1.0682,-1.0901,-1.1063,-1.1513,-1.0474,-0.9243,-0.7965,-0.6762,0.0,0.0,0.0,0.0,0.0,0.0,0.0,0.0,0.0,0.0,0.0,0.0,0.0,0.0,0.0,0.0,0.0,0.0,0.0,0.0,0.0,0.0,0.0,0.0,0.0,0.0,0.0,0.0,0.0,0.0,0.0,0.0,0.0,0.0,0.0,0.0,0.0,0.0,0.0,0.0,0.0,0.0,0.0,0.0,0.0,0.0,0.0,0.0,0.0,0.0,0.0,0.0,0.0,0.0,0.0,0.0,0.0,0.0,0.0,0.0,0.0,0.0,0.0,0.0,0.0,0.0,0.0,0.0,0.0,0.0,0.0,0.0,0.0,0.0,0.0,0.0,0.0,0.0,0.0,0.0,0.0,0.0,0.0,0.0,0.0,0.0,0.0,0.0,0.0,0.0,0.0,0.0,0.0,0.0,0.0,0.0,0.0,0.0,0.0,0.0,0.0,0.0,-0.7233,-0.8504,0.0,-1.0901,-1.1053,-1.1476,-1.1006,-0.9861,-0.7919,0.0,0.0,0.0,0.0,0.0,0.0,0.0,0.0,0.0,0.0,0.0,0.0,0.0,0.0,0.0,0.0,0.0,0.0,0.0,0.0,0.0,0.0,0.0,0.0,0.0,0.0,0.0,0.0,0.0,0.0,0.0,0.0,0.0,0.0,0.0,0.0,0.0,0.0,0.0,0.0,0.0,0.0,0.0,0.0,0.0,0.0,0.0,0.0,0.0,0.0,0.0,0.0,0.0,0.0,0.0,0.0,0.0,0.0,0.0,0.0,0.0,0.0,0.0,0.0,0.0,0.0,0.0,0.0,0.0,0.0,0.0,0.0,0.0,0.0,0.0,0.0,0.0,0.0,0.0,0.0,0.0,0.0,0.0,0.0,0.0,0.0,0.0,0.0,0.0,0.0,0.0,0.0,0.0,0.0,0.0,0.0,0.0,0.0,0.0,0.0,0.0,0.0,-0.6442,-0.7327,-0.8628,0.0,-1.0901,-1.1043,-1.1408,-1.0978,-0.9867,-0.7894,0.0,0.0,0.0,0.0,0.0,0.0,0.0,0.0,0.0,0.0,0.0,0.0,0.0,0.0,0.0,0.0,0.0,0.0,0.0,0.0,0.0,0.0,0.0,0.0,0.0,0.0,0.0,0.0,0.0,0.0,0.0,0.0,0.0,0.0,0.0,0.0,0.0,0.0,0.0,0.0,0.0,0.0,0.0,0.0,0.0,0.0,0.0,0.0,0.0,0.0,0.0,0.0,0.0,0.0,0.0,0.0,0.0,0.0,0.0,0.0,0.0,0.0,0.0,0.0,0.0,0.0,0.0,0.0,0.0,0.0,0.0,0.0,0.0,0.0,0.0,0.0,0.0,0.0,0.0,0.0,0.0,0.0,0.0,0.0,0.0,0.0,0.0,0.0,0.0,0.0,0.0,0.0,0.0,0.0,0.0,0.0,0.0,0.0,0.0,0.0,0.0,0.0,-0.65,-0.7774,-0.9193,-1.0728,-1.0901,-1.099,-1.1287,-1.0145,-0.8918,0.0,0.0,0.0,0.0,0.0,0.0,0.0,0.0,0.0,0.0,0.0,0.0,0.0,0.0,0.0,0.0,0.0,0.0,0.0,0.0,0.0,0.0,0.0,0.0,0.0,0.0,0.0,0.0,0.0,0.0,0.0,0.0,0.0,0.0,0.0,0.0,0.0,0.0,0.0,0.0,0.0,0.0,0.0,0.0,0.0,0.0,0.0,0.0,0.0,0.0,0.0,0.0,0.0,0.0,0.0,0.0,0.0,0.0,0.0,0.0,0.0,0.0,0.0,0.0,0.0,0.0,0.0,0.0,0.0,0.0,0.0,0.0,0.0,0.0,0.0,0.0,0.0,0.0,0.0,0.0,0.0,0.0,0.0,0.0,0.0,0.0,0.0,0.0,0.0,0.0,0.0,0.0,0.0,0.0,0.0,0.0,0.0,0.0,0.0,0.0,0.0,0.0,0.0,-0.653,-0.7973,-0.9459,-1.075,-1.0652,-1.0705,-1.1236,-1.0705,-0.9561,-0.7813,0.0,0.0,0.0,0.0,0.0,0.0,0.0,0.0,0.0,0.0,0.0,0.0,0.0,0.0,0.0,0.0,0.0,0.0,0.0,0.0,0.0,0.0,0.0,0.0,0.0,0.0,0.0,0.0,0.0,0.0,0.0,0.0,0.0,0.0,0.0,0.0,0.0,0.0,0.0,0.0,0.0,0.0,0.0,0.0,0.0,0.0,0.0,0.0,0.0,0.0,0.0,0.0,0.0,0.0,0.0,0.0,0.0,0.0,0.0,0.0,0.0,0.0,0.0,0.0,0.0,0.0,0.0,0.0,0.0,0.0,0.0,0.0,0.0,0.0,0.0,0.0,0.0,0.0,0.0,0.0,0.0,0.0,0.0,0.0,0.0,0.0,0.0,0.0,0.0,0.0,0.0,0.0,0.0,0.0,0.0,0.0,0.0,0.0,0.0,0.0,0.0,0.0,-0.6585,-0.821,-0.9741,-1.0791,-1.0551,-1.0627,-1.1424,-1.0954,-0.996,-0.8433,0.0,0.0,0.0,0.0,0.0,0.0,0.0,0.0,0.0,0.0,0.0,0.0,0.0,0.0,0.0,0.0,0.0,0.0,0.0,0.0,0.0,0.0,0.0,0.0,0.0,0.0,0.0,0.0,0.0,0.0,0.0,0.0,0.0,0.0,0.0,0.0,0.0,0.0,0.0,0.0,0.0,0.0,0.0,0.0,0.0,0.0,0.0,0.0,0.0,0.0,0.0,0.0,0.0,0.0,0.0,0.0,0.0,0.0,0.0,0.0,0.0,0.0,0.0,0.0,0.0,0.0,0.0,0.0,0.0,0.0,0.0,0.0,0.0,0.0,0.0,0.0,0.0,0.0,0.0,0.0,0.0,0.0,0.0,0.0,0.0,0.0,0.0,0.0,0.0,0.0,0.0,0.0,0.0,0.0,0.0,0.0,0.0,0.0,0.0,0.0,0.0,0.0,-0.6656,-0.846,-1.0043,-1.0827,-1.06,-1.0792,-1.1729,-1.1065,-1.0236,-0.9347,0.0,0.0,0.0,0.0,0.0,0.0,0.0,0.0,0.0,0.0,0.0,0.0,0.0,0.0,0.0,0.0,0.0,0.0,0.0,0.0,0.0,0.0,0.0,0.0,0.0,0.0,0.0,0.0,0.0,0.0,0.0,0.0,0.0,0.0,0.0,0.0,0.0,0.0,0.0,0.0,0.0,0.0,0.0,0.0,0.0,0.0,0.0,0.0,0.0,0.0,0.0,0.0,0.0,0.0,0.0,0.0,0.0,0.0,0.0,0.0,-0.6694,0.0,0.0,0.0,0.0,0.0,0.0,0.0,0.0,0.0,0.0,0.0,0.0,0.0,0.0,0.0,0.0,0.0,0.0,0.0,0.0,0.0,0.0,0.0,0.0,0.0,0.0,0.0,0.0,0.0,0.0,0.0,0.0,0.0,0.0,0.0,0.0,0.0,0.0,0.0,0.0,0.0,-0.6824,-0.8793,-1.0346,-1.0855,-1.107,-1.1335,-1.1749,-1.1526,-1.0772,-0.9377,-0.8597,0.0,0.0,0.0,0.0,0.0,0.0,0.0,0.0,0.0,0.0,0.0,0.0,0.0,0.0,0.0,0.0,0.0,0.0,0.0,0.0,0.0,0.0,0.0,0.0,0.0,0.0,0.0,0.0,0.0,0.0,0.0,0.0,0.0,0.0,0.0,0.0,0.0,0.0,0.0,0.0,0.0,0.0,0.0,0.0,0.0,0.0,0.0,0.0,0.0,0.0,0.0,0.0,0.0,0.0,0.0,0.0,0.0,0.0,0.0,0.0,-0.7754,0.0,0.0,0.0,0.0,0.0,0.0,0.0,0.0,0.0,0.0,0.0,0.0,0.0,0.0,0.0,0.0,0.0,0.0,0.0,0.0,0.0,0.0,0.0,0.0,0.0,0.0,0.0,0.0,0.0,0.0,0.0,0.0,0.0,0.0,0.0,0.0,0.0,0.0,0.0,0.0,-0.7453,-0.9234,-1.0738,-1.1371,-1.1404,-1.1596,-1.2061,-1.1845,-1.1252,-1.0178,-0.9369,0.0,0.0,0.0,0.0,0.0,0.0,0.0,0.0,0.0,0.0,0.0,0.0,0.0,0.0,0.0,0.0,0.0,0.0,0.0,0.0,0.0,0.0,0.0,0.0,0.0,0.0,0.0,0.0,0.0,0.0,0.0,0.0,0.0,0.0,0.0,0.0,0.0,0.0,0.0,0.0,0.0,0.0,0.0,0.0,0.0,0.0,0.0,0.0,0.0,0.0,0.0,0.0,0.0,-1.0435,-1.072,-1.1168,-1.1168,-1.15,-1.1994,-1.0557,-1.0122,-1.0391,-0.9147,0.0,0.0,0.0,0.0,0.0,0.0,0.0,0.0,0.0,0.0,0.0,0.0,0.0,0.0,0.0,0.0,0.0,0.0,0.0,0.0,0.0,0.0,0.0,0.0,-0.9518,-0.9305,-0.763,0.0,0.0,0.0,0.0,0.0,0.0,0.0,0.0,0.0,0.0,0.0,-0.8392,-0.9961,-1.131,-1.2041,-1.1921,-1.2013,-1.2476,-1.2266,-1.1811,-1.1166,-1.0325,-0.9677,0.0,0.0,0.0,0.0,0.0,0.0,0.0,0.0,0.0,0.0,0.0,0.0,0.0,0.0,0.0,0.0,0.0,0.0,0.0,0.0,0.0,0.0,0.0,0.0,0.0,0.0,0.0,0.0,0.0,0.0,0.0,0.0,-0.4915,-0.5316,0.0,0.0,0.0,0.0,0.0,0.0,0.0,0.0,0.0,0.0,0.0,0.0,0.0,-0.9587,-1.0754,-1.1514,-1.2124,-1.257,-1.3321,-1.373,-1.379,-1.379,-1.3845,-1.3944,-1.3993,0.0,-1.226,-1.1218,0.0,0.0,0.0,0.0,0.0,0.0,0.0,0.0,0.0,0.0,0.0,0.0,0.0,0.0,0.0,0.0,0.0,0.0,0.0,0.0,0.0,0.0,-1.146,-1.1483,-1.1562,-1.1551,0.0,-0.9258,-0.7512,-0.7335,-0.6935,0.0,0.0,0.0,0.0,0.0,0.0,0.0,-0.9722,-1.1306,-1.2388,-1.2508,-1.3099,-1.3348,-1.3032,-1.3181,-1.2788,-1.1678,-1.116,-1.0599,-0.9919,-0.8897,0.0,0.0,0.0,0.0,0.0,0.0,0.0,0.0,0.0,0.0,0.0,0.0,0.0,0.0,0.0,0.0,0.0,0.0,0.0,0.0,0.0,0.0,0.0,0.0,0.0,0.0,0.0,0.0,0.0,-0.5054,-0.5688,-0.6169,-0.6125,-0.6042,0.0,0.0,0.0,0.0,0.0,0.0,0.0,0.0,0.0,-1.1032,-1.1314,-1.1907,-1.2883,-1.3281,-1.37,-1.4132,-1.4504,-1.485,-1.5139,-1.5139,-1.5139,-1.5139,-1.5287,-1.4999,-1.4365,-1.3433,-1.2822,-1.2377,0.0,0.0,0.0,0.0,-1.032,-1.0392,-1.0882,-1.0856,-1.0576,-1.057,0.0,0.0,0.0,0.0,0.0,0.0,0.0,-0.9983,0.0,0.0,-1.2425,-1.2807,-1.2954,-1.3003,-1.2961,-1.1778,-1.0407,0.0,-0.8885,-0.8432,-0.7516,0.0,0.0,0.0,0.0,-1.0103,-1.1062,-1.2168,-1.2985,-1.3253,-1.3601,-1.3702,-1.3473,-1.364,-1.3438,-1.2639,-1.2111,-1.1685,-1.135,-1.0053,-0.9158,0.0,0.0,0.0,0.0,0.0,0.0,0.0,0.0,0.0,0.0,0.0,0.0,0.0,0.0,0.0,0.0,0.0,0.0,0.0,0.0,0.0,0.0,0.0,0.0,0.0,0.0,0.0,0.0,-0.596,-0.6583,-0.6986,-0.7297,-0.7388,0.0,0.0,0.0,0.0,0.0,0.0,-1.0471,-1.0814,-1.1641,-1.3016,-1.3349,-1.3887,-1.4666,-1.4678,-1.485,-1.5205,-1.5205,-1.5408,-1.5792,-1.5891,-1.5935,-1.5935,-1.6035,-1.6078,-1.6012,-1.5125,-1.4531,-1.4088,-1.3301,-1.282,-1.2559,-1.2358,-1.2203,-1.2173,-1.2772,-1.2741,-1.2396,-1.2169,-1.1883,-1.1474,-1.0614,0.0,0.0,0.0,0.0,-1.1209,-1.2273,-1.2797,-1.3205,-1.3761,-1.3926,-1.3962,-1.3962,-1.3584,-1.2833,0.0,-1.0817,-1.0321,-0.9062,0.0,0.0,0.0,0.0,-1.1437,-1.2307,-1.3024,-1.357,-1.392,-1.3962,-1.3941,-1.3881,-1.4005,-1.3954,-1.3633,-1.3084,-1.2776,-1.2728,-1.1375,-1.0464,-1.0116,0.0,0.0,0.0,0.0,0.0,0.0,0.0,0.0,0.0,0.0,0.0,0.0,0.0,0.0,0.0,0.0,0.0,0.0,0.0,0.0,0.0,0.0,0.0,0.0,0.0,0.0,0.0,0.0,0.0,-0.793,-0.8787,0.0,0.0,0.0,0.0,-0.9964,-1.0598,-1.1507,-1.2673,-1.2819,-1.3474,-1.4836,-1.4896,-1.5159,-1.5708,-1.5708,-1.5754,-1.5756,-1.5756,-1.5768,-1.5814,-1.6129,-1.6269,-1.629,-1.6671,-1.6833,-1.6761,-1.584,-1.5262,-1.4911,-1.4473,-1.4259,-1.4165,-1.395,-1.4155,-1.4502,-1.4271,-1.4056,-1.3938,-1.4157,-1.3465,-1.252,-1.2478,-1.1912,0.0,0.0,-1.2764,-1.3232,-1.4064,-1.4286,-1.4307,-1.4363,-1.4362,-1.4373,-1.4373,-1.4059,-1.3598,0.0,-1.2488,-1.2016,-1.1742,0.0,-1.1227,-1.166,-1.2169,-1.2776,-1.3521,-1.4034,-1.4351,-1.4373,-1.4373,-1.4373,-1.4363,-1.4317,-1.4339,-1.4421,-1.4055,-1.3773,-1.3649,-1.2939,-1.2136,-1.124,-1.0329,0.0,0.0,0.0,0.0,0.0,0.0,0.0,0.0,0.0,0.0,0.0,0.0,0.0,0.0,0.0,0.0,0.0,0.0,0.0,0.0,0.0,0.0,0.0,0.0,0.0,0.0,0.0,0.0,-0.9883,-1.0669,0.0,-1.086,-1.1406,-1.1825,-1.1949,-1.2714,-1.3477,-1.4207,-1.4263,-1.4657,-1.5492,-1.5504,-1.56,-1.5792,-1.601,-1.6107,-1.6141,-1.6729,-1.7024,-1.7036,-1.7546,-1.7788,-1.7788,-1.7936,-1.7994,-1.7981,-1.7642,-1.6992,-1.6241,-1.6304,-1.6043,-1.5531,-1.5174,-1.499,-1.4911,-1.4508,-1.4327,-1.4258,-1.4365,-1.4121,-1.3747,-1.3747,-1.3561,-1.3398,-1.3682,-1.3867,-1.404,-1.4329,-1.4396,-1.4396,-1.4396,-1.4396,-1.4396,-1.4396,-1.4291,-1.4143,-1.3971,-1.3546,-1.3041,-1.2446,-1.2603,-1.2699,-1.2392,-1.2893,-1.3509,-1.4078,-1.4298,-1.4396,-1.4396,-1.4754,-1.4971,-1.4971,-1.5435,-1.5572,-1.5228,-1.4906,-1.4543,-1.4103,-1.3411,-1.2809,-1.2404,-1.1572,-1.0341,0.0,0.0,0.0,0.0,0.0,0.0,0.0,0.0,0.0,0.0,0.0,0.0,0.0,0.0,0.0,0.0,0.0,0.0,0.0,0.0,0.0,0.0,0.0,0.0,0.0,0.0,-1.0754,-1.133,-1.226,-1.2731,-1.2397,-1.3124,-1.363,-1.3678,-1.4376,-1.4935,-1.5253,-1.5277,-1.5582,-1.6256,-1.6146,-1.6298,-1.6749,-1.6839,-1.6938,-1.7093,-1.7705,-1.7997,-1.8032,-1.8542,-1.877,-1.877,-1.877,-1.877,-1.877,-1.877,-1.8261,-1.7492,-1.7718,-1.751,-1.7036,-1.6737,-1.6466,-1.6192,-1.5567,-1.5201,-1.5032,-1.4912,-1.4864,-1.4864,-1.4864,-1.4864,-1.4864,-1.4864,-1.4744,-1.4648,-1.4648,-1.4527,-1.4396,-1.4396,-1.4396,-1.4396,-1.4396,-1.4396,-1.4396,-1.4396,-1.4186,-1.3831,-1.329,-1.3607,-1.376,-1.327,-1.3618,-1.4057,-1.4363,-1.4466,-1.4489,-1.4489,-1.5051,-1.54,-1.54,-1.5753,-1.5902,-1.5782,-1.5159,-1.471,-1.4477,-1.3582,-1.3071,-1.2995,-1.2173,-1.1161,-0.9999,0.0,0.0,0.0,0.0,0.0,0.0,0.0,0.0,0.0,0.0,0.0,0.0,0.0,0.0,0.0,0.0,0.0,0.0,0.0,0.0,0.0,0.0,0.0,-1.0416,-1.1133,-1.1826,-1.224,-1.3514,-1.4132,-1.3626,-1.4445,-1.5025,-1.5025,-1.5516,-1.5816,-1.5838,-1.5862,-1.627,-1.7215,-1.685,-1.7268,-1.8596,-1.8224,-1.8224,-1.8619,-1.8644,-1.8668,-1.8668,-1.9028,-1.9178,-1.9178,-1.9178,-1.9178,-1.9178,-1.9178,-1.8983,-1.8693,-1.8632,-1.8619,-1.8596,-1.8572,-1.8549,-1.8374,-1.746,-1.6776,-1.6221,-1.5913,-1.5811,-1.5811,-1.5811,-1.5811,-1.5811,-1.5811,-1.5473,-1.5127,-1.5127,-1.4766,-1.4418,-1.4418,-1.4418,-1.4407,-1.4418,-1.4418,-1.4407,-1.4418,-1.4418,-1.4396,-1.4396,-1.4396,-1.4396,-1.4396,-1.4396,0.0,-1.4419,-1.4616,-1.472,-1.4708,-1.5255,-1.5613,-1.5613,-1.5224,-1.529,-1.6046,-1.4815,-1.429,-1.4783,-1.3608,-1.2975,-1.3037,-1.2099,-1.1495,-1.124,0.0,0.0,0.0,0.0,0.0,0.0,0.0,0.0,0.0,0.0,0.0,0.0,0.0,0.0,0.0,0.0,0.0,0.0,0.0,0.0,0.0,-1.1243,-1.2092,-1.1856,-1.2828,-1.3715,-1.4181,-1.4932,-1.5322,-1.5178,-1.543,-1.5576,-1.5576,-1.609,-1.6493,-1.6788,-1.6902,-1.7346,-1.818,-1.7811,-1.7933,-1.8596,-1.8724,-1.8852,-1.8966,-1.9641,-1.997,-2.0007,-2.0543,-2.0755,-2.0755,-2.0755,-2.0755,-2.0755,-2.0755,-2.0707,-2.0518,-1.941,-1.8816,-1.8526,-1.7843,-1.7157,-1.6525,-1.6286,-1.6069,-1.5928,-1.5836,-1.5811,-1.5811,-1.5811,-1.5811,-1.5811,-1.5811,-1.5713,-1.5615,-1.5615,-1.5269,-1.4908,-1.4908,-1.4659,-1.4495,-1.4832,-1.4624,-1.4506,-1.4832,-1.4624,-1.4396,-1.4396,-1.4396,-1.4396,-1.4396,-1.4697,0.0,-1.4903,-1.5345,-1.5457,-1.504,-1.5567,-1.5974,-1.5974,-1.6248,-1.6329,-1.611,-1.575,-1.5394,-1.5092,-1.4335,-1.3931,-1.3947,-1.2776,-1.2141,0.0,0.0,0.0,0.0,0.0,0.0,0.0,0.0,0.0,0.0,0.0,0.0,0.0,0.0,0.0,0.0,0.0,0.0,0.0,0.0,0.0,0.0,-1.2902,-1.3706,-1.3804,-1.4273,-1.4778,-1.5277,-1.56,-1.5876,-1.6104,-1.6151,-1.6303,-1.668,-1.7008,-1.7365,-1.7768,-1.7861,-1.8302,-1.9154,-1.8792,-1.8979,-1.9769,-1.9793,-1.99,-2.0077,-2.0614,-2.0884,-2.0897,-2.1236,-2.1399,-2.1399,-2.1399,-2.1399,-2.1399,-2.1399,-2.1399,-2.1307,0.0,0.0,0.0,0.0,-1.8499,-1.7874,-1.7759,-1.7401,-1.6998,-1.6868,-1.6653,-1.6437,-1.6437,-1.6437,-1.6437,-1.6437,-1.6258,-1.6094,-1.6094,-1.5745,-1.5386,-1.5386,-1.5192,-1.5061,-1.532,-1.5028,-1.4766,-1.505,-1.4878,0.0,-1.4697,-1.4535,-1.4396,-1.4396,-1.4811,-1.5108,-1.5108,-1.5669,-1.5957,-1.5614,-1.616,-1.6557,-1.6557,-1.6648,0.0,0.0,0.0,-1.5448,-1.4644,-1.4411,0.0,0.0,0.0,0.0,0.0,0.0,0.0,0.0,-1.1565,-1.1328,0.0,0.0,0.0,0.0,0.0,0.0,0.0,0.0,0.0,0.0,0.0,0.0,0.0,0.0,0.0,0.0,-1.4442,-1.5265,-1.5732,-1.5444,-1.5336,-1.5744,-1.584,-1.609,-1.6559,-1.6701,-1.7095,-1.7952,-1.8086,-1.8325,-1.8745,0.0,0.0,0.0,0.0,-2.0162,-2.1385,-2.1044,-2.1055,-2.1399,-2.1399,-2.1399,-2.1399,-2.1399,-2.144,-2.1494,-2.1494,-2.1534,-2.1602,-2.1521,-2.1453,-2.1399,-2.1399,-2.1337,-2.1288,-2.1288,-2.1006,-2.0597,-2.0359,0.0,0.0,-1.8501,-1.8023,-1.7545,-1.7545,-1.7518,-1.749,-1.7434,-1.7049,-1.6681,-1.6601,-1.6236,-1.5887,-1.5887,-1.5854,-1.5822,-1.5876,-1.5506,-1.5181,-1.5255,-1.5216,-1.5165,-1.5176,-1.4823,-1.4558,-1.4558,-1.4971,-1.5255,-1.5289,-1.5913,-1.6318,-1.6275,0.0,0.0,-1.7178,-1.6682,-1.6566,-1.6981,-1.6101,-1.5123,-1.4102,-1.4409,-1.4426,-1.4079,-1.4342,-1.5033,-1.61,-1.6082,-1.6109,-1.6091,-1.3116,-1.2554,0.0,0.0,0.0,0.0,0.0,0.0,0.0,0.0,0.0,0.0,0.0,0.0,0.0,0.0,0.0,-1.4036,-1.4995,-1.5672,-1.578,-1.609,-1.6175,-1.5828,-1.6164,-1.6499,-1.6595,-1.7286,-1.7794,-1.7977,-1.8701,-1.9317,-1.9719,-1.9827,-2.0261,-2.1089,-2.0735,-2.0801,-2.1385,-2.1313,-2.1313,-2.1399,0.0,0.0,-2.1399,-2.1399,-2.1656,-2.2142,-2.2142,-2.2388,-2.2822,-2.232,-2.1857,-2.1399,-2.1399,-2.108,-2.0584,-2.0584,-2.0207,-1.9657,-1.9605,-1.9449,-1.9267,-1.9202,-1.9109,-1.8977,-1.8977,-1.891,0.0,-1.8244,-1.7943,-1.7684,-1.7263,-1.6765,-1.6356,-1.6356,-1.6073,-1.5909,-1.628,-1.5996,-1.5785,-1.6165,-1.5917,-1.5672,-1.5672,-1.5589,-1.5522,-1.5522,-1.5932,-1.6272,-1.638,-1.6879,-1.7102,-1.671,-1.69,-1.7047,-1.7047,-1.6931,-1.6888,-1.6989,-1.6802,-1.6386,-1.5672,-1.6177,-1.6222,-1.5676,-1.573,-1.5874,-1.61,-1.5945,-1.6303,-1.7093,-1.5707,-1.5185,0.0,0.0,0.0,0.0,0.0,0.0,0.0,0.0,0.0,0.0,0.0,-1.2065,-1.2595,0.0,-1.4514,-1.5307,-1.5862,-1.6307,-1.6559,-1.6835,-1.6799,-1.6271,-1.6667,-1.7171,-1.7653,-1.8141,-1.8669,-1.9349,-1.9827,-2.0289,-2.0676,-2.0762,-2.1128,-2.1833,-2.1659,-2.1793,-2.2307,-2.2307,-2.2307,-2.2307,-2.2307,-2.2307,-2.2307,-2.2307,-2.247,-2.2741,-2.2741,-2.2917,-2.3188,-2.2876,-2.2564,-2.228,-2.1955,-2.1471,-2.0894,-2.0894,-2.0696,-2.0396,-2.0396,-2.0181,-1.9901,-1.9825,-1.9579,-1.9279,-1.9226,-1.8936,-1.8578,-1.8271,-1.8147,-1.8038,-1.776,-1.7716,-1.7763,-1.7763,-1.7579,-1.7465,-1.7706,-1.7361,-1.7095,-1.7374,-1.7206,-1.6939,-1.6787,-1.6898,-1.6732,-1.5913,-1.6194,-1.6552,-1.668,-1.7136,-1.7365,-1.7186,-1.7269,-1.7352,-1.7352,-1.7413,-1.745,-1.7461,-1.7454,-1.7176,-1.658,-1.6837,-1.6864,-1.6566,-1.6552,-1.6702,-1.7,-1.691,-1.7136,-1.7642,-1.7377,-1.7226,0.0,0.0,0.0,0.0,0.0,0.0,0.0,0.0,-1.1488,-1.2556,-1.3039,-1.3535,-1.4313,-1.4923,-1.5588,-1.6463,-1.6691,-1.6907,-1.7327,-1.7496,-1.7436,-1.7073,-1.74,-1.7971,-1.8734,-1.9033,-1.9646,-2.072,-2.0883,-2.1055,-2.1385,-2.1507,-2.1792,-2.2278,-2.2427,-2.27,-2.3201,-2.3215,-2.3215,-2.3215,-2.3215,-2.3215,-2.3215,-2.3215,-2.3269,-2.3391,-2.3499,-2.3486,-2.3378,-2.3378,-2.3323,-2.3161,-2.2659,-2.2171,-2.1738,-2.1616,-2.1562,-2.1589,-2.1711,-2.1402,-2.0897,-2.0641,-2.022,-1.9779,-1.9608,-1.9141,-1.867,-1.8642,-1.8541,-1.8417,-1.8336,-1.867,-1.904,-1.9066,-1.9093,-1.9093,-1.9093,-1.873,-1.8456,-1.856,-1.8496,-1.8329,-1.8051,-1.8135,-1.7752,-1.6334,-1.6432,-1.6723,-1.685,-1.7212,-1.7494,-1.757,-1.7666,-1.774,-1.774,-1.7842,-1.7902,-1.7902,-1.7902,-1.7685,-1.719,-1.7163,-1.7163,-1.7163,-1.7163,-1.7452,-1.8009,-1.7989,-1.8069,-1.8254,-1.8553,-1.8616,-0.9706,-1.053,-1.1804,-1.3457,-1.3358,-1.3322,0.0,0.0,-1.4261,-1.4116,-1.4832,-1.5336,-1.4989,-1.5732,-1.6463,-1.6583,-1.6991,-1.7315,-1.7375,-1.782,-1.8211,-1.8524,-1.8623,-1.8685,-1.8797,-1.9872,-2.0631,-2.0795,-2.1129,-2.1337,-2.1399,-2.1925,-2.2237,-2.2305,-2.2822,-2.3134,-2.3215,-2.3215,-2.3215,-2.3215,-2.3215,-2.3215,-2.3215,-2.3215,-2.3499,-2.4028,-2.4584,-2.4475,-2.4001,-2.4001,-2.3689,-2.3201,-2.3134,-2.3066,-2.2944,-2.2414,-2.221,-2.2278,-2.2808,-2.2959,-2.2773,-2.2107,-2.1919,-2.1919,-2.1639,-2.1155,-2.0652,-2.0586,-2.0135,-1.954,-1.9174,-1.9133,-1.9212,-1.9331,-1.9345,-1.9345,-1.9345,-1.9296,-1.9241,-1.9193,-1.92,-1.9164,-1.9129,-1.8698,-1.811,-1.7345,-1.7323,-1.7393,-1.7413,-1.7563,-1.772,-1.7842,-1.7862,-1.7882,-1.7882,-1.7882,-1.7902,-1.7902,-1.7902,-1.7875,-1.7807,-1.7807,-1.7807,-1.7807,-1.7807,-1.8001,-1.8436,-1.8319,-1.8674,-1.9493,-1.935,-1.8945,-1.2701,-1.331,0.0,0.0,-1.5242,-1.5402,-1.6393,-1.593,-1.5374,-1.574,-1.5804,-1.5816,-1.59,-1.6307,-1.6799,0.0,-1.7922,-1.8252,-1.8315,-1.8929,-1.9207,-1.8784,-1.9471,-1.9948,-1.9948,-2.0466,-2.0908,-2.1129,-2.1637,-2.1925,-2.1925,-2.2483,-2.2971,-2.335,-2.3594,-2.3892,-2.4231,-2.4245,-2.4245,-2.4245,-2.4245,-2.4245,-2.4245,-2.4245,-2.438,-2.4652,-2.4896,-2.4869,-2.4639,-2.4639,-2.4462,-2.4204,-2.3865,-2.3716,-2.3649,-2.3039,-2.2822,-2.2863,-2.312,-2.3215,-2.3148,-2.276,-2.2665,-2.2665,-2.2497,-2.1785,-2.1056,-2.1028,-2.0539,-1.9991,-1.9837,-2.0016,-2.0258,-2.0308,-2.0334,-2.0334,-2.0334,-2.0334,-2.0344,-2.0394,-2.033,-2.0233,-2.004,-1.9767,-1.9338,-1.8727,-1.799,-1.7529,-1.7604,-1.7679,-1.774,-1.7882,-1.7902,-1.7902,-1.7902,-1.7902,-1.7902,-1.7902,-1.7902,-1.7902,-1.7902,-1.7902,-1.7902,-1.7902,-1.7902,-1.8109,-1.85,-1.8442,-1.8745,-1.9347,-1.9493,-1.9369,-1.4651,0.0,0.0,-1.6213,-1.665,-1.6982,-1.7094,-1.6504,-1.6107,-1.6638,-1.6306,-1.6034,-1.6307,-1.6701,-1.7194,-1.7857,-1.8583,-1.9055,-1.9137,-1.9759,-1.9978,-1.9358,-2.0175,-2.0845,-2.0957,-2.0981,-2.116,-2.1616,-2.2061,-2.2373,-2.2524,-2.312,-2.3649,-2.4082,-2.4245,-2.4571,-2.5005,-2.5005,-2.5005,-2.5005,-2.5005,-2.5005,-2.5005,-2.5005,-2.5005,-2.5005,-2.5005,-2.5005,-2.5005,-2.5005,-2.5005,-2.4964,-2.4502,-2.434,-2.4286,-2.3865,-2.3594,-2.3472,-2.3649,-2.3703,-2.3635,-2.3353,-2.3259,-2.3259,-2.3111,-2.226,-2.1407,-2.1523,-2.1004,-2.0421,-2.0472,-2.0759,-2.1057,-2.1106,-2.1106,-2.1106,-2.1106,-2.1106,-2.1131,-2.1229,-2.118,-2.1021,-2.0782,-2.057,-2.028,-1.9845,-1.8827,-1.8074,-1.7968,-1.7848,-1.7781,-1.7882,-1.7902,-1.7902,-1.7902,-1.7902,-1.7902,-1.7902,-1.7902,-1.7963,-1.8069,-1.8069,-1.8129,-1.8228,-1.8228,-1.8431,-1.8827,-1.8827,-1.9049,-1.9435,-1.9726,-1.98,0.0,0.0,-1.6208,-1.6824,-1.7421,-1.7794,-1.7462,-1.711,-1.6765,-1.6377,-1.629,-1.6194,-1.5871,-1.6934,-1.7762,-1.7484,-1.862,-1.9566,-1.9578,-1.9952,-2.0334,-2.0695,-2.0758,-2.0957,0.0,-2.1375,-2.1629,-2.2237,-2.2291,-2.2563,-2.3147,-2.3743,-2.4069,-2.4096,-2.4679,-2.4991,-2.5005,-2.5005,-2.5005,-2.5005,-2.5005,-2.5005,-2.5005,-2.5005,-2.5005,-2.5005,-2.5005,-2.5005,-2.5005,-2.5005,-2.5005,-2.5005,-2.4991,-2.4978,-2.4978,-2.4951,-2.4598,-2.415,-2.4747,-2.4951,-2.4828,-2.4121,-2.3959,-2.4014,-2.374,-2.2911,-2.2147,-2.2631,-2.19,-2.1021,-2.1131,-2.118,-2.1229,-2.135,-2.1399,-2.1399,-2.1399,-2.1399,-2.1399,-2.1399,-2.1399,-2.1385,-2.1372,-2.0897,-2.0481,-2.0468,-1.9989,-1.9385,-1.8669,-1.8186,-1.7902,-1.7902,-1.7902,-1.7902,-1.7902,-1.7902,-1.7902,-1.7902,-1.7902,-1.8069,-1.8475,-1.8481,-1.8669,-1.9064,-1.9064,-1.9269,-1.9657,-1.9657,-1.9869,-2.027,-2.027,-2.0287,0.0,0.0,-1.6837,-1.7454,-1.7753,-1.7808,-1.7488,-1.7136,-1.6854,-1.6735,-1.6315,-1.612,-1.6585,-1.6873,-1.723,-1.782,-1.8809,-1.9497,-1.9593,-2.0422,-2.0799,-2.0281,-2.0791,0.0,0.0,0.0,0.0,-2.2251,-2.2659,-2.3161,-2.3757,-2.4353,-2.4706,-2.4706,-2.4896,-2.5005,-2.5005,-2.5005,-2.5005,-2.5005,-2.5005,-2.5005,-2.5005,-2.5005,-2.5005,-2.5005,-2.5005,-2.5005,-2.5005,-2.5005,-2.5005,-2.5005,-2.5005,-2.5005,-2.5005,-2.5005,-2.4883,-2.4747,-2.4937,-2.5005,-2.4978,-2.4718,-2.4651,-2.4679,-2.4595,-2.4041,-2.3366,-2.3137,-2.249,-2.1776,-2.1421,-2.1326,-2.135,-2.1399,-2.1399,-2.1399,-2.1399,-2.1399,-2.1399,-2.1399,-2.1399,-2.1399,-2.1399,-2.1223,-2.1101,-2.1101,-1.9958,-1.9008,-1.877,-1.8248,-1.7902,-1.7902,-1.7902,-1.7902,-1.7902,-1.7902,-1.7902,-1.7902,-1.7902,-1.8089,-1.8481,-1.85,-1.8688,-1.9082,-1.9101,-1.9306,-1.9708,-1.9708,-1.9904,-2.0304,-2.0304,-2.0304,0.0,-1.7299,-1.7136,-1.7753,-1.7902,-1.7808,-1.7488,-1.7136,-1.6854,-1.6714,-1.6315,-1.6164,-1.6705,-1.6895,-1.7246,-1.8154,-1.9015,-1.9664,-1.9978,-2.0809,-2.1234,-2.0804,-2.132,-2.1643,0.0,0.0,0.0,-2.2578,-2.3188,-2.3784,-2.438,-2.4801,-2.5005,-2.5005,-2.5005,-2.5005,-2.5005,-2.5005,-2.5005,-2.5005,-2.5005,-2.5005,-2.5005,-2.5005,-2.5005,-2.5005,-2.5005,-2.5005,-2.5005,-2.5005,-2.5005,-2.5005,-2.5005,-2.5005,-2.5005,-2.5005,-2.5005,-2.5005,-2.5005,-2.5005,-2.5005,-2.5005,-2.5005,-2.5005,-2.5005,-2.4598,-2.396,-2.3378,-2.2768,-2.221,-2.1805,-2.1548,-2.144,-2.1656,-2.1548,-2.1399,-2.1399,-2.1399,-2.1399,-2.1399,-2.1399,-2.1399,-2.1399,-2.1399,-2.1399,-2.1399,-2.027,-1.9402,-1.9402,-1.8907,-1.8473,-1.8242,-1.8215,-1.8194,-1.8123,-1.8095,-1.8189,-1.8313,-1.8327,-1.8509,-1.8903,-1.8921,-1.9109,-1.9527,-1.9527,-1.9672,-1.9904,-1.9904,-2.0045,-2.0304,-2.0304,-2.0304,-1.7041,-1.7068,-1.7217,-1.7766,-1.7916,-1.7848,-1.7447,-1.7136,-1.6778,-1.6373,-1.6253,-1.6241,0.0,0.0,-1.7718,-1.8352,-1.9246,-2.0099,-2.0756,-2.1182,-2.1656,0.0,0.0,0.0,0.0,0.0,0.0,-2.3256,0.0,-2.4353,-2.4978,-2.5005,-2.5005,-2.5005,-2.5005,-2.5005,-2.5005,-2.5005,-2.5005,-2.5005,-2.5005,-2.5005,-2.5005,-2.5005,-2.5005,-2.5005,-2.5005,-2.5005,-2.5005,-2.5005,-2.5005,-2.5005,-2.5005,-2.5005,-2.5005,-2.5005,-2.5005,-2.5005,-2.5005,-2.5005,-2.5005,-2.5005,-2.5005,-2.5005,-2.5005,-2.4611,-2.4014,-2.3432,-2.2822,-2.2386,-2.2359,-2.1914,-2.1629,-2.2224,-2.1898,-2.144,-2.144,-2.1412,-2.1399,-2.1399,-2.1399,-2.1399,-2.1399,-2.1399,-2.1423,-2.1447,-2.0958,-2.0568,-2.0518,-2.0017,-1.9469,-1.8894,-1.8882,-1.8803,-1.8616,-1.859,-1.8731,-1.914,-1.9116,-1.9288,-1.969,-1.9708,-1.9887,-2.0287,-2.0304,-2.0304,-2.0304,-2.0304,-2.0304,-2.0304,-2.0304,-2.0304,-1.7563,-1.7997,-1.8269,-1.797,-1.8242,-1.8299,-1.7261,-1.696,-1.6739,-1.6193,-1.5678,-1.5417,-1.571,0.0,0.0,-1.7645,-1.866,0.0,-2.127,-2.1824,0.0,-2.2903,0.0,-2.3039,-2.3201,-2.3608,0.0,0.0,-2.4001,-2.4353,-2.4978,-2.5005,-2.5005,-2.5005,-2.5005,-2.5005,-2.5005,-2.5005,-2.5005,-2.5005,-2.5005,-2.5005,-2.5005,-2.5005,-2.5005,-2.5005,-2.5005,-2.5005,-2.5005,-2.5005,-2.5005,-2.5005,-2.5005,-2.5005,-2.5005,-2.5005,-2.5005,-2.5005,-2.5005,-2.5005,-2.5005,-2.5005,-2.5005,-2.5005,-2.5005,-2.4896,-2.4652,-2.4042,-2.3757,-2.3527,-2.3093,-2.2863,-2.2781,-2.293,-2.251,-2.2074,-2.2074,-2.1711,-2.1399,-2.1399,-2.1399,-2.1399,-2.1399,-2.1399,-2.1544,-2.1949,-2.1857,-2.1453,-2.0619,-2.0017,-1.9632,-1.9505,-1.9791,-1.9964,-1.9922,-1.9789,-1.9754,-1.9851,-1.9381,-1.9288,-1.969,-1.9708,-1.9887,-2.0287,-2.0304,-2.0304,-2.0304,-2.0304,-2.0304,-2.0304,-2.0304,-2.0304,-1.8201,-1.8744,-1.9057,-1.8445,-1.8541,-1.8428,-1.7036,-1.6731,-1.6436,-1.5427,-1.504,0.0,-1.4818,0.0,0.0,0.0,0.0,0.0,-2.0991,-2.183,-2.251,0.0,-2.3432,0.0,-2.396,-2.4286,-2.4611,0.0,-2.4652,-2.4652,-2.4991,-2.5005,-2.5005,-2.5005,-2.5005,-2.5005,-2.5005,-2.5005,-2.5005,-2.5005,-2.5005,-2.5005,-2.5005,-2.5005,-2.5005,-2.5005,-2.5005,-2.5005,-2.5005,-2.5005,-2.5005,-2.5005,-2.5005,-2.5005,-2.5005,-2.5005,-2.5005,-2.5005,-2.5005,-2.5005,-2.5005,-2.5005,-2.5005,-2.5005,-2.5005,-2.5005,-2.4883,-2.4258,-2.4096,-2.4014,-2.3689,-2.3405,-2.3283,-2.354,-2.3134,-2.2619,-2.2359,-2.2034,-2.1711,-2.144,-2.1399,-2.1399,-2.1399,-2.1616,-2.1841,-2.2161,-2.2379,-2.2275,-2.1647,-2.112,-2.0693,-2.0431,-2.0656,-2.0769,-2.0677,-2.075,-2.0744,-2.062,-2.0281,-2.0044,-1.9973,-2.0246,-2.0368,-2.0287,-2.0597,-2.058,-2.0304,-2.0304,-2.0304,-2.0304,-2.0304,-2.0474,-1.8793,-1.9247,-1.9551,-1.8948,-1.8853,-1.8484,-1.6864,-1.6441,-1.5949,-1.4454,0.0,-1.4268,-1.3831,-1.4883,-1.6068,-1.6883,0.0,-1.9741,-2.0518,-2.1589,-2.2537,-2.3242,-2.3852,-2.4421,-2.4951,-2.5073,-2.5344,-2.5846,-2.5493,-2.5249,-2.5249,-2.5249,-2.5249,-2.5249,-2.5086,-2.5046,-2.5127,-2.5046,-2.5046,-2.5127,-2.5127,-2.5127,-2.5127,-2.5208,-2.5154,-2.5005,-2.5086,-2.5073,-2.5005,-2.5005,-2.5005,-2.5005,-2.5005,-2.5005,-2.5005,-2.5005,-2.5005,-2.5005,-2.5005,-2.5005,-2.5005,-2.5005,-2.5005,-2.5005,-2.5005,-2.5005,-2.4896,-2.4353,-2.4218,-2.4218,-2.4218,-2.3825,-2.3581,-2.4096,-2.3757,-2.3161,-2.2537,-2.2305,-2.2034,-2.1494,-2.1471,-2.152,-2.152,-2.1935,-2.231,-2.2379,-2.2731,-2.3024,-2.3068,-2.2632,-2.2089,-2.1575,-2.1563,-2.1534,-2.1355,-2.16,-2.1682,-2.1455,-2.135,-2.1042,-2.0474,-2.1073,-2.1165,-2.0582,-2.1042,-2.1011,-2.0426,-2.035,-2.0304,-2.0304,-2.0304,-2.0676,-1.8649,-1.9247,-1.9551,-1.8948,-1.9179,-1.9003,-1.6957,-1.6105,0.0,0.0,0.0,-1.2999,-1.3394,-1.3911,0.0,-1.6699,0.0,0.0,0.0,0.0,-2.2712,0.0,0.0,0.0,0.0,0.0,0.0,0.0,-2.628,-2.6481,-2.6481,-2.6481,-2.6481,-2.6481,-2.5534,-2.5236,-2.5738,-2.5249,-2.5249,-2.5738,-2.5738,-2.5738,-2.5751,-2.6267,-2.5925,-2.5032,-2.552,0.0,-2.5005,-2.5005,-2.5005,-2.5005,-2.5005,-2.5005,-2.5005,-2.5005,-2.5005,-2.5005,-2.5005,-2.5005,-2.5005,-2.5005,-2.5005,-2.5005,-2.5005,-2.5005,-2.4991,-2.4883,-2.4842,-2.4842,-2.4842,-2.4774,-2.472,-2.4829,-2.4367,-2.3784,-2.3174,-2.2253,-2.1521,-2.1412,-2.1746,-2.2067,-2.2067,-2.2457,-2.2912,-2.3312,-2.3421,-2.3616,-2.4015,-2.3312,-2.2733,-2.2618,-2.2974,-2.3191,-2.3159,-2.2561,-2.2183,-2.2135,-2.1612,-2.1242,-2.1134,-2.1781,-2.2074,-2.1966,-2.1519,-2.1242,-2.1119,-2.0564,-2.0304,-2.0304,-2.0304,-2.085,-1.8725,-1.9429,-1.9895,-1.9016,-1.926,-1.91,-1.6807,0.0,0.0,0.0,0.0,-1.2227,-1.2033,0.0,0.0,0.0,0.0,0.0,0.0,0.0,0.0,0.0,0.0,0.0,0.0,0.0,0.0,0.0,-2.6945,-2.7118,-2.682,-2.6793,-2.678,-2.6763,-2.5939,-2.5596,-2.5909,-2.5282,-2.5154,-2.5426,-2.5426,-2.5602,-2.5887,-2.5887,-2.5871,-2.5941,-2.5575,-2.5453,-2.5439,-2.5127,-2.5005,-2.5005,-2.5005,-2.5005,-2.5005,-2.5005,-2.5005,-2.5005,-2.5005,-2.5005,-2.5005,-2.5005,-2.5005,-2.5005,-2.5005,-2.5005,-2.5005,-2.5005,-2.5005,-2.5005,-2.5005,-2.5005,-2.5005,-2.5005,-2.4529,-2.4014,-2.365,-2.2887,-2.2263,-2.2189,-2.2388,-2.2549,-2.2549,-2.2957,-2.3334,-2.3573,-2.3824,-2.4051,-2.4261,-2.3909,-2.353,-2.329,-2.3465,-2.3595,-2.3595,-2.3117,-2.2671,-2.2317,-2.2012,-2.1504,-2.0811,-2.1766,-2.2151,-2.1797,-2.1458,-2.1473,-2.1827,-2.115,-2.0811,-2.0826,-2.1381,-2.1921,-1.8765,-1.9442,-1.9931,-1.9016,-1.9165,-1.89,-1.6615,-1.5535,0.0,0.0,0.0,-1.1615,-1.0994,0.0,0.0,0.0,0.0,0.0,0.0,0.0,0.0,0.0,0.0,0.0,0.0,0.0,0.0,0.0,-2.7519,-2.7691,-2.7199,-2.705,-2.701,-2.7072,-2.6432,-2.6144,-2.6254,-2.5661,-2.5355,-2.5351,-2.5351,-2.5608,-2.6077,-2.5602,-2.5846,-2.6535,-2.5615,-2.5385,-2.567,-2.5208,-2.5005,-2.5005,-2.5005,-2.5005,-2.5005,-2.5005,-2.5005,-2.5005,-2.5005,-2.5005,-2.5005,-2.5005,-2.5005,-2.5005,-2.5005,-2.5005,-2.5005,-2.5005,-2.5005,-2.5005,-2.5005,-2.5005,-2.5033,-2.5174,-2.4737,-2.4255,-2.4112,-2.3667,-2.3188,-2.2952,-2.2979,-2.3046,-2.3046,-2.3443,-2.376,-2.376,-2.4057,-2.4302,-2.4302,-2.4302,-2.4156,-2.3803,-2.376,-2.376,-2.376,-2.3468,-2.3009,-2.2351,-2.2424,-2.1981,-2.0782,-2.2028,-2.249,-2.1951,-2.1797,-2.1997,-2.2501,-2.1935,-2.1649,-2.1683,-2.2598,-2.3163,-1.8636,-1.8867,-1.8921,-1.8833,-1.8826,-1.8391,-1.6539,0.0,0.0,0.0,-1.1601,-1.0966,-1.1437,-1.1682,0.0,0.0,0.0,0.0,0.0,0.0,0.0,0.0,0.0,0.0,0.0,0.0,0.0,0.0,-2.8011,-2.8478,-2.8438,-2.7908,-2.7848,-2.8302,-2.7225,-2.6877,-2.7429,-2.685,-2.654,-2.6539,-2.6539,-2.6601,-2.6711,-2.6657,-2.6416,-2.5968,-2.586,-2.5534,0.0,-2.5032,-2.5005,-2.5005,-2.5005,-2.5005,-2.5005,-2.5005,-2.5005,-2.5005,-2.5005,-2.5005,-2.5005,-2.5005,-2.5005,-2.5005,-2.5005,-2.5005,-2.5005,-2.5005,-2.5005,-2.5005,-2.5005,-2.5005,-2.5146,-2.5702,-2.5348,-2.4885,-2.4749,-2.4235,-2.3635,-2.3006,-2.3246,-2.353,-2.353,-2.3931,-2.424,-2.424,-2.4261,-2.4302,-2.4302,-2.4302,-2.4281,-2.424,-2.424,-2.424,-2.424,-2.3666,-2.3009,-2.2351,-2.2871,-2.2871,-2.2151,-2.3394,-2.4087,-2.4025,-2.3425,-2.3148,-2.3209,-2.2901,-2.2738,-2.2756,-2.3228,-2.3979,-1.8092,-1.8513,-1.8725,-1.835,-1.8527,-1.8323,-1.6512,0.0,-1.3961,-1.2738,-1.1533,-1.076,-1.1017,-1.142,-1.2211,0.0,-1.423,-1.5446,0.0,0.0,0.0,0.0,0.0,0.0,0.0,0.0,0.0,-2.864,-2.8979,-2.9345,-2.9827,-2.9184,-2.8708,-2.8511,-2.8068,-2.7744,-2.7532,-2.6971,-2.6899,-2.7308,-2.6566,-2.6625,-2.7381,-2.7036,-2.6895,-2.6906,-2.6604,-2.6525,0.0,-2.5813,-2.5536,-2.5536,-2.5536,-2.5314,-2.5033,-2.5425,-2.5314,-2.5061,-2.5425,-2.5314,-2.5005,-2.5005,-2.5005,-2.5005,-2.5005,-2.5005,-2.5005,-2.5005,-2.5005,-2.5005,-2.5005,-2.5286,-2.5688,-2.6256,-2.5902,-2.5384,-2.5261,-2.4707,-2.4148,-2.3816,-2.3888,-2.4015,-2.4015,-2.4177,-2.4302,-2.4302,-2.4302,-2.4302,-2.4302,-2.4302,-2.4302,-2.4302,-2.4302,-2.4302,-2.4302,-2.3686,-2.3179,-2.2917,-2.3148,-2.2994,-2.2336,-2.3194,-2.3702,-2.3702,-2.3281,-2.3462,-2.4253,-2.3986,-2.3869,-2.3887,-2.4698,-2.5074,-1.7481,-1.8065,-1.8418,-1.8011,-1.8092,-1.7848,0.0,0.0,-1.3703,-1.2482,-1.1424,-1.0705,-1.0741,-1.1294,-1.2113,-1.3289,-1.399,-1.527,-1.7852,0.0,0.0,0.0,0.0,0.0,0.0,0.0,0.0,-2.9951,-2.9955,-3.0256,-3.0999,-3.0322,-2.9594,-2.8876,-2.8832,-2.8577,-2.8072,-2.7686,-2.7764,-2.8253,-2.7399,-2.737,-2.8011,-2.7413,-2.73,-2.757,-2.7059,-2.6941,0.0,-2.6402,-2.6042,-2.5921,-2.6069,-2.577,-2.5342,-2.592,-2.577,-2.5356,-2.592,-2.5865,-2.5508,-2.5508,-2.5508,-2.5508,-2.5508,-2.5272,-2.5033,-2.523,-2.5384,-2.5508,-2.5508,-2.5811,-2.6213,-2.6549,-2.6283,-2.585,-2.552,-2.507,-2.4653,-2.4357,-2.4302,-2.4302,-2.4302,-2.4302,-2.4302,-2.4302,-2.4302,-2.4302,-2.4302,-2.4302,-2.4302,-2.4302,-2.4302,-2.4302,-2.4302,-2.3871,-2.3517,-2.3302,-2.3486,-2.3346,-2.2785,-2.3421,-2.3838,-2.394,-2.3777,-2.413,-2.5079,-2.5001,-2.4974,-2.4992,-2.5873,-2.6014,-1.6851,-1.7454,-1.7916,-1.7902,-1.7468,-1.6688,0.0,-1.4273,-1.3064,-1.1858,-1.1125,-1.0741,-1.0861,-1.1281,-1.1896,-1.276,-1.4516,-1.618,-1.7357,0.0,0.0,0.0,0.0,0.0,0.0,0.0,0.0,-3.0779,-3.0903,0.0,-3.1847,-3.1255,-3.0522,-2.9708,-2.9502,-2.9388,-2.9387,-2.9387,-2.9454,-2.9574,-2.9574,-2.9205,-2.858,-2.7968,-2.765,-2.7569,-2.6956,-2.639,0.0,-2.6481,-2.639,-2.5934,-2.6481,-2.6363,-2.5975,-2.6481,-2.6363,-2.5961,-2.6508,-2.6678,-2.6678,-2.6678,-2.6678,-2.6678,-2.6678,-2.5892,-2.5118,-2.5729,-2.6256,-2.6678,-2.6678,-2.6678,-2.6648,-2.652,-2.6518,-2.6264,-2.5479,-2.5296,-2.5096,-2.442,-2.4302,-2.4302,-2.4302,-2.4302,-2.4302,-2.4302,-2.4302,-2.4302,-2.4302,-2.4302,-2.4302,-2.4302,-2.4302,-2.4302,-2.4302,-2.4302,-2.401,-2.3332,-2.3933,-2.4182,-2.3891,-2.4523,-2.5082,-2.5468,-2.5468,-2.5486,-2.5503,-2.589,-2.6087,-2.6087,-2.6505,-2.6691,-1.5101,-1.5607,-1.596,-1.5552,-1.562,-1.5457,-1.4246,-1.3676,-1.3051,-1.1844,-1.1125,-1.0741,-1.0873,-1.1012,-1.1656,-1.3319,-1.4182,0.0,0.0,0.0,0.0,0.0,0.0,0.0,0.0,0.0,-2.9519,-3.0231,-3.1092,-3.1496,-3.1311,-3.1429,-3.0964,-2.9811,-2.9622,-2.9316,-2.8865,-2.8769,-2.8975,-2.9465,-2.8634,-2.8366,-2.8592,-2.8411,-2.8043,-2.7562,-2.781,-2.782,-2.7585,-2.7352,-2.7159,-2.7004,-2.7185,-2.6927,-2.6508,-2.7056,-2.6927,-2.6508,-2.7067,-2.7016,-2.6704,-2.6704,-2.6704,-2.6704,-2.6704,-2.6441,-2.6215,-2.6375,-2.6587,-2.6782,-2.7144,-2.692,-2.6673,-2.7018,-2.6375,-2.5604,-2.5367,-2.4927,-2.4564,-2.4348,-2.4302,-2.4302,-2.4302,-2.4302,-2.4302,-2.4302,-2.4302,-2.4302,-2.4302,-2.4302,-2.4302,-2.4302,-2.4302,-2.4302,-2.4302,-2.4302,-2.4333,-2.4386,-2.4594,-2.4788,-2.4992,-2.5201,-2.537,-2.5503,-2.5781,-2.5908,-2.5908,-2.6315,-2.6505,-2.6505,-2.6641,-2.6691,0.0,-1.4395,-1.4778,-1.4382,-1.4409,-1.4259,-1.3281,-1.2875,-1.2441,-1.1465,-1.0963,-1.0741,-1.0873,-1.1296,-1.2065,-1.3431,-1.4601,0.0,0.0,0.0,0.0,0.0,0.0,0.0,0.0,-2.9041,-2.9644,-3.0043,-3.1052,-3.1481,-3.1096,-3.114,-3.0813,-2.9991,-2.9772,-2.9468,-2.9049,-2.891,-2.9195,-2.9832,-2.9038,-2.8734,-2.8899,-2.8899,-2.8495,-2.7875,-2.8283,-2.8313,0.0,-2.791,-2.7705,-2.7515,-2.773,-2.7504,-2.7067,-2.763,-2.7464,-2.7067,-2.763,-2.762,-2.7352,-2.7352,-2.7352,-2.7352,-2.7352,-2.7185,-2.699,-2.699,-2.7159,-2.7429,-2.7745,-2.7542,-2.7191,-2.7049,-2.6349,-2.558,-2.5035,-2.4589,-2.4302,-2.4302,-2.4302,-2.4302,-2.4302,-2.4302,-2.4302,-2.4302,-2.4302,-2.4302,-2.4302,-2.4302,-2.4302,-2.4302,-2.4446,-2.4533,-2.4533,-2.4533,-2.4619,-2.4883,-2.504,-2.5313,-2.5707,-2.5726,-2.5799,-2.5944,-2.621,-2.6315,-2.6315,-2.6573,-2.6691,-2.6691,-2.6691,-2.6691,0.0,-1.3579,-1.4042,-1.4042,-1.3662,-1.3119,-1.2508,-1.1967,0.0,-1.0815,-1.0705,-1.078,-1.1021,-1.1984,-1.294,-1.3439,0.0,0.0,0.0,0.0,0.0,0.0,0.0,0.0,0.0,-2.9045,-2.9777,-3.0117,-3.0796,-3.1151,-3.1056,-3.0496,-3.0188,-3.0125,-2.9876,-2.9746,-2.9722,-2.9608,-2.9844,-3.0438,-3.0325,-2.9925,-2.9335,-2.9335,-2.8996,0.0,-2.8411,-2.8073,-2.7605,-2.8186,-2.8073,-2.763,-2.8186,-2.8073,-2.763,-2.8186,-2.8048,-2.7655,-2.821,-2.8411,-2.8411,-2.8411,-2.8411,-2.8411,-2.8411,-2.8008,-2.7565,-2.7565,-2.7959,-2.8411,-2.8411,-2.8365,-2.7996,-2.6703,-2.6371,-2.5949,-2.4594,-2.4302,-2.4302,-2.4302,-2.4302,-2.4302,-2.4302,-2.4302,-2.4302,-2.4302,-2.4302,-2.4302,-2.4302,-2.4323,-2.4343,-2.4343,-2.4699,-2.4942,-2.4942,-2.4942,-2.4962,-2.4981,-2.5332,-2.5726,-2.6139,-2.6139,-2.6315,-2.6691,-2.6691,-2.6691,-2.6691,-2.6691,-2.6691,-2.6691,-2.6691,-2.6691,-1.0234,0.0,-1.156,-1.156,-1.179,-1.1858,0.0,-1.137,-1.1424,0.0,0.0,-1.1199,-1.2308,-1.2492,-1.3388,0.0,0.0,0.0,0.0,0.0,0.0,0.0,0.0,0.0,0.0,-2.9604,-2.9864,-2.9382,-3.0488,-3.0725,-2.9651,-2.9975,-2.9927,-2.9367,-2.9281,-2.9179,-2.9044,-2.8893,-2.885,-2.8922,-2.8873,-2.8796,-2.8642,-2.8642,-2.855,-2.8411,-2.8411,-2.8323,-2.821,-2.8453,-2.8405,-2.821,-2.8468,-2.8405,-2.821,-2.8348,-2.8323,-2.821,-2.8348,-2.8411,-2.8411,-2.8411,-2.8411,-2.8411,-2.8411,-2.8299,-2.8186,-2.8186,-2.8299,-2.8411,-2.8411,-2.8027,-2.7426,-2.6595,-2.5964,-2.5333,-2.4487,-2.4302,-2.4302,-2.4302,-2.4302,-2.4302,-2.4302,-2.4302,-2.4302,-2.4302,-2.4302,-2.4302,-2.4302,-2.4574,-2.4759,-2.4759,-2.5121,-2.5351,-2.5351,-2.5351,-2.5503,-2.5799,-2.5908,-2.6139,-2.6539,-2.6556,-2.659,-2.6691,-2.6691,-2.6691,-2.6691,-2.6691,-2.6691,-2.6691,-2.6691,-2.6691,-0.883,-0.9894,-1.076,-1.1044,-1.1356,-1.1505,-1.1193,0.0,0.0,0.0,0.0,0.0,-1.2572,0.0,0.0,0.0,0.0,0.0,0.0,0.0,0.0,0.0,0.0,0.0,0.0,-2.9446,-2.9532,-2.913,-2.9809,-2.9904,-2.9146,-2.9485,-2.9516,-2.9114,-2.9098,-2.9045,-2.8944,-2.8795,-2.87,-2.8629,-2.8541,-2.8493,-2.8493,-2.8436,-2.8411,-2.8411,-2.8411,-2.842,-2.8493,-2.8573,-2.8589,-2.858,-2.8612,-2.8589,-2.858,-2.8517,-2.8517,-2.858,-2.858,-2.8541,-2.8468,-2.842,-2.8411,-2.8411,-2.8411,-2.8411,-2.8411,-2.8411,-2.8411,-2.8411,-2.8411,-2.8134,-2.7611,-2.6626,-2.6087,-2.5533,-2.4533,-2.4302,-2.4302,-2.4302,-2.4302,-2.4364,-2.4538,-2.4574,-2.4639,-2.4803,-2.4843,-2.4843,-2.4843,-2.504,-2.5195,-2.5195,-2.554,-2.5781,-2.5781,-2.5944,-2.6052,-2.6104,-2.6263,-2.647,-2.6691,-2.6691,-2.6691,-2.6691,-2.6691,-2.6691,-2.6691,-2.6691,-2.6691,-2.6691,-2.6691,-2.6775,-0.8343,-0.9754,-1.1019,-1.1348,-1.1635,-1.1827,-1.1757,0.0,0.0,0.0,0.0,0.0,0.0,0.0,0.0,0.0,0.0,0.0,0.0,0.0,0.0,0.0,0.0,0.0,-2.9075,-2.9098,-2.9098,-2.9098,-2.9098,-2.9098,-2.9098,-2.9098,-2.9098,-2.9098,-2.9098,-2.9098,-2.9098,-2.8967,-2.8881,-2.8873,-2.8716,-2.8636,-2.8612,-2.8468,-2.842,-2.842,-2.842,-2.8493,-2.8636,-2.8645,-2.8708,-2.8794,-2.8708,-2.8708,-2.8794,-2.866,-2.8684,-2.8794,-2.8771,-2.8684,-2.8573,-2.8444,-2.8411,-2.8411,-2.8411,-2.8411,-2.8411,-2.8411,-2.8411,-2.8411,-2.8411,-2.8319,-2.7965,-2.6811,-2.638,-2.5925,-2.4786,-2.4446,-2.4405,-2.4472,-2.4472,-2.4578,-2.4942,-2.5001,-2.5118,-2.5446,-2.5503,-2.5503,-2.5503,-2.5559,-2.5596,-2.5596,-2.5944,-2.6192,-2.6192,-2.6505,-2.6539,-2.621,-2.6505,-2.6691,-2.6691,-2.6691,-2.6691,-2.6691,-2.6691,-2.6708,-2.6742,-2.6742,-2.6775,-2.6808,-2.6808,-2.6971,-0.9507,-1.0999,-1.1835,-1.0893,-1.1811,-1.2856,0.0,0.0,0.0,0.0,0.0,0.0,0.0,0.0,0.0,0.0,0.0,0.0,0.0,0.0,0.0,0.0,0.0,-2.9029,-2.9075,-2.9098,-2.9098,-2.9098,-2.9098,-2.9098,-2.9098,-2.9098,-2.9098,-2.9098,-2.9098,-2.9098,-2.9098,-2.8967,-2.8865,-2.8803,-2.8794,-2.8708,-2.8597,-2.8573,-2.8565,-2.8565,-2.8565,-2.866,-2.8771,-2.8842,-2.8818,-2.8794,-2.8842,-2.8834,-2.8794,-2.8771,-2.8771,-2.8771,-2.866,-2.8636,-2.8573,-2.8444,-2.8411,-2.8411,-2.8411,-2.8411,-2.8411,-2.8411,-2.8411,-2.8411,-2.8411,-2.798,-2.7503,-2.7288,-2.6334,-2.5497,-2.5628,-2.5208,-2.4902,-2.5237,-2.5313,-2.5332,-2.5408,-2.5408,-2.5427,-2.5503,-2.5503,-2.5503,-2.5503,-2.5799,-2.5998,-2.5998,-2.6384,-2.6607,-2.6607,-2.6674,-2.6674,-2.6607,-2.6674,-2.6691,-2.6691,-2.6691,-2.6691,-2.6691,-2.6691,-2.6758,-2.6859,-2.6859,-2.7022,-2.7303,-2.7224,-2.7396,-0.8728,-1.0264,-1.1591,-1.1535,-1.3324,-1.4918,0.0,0.0,0.0,0.0,0.0,0.0,0.0,0.0,0.0,0.0,0.0,0.0,0.0,0.0,0.0,0.0,0.0,-2.9098,-2.9098,-2.9098,-2.9098,-2.9098,-2.9098,-2.9098,-2.9098,-2.9098,-2.9098,-2.9098,-2.9098,-2.9098,-2.9098,-2.9052,-2.8982,-2.8967,-2.8881,-2.8818,-2.8771,-2.8645,-2.8636,-2.8684,-2.8636,-2.8692,-2.8858,-2.8897,-2.892,-2.8967,-2.892,-2.8936,-2.8967,-2.8967,-2.8967,-2.8928,-2.8818,-2.8756,-2.8748,-2.866,-2.8628,-2.8628,-2.8628,-2.8628,-2.866,-2.8873,-2.8677,-2.8468,-2.87,-2.8256,-2.7802,-2.8101,-2.7015,-2.6012,-2.6234,-2.5714,-2.5275,-2.5465,-2.5503,-2.5596,-2.587,-2.587,-2.5908,-2.6209,-2.6192,-2.6157,-2.6157,-2.6298,-2.6419,-2.6419,-2.659,-2.6691,-2.6691,-2.6691,-2.6691,-2.6691,-2.6691,-2.6742,-2.6809,-2.6809,-2.6825,-2.6859,-2.6859,-2.6892,-2.6942,-2.7103,-2.7243,-2.7394,-2.7545,-2.7765,-0.8244,-0.9803,-1.1494,-1.239,0.0,0.0,-1.6007,0.0,0.0,0.0,0.0,0.0,0.0,0.0,0.0,0.0,0.0,0.0,0.0,0.0,-2.7604,-2.894,-2.9098,-2.9098,-2.9098,-2.9098,-2.9098,-2.9098,-2.9098,-2.9098,-2.9098,-2.9098,-2.9098,-2.9098,-2.9098,-2.9098,-2.9098,-2.9098,-2.9098,-2.9098,-2.899,-2.8943,-2.8881,-2.8748,-2.8716,-2.8826,-2.8716,-2.8771,-2.8943,-2.8943,-2.9013,-2.9075,-2.899,-2.9013,-2.9098,-2.9098,-2.9098,-2.9075,-2.8943,-2.8904,-2.8897,-2.8826,-2.885,-2.8928,-2.8928,-2.9021,-2.9175,-2.9473,-2.9173,-2.8826,-2.9196,-2.8755,-2.8343,-2.8914,-2.7928,-2.6873,-2.701,-2.6493,-2.5956,-2.5868,-2.5854,-2.5979,-2.64,-2.6366,-2.6435,-2.6843,-2.6792,-2.6708,-2.6742,-2.6742,-2.6758,-2.6775,-2.6775,-2.6775,-2.6775,-2.6775,-2.6775,-2.6775,-2.6775,-2.6825,-2.6926,-2.6926,-2.6959,-2.6991,-2.6991,-2.704,-2.7136,-2.7352,-2.7532,-2.7692,-2.7926,-2.8161,-0.9417,-1.091,-1.2288,-1.3058,0.0,0.0,-1.6969,0.0,0.0,0.0,0.0,0.0,0.0,0.0,0.0,0.0,0.0,0.0,0.0,0.0,-2.7604,-2.894,-2.9098,-2.9098,-2.9098,-2.9098,-2.9098,-2.9098,-2.9098,-2.9098,-2.9098,-2.9098,-2.9098,-2.9098,-2.9098,-2.9098,-2.9098,-2.9098,-2.9098,-2.9098,-2.9075,-2.9013,-2.8904,-2.8881,-2.8881,-2.8881,-2.8881,-2.8967,-2.9075,-2.9075,-2.9075,-2.9098,-2.9075,-2.9075,-2.9098,-2.9098,-2.9098,-2.9075,-2.8943,-2.8904,-2.8897,-2.8826,-2.9052,-2.9355,-2.9355,-2.9657,-3.0026,-3.0031,-2.994,-2.9794,-2.9816,-2.9339,-2.8986,-2.9653,-2.8788,-2.7902,-2.8287,-2.7833,-2.7258,-2.6961,-2.6875,-2.6892,-2.6942,-2.6892,-2.6859,-2.6893,-2.6792,-2.6742,-2.6859,-2.6893,-2.6909,-2.6975,-2.6975,-2.6975,-2.6975,-2.6975,-2.6975,-2.6975,-2.6975,-2.6975,-2.6991,-2.6991,-2.7008,-2.6991,-2.6991,-2.7184,-2.7567,-2.7582,-2.7915,-2.8507,-2.8461,-2.8607,-0.8712,-1.0552,-1.2504,-1.3239,0.0,0.0,0.0,0.0,0.0,0.0,0.0,0.0,0.0,0.0,0.0,0.0,0.0,0.0,0.0,-2.6814,-2.7446,-2.8379,-2.8846,-2.9098,-2.9098,-2.9098,-2.9098,-2.9098,-2.9098,-2.9098,-2.9098,-2.9098,-2.9098,-2.9098,-2.9098,-2.9098,-2.9098,-2.9098,-2.9098,-2.9098,-2.9098,-2.9075,-2.9013,-2.8943,-2.8943,-2.9013,-2.8943,-2.899,-2.9098,-2.9098,-2.9266,-2.9566,-2.9859,-2.9793,-2.9566,-2.9859,-2.9968,-2.9968,-2.9908,-2.9886,-2.9886,-2.9875,-2.9968,-3.0064,-3.0064,-3.0192,-3.0402,-3.0649,-3.069,-3.0629,-3.0485,-2.9877,-2.9553,-3.064,-2.941,-2.8188,-2.8789,-2.8029,-2.7148,-2.7026,-2.6991,-2.7007,-2.7055,-2.7007,-2.6975,-2.7023,-2.6941,-2.6892,-2.6959,-2.6959,-2.6975,-2.7008,-2.6991,-2.6991,-2.6991,-2.7039,-2.7054,-2.7054,-2.7024,-2.7024,-2.7071,-2.7261,-2.7384,-2.743,-2.7609,-2.7768,-2.7908,-2.8106,-2.8352,-2.8601,-2.8761,-2.8846,-0.8884,-1.0838,-1.3043,0.0,0.0,0.0,0.0,0.0,0.0,0.0,0.0,0.0,0.0,0.0,0.0,0.0,0.0,0.0,-2.6081,-2.6519,-2.702,-2.7699,-2.8205,-2.8546,-2.8751,-2.8783,-2.8861,-2.9082,-2.9098,-2.9098,-2.9098,-2.9098,-2.9098,-2.9098,-2.9098,-2.9098,-2.9098,-2.9098,-2.9167,-2.9312,-2.9312,-2.9243,-2.9098,-2.899,-2.9013,-2.9075,-2.899,-2.9106,-2.9312,-2.9312,-2.9589,-3.0054,-3.0372,-3.0309,-3.0054,-3.0393,-3.0497,-3.0497,-3.0497,-3.0497,-3.0497,-3.0497,-3.0601,-3.0703,-3.0703,-3.0804,-3.0965,-3.124,-3.1295,-3.1237,-3.1142,-3.0636,-3.0384,-3.1306,-3.017,-2.8938,-2.923,-2.8322,-2.738,-2.714,-2.7088,-2.7105,-2.7152,-2.7087,-2.7039,-2.7103,-2.7039,-2.7007,-2.704,-2.704,-2.7056,-2.7089,-2.7088,-2.7088,-2.7088,-2.7214,-2.7291,-2.7291,-2.7322,-2.7338,-2.7291,-2.7595,-2.7786,-2.7829,-2.8006,-2.8156,-2.8268,-2.8482,-2.8639,-2.8731,-2.8917,-2.8982,-1.0372,-1.2056,0.0,0.0,0.0,0.0,0.0,0.0,0.0,0.0,0.0,0.0,0.0,0.0,0.0,0.0,-2.5042,-2.5381,-2.6444,-2.6258,-2.6277,-2.7004,-2.7099,-2.7367,-2.8015,-2.8101,-2.8363,-2.9051,-2.9098,-2.9121,-2.9098,-2.9098,-2.9098,-2.9098,-2.9098,-2.9098,-2.9098,-2.9098,-2.9357,-2.981,-2.981,-2.9566,-2.9098,-2.9098,-2.9098,-2.9098,-2.9098,-2.938,-2.981,-2.9815,-3.0097,-3.0497,-3.0518,-3.0518,-3.0518,-3.0518,-3.0518,-3.0518,-3.0518,-3.0518,-3.0518,-3.0518,-3.0767,-3.1103,-3.1103,-3.143,-3.18,-3.1783,-3.1691,-3.1618,-3.1764,-3.1691,-3.1581,-3.1581,-3.1032,-3.0313,-2.9627,-2.892,-2.8178,-2.7437,-2.7299,-2.7299,-2.7299,-2.7184,-2.7103,-2.7103,-2.7039,-2.704,-2.7103,-2.7101,-2.7168,-2.7282,-2.7315,-2.7315,-2.7315,-2.7539,-2.7698,-2.7698,-2.7968,-2.7978,-2.7698,-2.795,-2.8098,-2.8098,-2.8116,-2.8281,-2.8601,-2.8601,-2.8743,-2.9005,-2.9005,-2.9005,-0.9926,-1.2159,0.0,0.0,0.0,0.0,0.0,0.0,0.0,0.0,0.0,0.0,0.0,0.0,0.0,-2.511,-2.5482,-2.5879,-2.6202,-2.6354,-2.6499,-2.6724,-2.7157,-2.7433,-2.7389,-2.7867,-2.8375,-2.8866,-2.9118,-2.9499,-3.0043,-3.0097,-3.0097,-3.0097,-3.0097,-3.0097,-3.0097,-3.0097,-3.0161,-3.0288,-3.0288,-3.0225,-3.0097,-3.0097,-3.0097,-3.0097,-3.0097,-3.0161,-3.0293,-3.0605,-3.0625,-3.0559,-3.1179,-3.1218,-3.0965,-3.1295,-3.1411,-3.1411,-3.1411,-3.1411,-3.1411,-3.1411,-3.1504,-3.1579,-3.1579,-3.169,-3.1679,-3.1162,-3.1006,-3.085,-3.0334,-3.0144,-3.0264,-3.0833,-3.0367,-2.961,-2.8869,-2.8144,-2.7558,-2.7333,-2.7299,-2.7299,-2.7299,-2.7266,-2.7233,-2.7233,-2.7218,-2.7218,-2.725,-2.7402,-2.7537,-2.7585,-2.7742,-2.7855,-2.7855,-2.794,-2.7978,-2.7978,-2.8268,-2.8308,-2.7992,-2.8281,-2.8456,-2.8456,-2.8639,-2.8779,-2.8881,-2.8881,-2.8917,-2.9005,-2.9005,-2.9005,-1.1368,0.0,0.0,0.0,0.0,0.0,0.0,0.0,0.0,0.0,0.0,0.0,0.0,0.0,0.0,-2.595,-2.6031,-2.6157,-2.6332,-2.6358,-2.6412,-2.6412,-2.6752,-2.7046,-2.7126,-2.7545,-2.802,-2.8506,-2.8757,-2.9194,-2.998,-3.0013,-3.0162,-3.0481,-3.0497,-3.0497,-3.0497,-3.0497,-3.058,-3.0744,-3.0744,-3.0845,-3.1004,-3.0662,-3.0497,-3.0518,-3.0683,-3.0744,-3.0784,-3.1201,-3.1237,-3.1081,-3.1579,-3.1634,-3.1411,-3.169,-3.18,-3.18,-3.18,-3.18,-3.18,-3.18,-3.18,-3.1748,-3.1438,-3.1351,-3.1196,-3.0437,-3.0213,-3.011,-2.9627,-2.9506,-2.9627,-3.011,-2.9627,-2.8937,-2.8506,-2.7816,-2.7299,-2.7299,-2.7299,-2.7299,-2.7299,-2.7299,-2.7299,-2.7299,-2.739,-2.745,-2.745,-2.7701,-2.7855,-2.7855,-2.8006,-2.8102,-2.8102,-2.821,-2.8308,-2.8308,-2.8589,-2.8663,-2.8482,-2.8651,-2.8755,-2.8755,-2.8917,-2.9005,-2.9005,-2.9005,-2.9005,-2.9005,-2.9005,-2.9005,0.0,0.0,0.0,0.0,0.0,0.0,0.0,0.0,0.0,0.0,0.0,0.0,0.0,0.0,-2.5748,-2.7066,-2.6691,-2.6333,-2.6691,-2.6419,-2.6157,-2.6157,-2.6157,-2.6405,-2.7044,-2.7166,-2.7466,-2.8105,-2.821,-2.8528,-2.9281,-2.933,-2.9649,-3.0405,-3.0421,-3.0421,-3.0421,-3.0488,-3.067,-3.0959,-3.1026,-3.1255,-3.1575,-3.0934,-3.0621,-3.0642,-3.1004,-3.1162,-3.1201,-3.1617,-3.18,-3.18,-3.18,-3.18,-3.18,-3.18,-3.18,-3.18,-3.18,-3.18,-3.1783,-3.1714,-3.1696,-3.1558,-3.0817,-3.0575,-3.0438,-2.9644,-2.942,-2.9386,-2.935,-2.9316,-2.9317,-2.9333,-2.885,-2.8385,-2.8316,-2.7764,-2.7299,-2.7299,-2.7299,-2.7315,-2.7329,-2.7329,-2.7345,-2.7376,-2.7585,-2.7745,-2.7745,-2.7982,-2.8143,-2.8143,-2.817,-2.8183,-2.8183,-2.8469,-2.8644,-2.8644,-2.887,-2.9005,-2.9005,-2.9005,-2.9005,-2.9005,-2.9005,-2.9005,-2.9005,-2.9005,-2.9005,-2.9005,-2.9005,-2.9005,0.0,0.0,0.0,0.0,0.0,0.0,0.0,0.0,0.0,0.0,0.0,0.0,0.0,-2.7033,-2.6916,-2.7249,-2.7153,-2.7072,-2.7153,-2.6825,-2.6573,-2.6573,-2.6573,-2.652,-2.6337,-2.6911,-2.7453,-2.7853,-2.8185,-2.8682,-2.9417,-2.9451,-2.9536,-2.9707,-2.9725,-2.9725,-2.9725,-3.0341,-3.0377,-2.9849,-3.0485,-3.0504,-3.0023,-3.1048,-3.1523,-3.1523,-3.1615,-3.1653,-3.1671,-3.1763,-3.18,-3.18,-3.18,-3.18,-3.18,-3.18,-3.18,-3.18,-3.18,-3.18,-3.1696,-3.111,-3.0938,-3.0782,-3.0006,-2.9765,-2.9644,-2.9093,-2.8789,-2.8555,-2.8167,-2.7936,-2.7829,-2.8043,-2.8251,-2.823,-2.7661,-2.7402,-2.7299,-2.7299,-2.7299,-2.7376,-2.7569,-2.7615,-2.7686,-2.7897,-2.7982,-2.8006,-2.8006,-2.8295,-2.8482,-2.8482,-2.8676,-2.8803,-2.8803,-2.8881,-2.8917,-2.8917,-2.897,-2.9005,-2.9005,-2.9005,-2.9005,-2.9005,-2.9005,-2.9005,-2.9005,-2.9005,-2.9005,-2.9005,-2.9005,-2.9005,0.0,0.0,0.0,0.0,0.0,0.0,0.0,0.0,0.0,0.0,0.0,0.0,0.0,-2.704,-2.7299,-2.7299,-2.7299,-2.7299,-2.7299,-2.7121,-2.699,-2.699,-2.699,-2.6891,-2.6691,-2.7039,-2.7373,-2.7553,-2.7753,-2.8196,-2.8937,-2.8972,-2.9144,-2.9489,-2.9506,-2.9506,-2.9506,-2.992,-2.992,-2.9506,-2.992,-2.9903,-2.9541,-3.0731,-3.1472,-3.18,-3.18,-3.18,-3.18,-3.18,-3.18,-3.18,-3.18,-3.18,-3.18,-3.18,-3.18,-3.1748,-3.1386,-3.1265,-3.1145,-3.0368,-3.0214,-3.0212,-2.9412,-2.9282,-2.9265,-2.8638,-2.8352,-2.8208,-2.7946,-2.7786,-2.773,-2.7855,-2.7985,-2.7997,-2.7744,-2.7686,-2.7686,-2.7686,-2.7686,-2.7745,-2.7869,-2.7897,-2.794,-2.8088,-2.8242,-2.8334,-2.8334,-2.8614,-2.8779,-2.8779,-2.8917,-2.9005,-2.9005,-2.9005,-2.9005,-2.9005,-2.9005,-2.9005,-2.9005,-2.9005,-2.9005,-2.9005,-2.9005,-2.9005,-2.9005,-2.9005,-2.9005,-2.9005,-2.9005,-2.9005,0.0,0.0,0.0,0.0,0.0,0.0,0.0,0.0,0.0,0.0,0.0,0.0,-2.6077,-2.6644,-2.7144,-2.7282,-2.7299,-2.7299,-2.7299,-2.7299,-2.7297,-2.7315,-2.7315,-2.7315,-2.7315,-2.7315,-2.7315,-2.7299,-2.7299,-2.7558,-2.8178,-2.8213,-2.8489,-2.911,-2.9127,-2.9127,-2.9127,-2.9248,-2.9248,-2.9127,-2.9127,-2.9196,-2.9334,-2.9989,-3.0696,-3.1403,-3.1403,-3.1403,-3.1403,-3.1541,-3.161,-3.161,-3.1748,-3.1714,-3.1627,-3.1748,-3.1664,-3.1425,-3.094,-3.0733,-3.0525,-2.971,-2.9665,-2.973,-2.8921,-2.8868,-2.8976,-2.8367,-2.8143,-2.8098,-2.817,-2.8143,-2.8098,-2.817,-2.8024,-2.7901,-2.8061,-2.8102,-2.8102,-2.8102,-2.8143,-2.8183,-2.8183,-2.8224,-2.825,-2.825,-2.8495,-2.8682,-2.8682,-2.887,-2.9005,-2.9005,-2.9005,-2.9005,-2.9005,-2.9005,-2.9005,-2.9005,-2.9005,-2.9005,-2.9005,-2.9005,-2.9005,-2.9005,-2.9005,-2.9005,-2.9005,-2.9005,-2.9005,-2.9005,-2.9005,-2.9005,0.0,0.0,0.0,0.0,0.0,0.0,0.0,0.0,0.0,0.0,0.0,0.0,-2.5973,-2.6195,-2.6488,-2.7178,-2.7299,-2.7299,-2.7299,-2.7299,-2.733,-2.7376,-2.7393,-2.7393,-2.7393,-2.7393,-2.736,-2.7297,-2.7299,-2.7333,-2.7437,-2.7437,-2.7489,-2.7592,-2.7592,-2.7592,-2.7592,-2.823,-2.823,-2.7592,-2.7592,-2.792,-2.8558,-2.8661,-2.911,-2.9817,-2.9817,-2.9817,-2.9868,-3.0558,-3.0852,-3.0921,-3.1541,-3.1403,-3.0903,-3.1558,-3.115,-3.0324,-3.085,-3.0784,-3.0313,-2.9565,-2.936,-2.9229,-2.8443,-2.8217,-2.83,-2.8492,-2.8321,-2.817,-2.8456,-2.8321,-2.817,-2.8469,-2.8513,-2.8404,-2.8156,-2.8102,-2.8102,-2.8102,-2.8334,-2.852,-2.852,-2.8731,-2.8893,-2.8893,-2.8917,-2.8959,-2.8959,-2.8982,-2.9005,-2.9005,-2.9005,-2.9005,-2.9005,-2.9005,-2.9005,-2.9005,-2.9005,-2.9005,-2.9005,-2.9005,-2.9005,-2.9005,-2.9005,-2.9005,-2.9005,-2.9005,-2.9005,-2.9005,-2.9005,-2.9005,0.0,0.0,0.0,0.0,0.0,0.0,0.0,0.0,0.0,0.0,0.0,-2.3978,-2.4681,-2.518,-2.5715,-2.6506,-2.6626,-2.6782,-2.723,-2.7299,-2.7313,-2.7376,-2.7378,-2.7376,-2.7452,-2.7423,-2.7376,-2.7362,-2.7362,-2.7346,-2.7299,-2.7299,-2.7299,-2.7299,-2.7299,-2.7299,-2.7299,-2.7609,-2.7609,-2.7299,-2.7299,-2.7471,-2.7782,-2.7782,-2.842,-2.9506,-2.9506,-2.9506,-2.9541,-2.9886,-3.0024,-3.0076,-3.0577,-3.0593,-3.0366,-3.0846,-3.0677,-3.0218,-3.0112,-2.9955,-2.9661,-2.8873,-2.8748,-2.8846,-2.8499,-2.8495,-2.8651,-2.8779,-2.8731,-2.8651,-2.8779,-2.8713,-2.8651,-2.8779,-2.8815,-2.8779,-2.8651,-2.8596,-2.8596,-2.8596,-2.8713,-2.8815,-2.8815,-2.8917,-2.9005,-2.9005,-2.9005,-2.9005,-2.9005,-2.9005,-2.9005,-2.9005,-2.9005,-2.9005,-2.9005,-2.9005,-2.9005,-2.9005,-2.9005,-2.9005,-2.9005,-2.9005,-2.9005,-2.9005,-2.9005,-2.9005,-2.9005,-2.9005,-2.9005,-2.9005,-2.9115,-2.9181,0.0,0.0,0.0,0.0,0.0,0.0,0.0,0.0,0.0,0.0,0.0,-2.2989,-2.3477,-2.4219,-2.4997,-2.5757,-2.6033,-2.6359,-2.6964,-2.7224,-2.7376,-2.7438,-2.7392,-2.739,-2.7511,-2.7467,-2.7438,-2.7438,-2.7438,-2.7407,-2.736,-2.7329,-2.733,-2.733,-2.7315,-2.7299,-2.7299,-2.7299,-2.7299,-2.7299,-2.7376,-2.739,-2.7405,-2.7465,-2.8105,-2.9134,-2.9004,-2.8987,-2.9054,-2.9227,-2.9363,-2.9496,-2.993,-2.999,-2.9863,-3.027,-3.0208,-2.9887,-2.9526,-2.9331,-2.9116,-2.8514,-2.8495,-2.8706,-2.8706,-2.8846,-2.9005,-2.9005,-2.9005,-2.9005,-2.9005,-2.9005,-2.9005,-2.9005,-2.9005,-2.9005,-2.9005,-2.9005,-2.9005,-2.9005,-2.9005,-2.9005,-2.9005,-2.9005,-2.9005,-2.9005,-2.9005,-2.9005,-2.9005,-2.9005,-2.9005,-2.9005,-2.9017,-2.9028,-2.9028,-2.9051,-2.9051,-2.9028,-2.9067,-2.91,-2.9078,-2.9138,-2.9181,-2.9181,-2.9192,-2.9149,-2.9078,-2.9127,-2.9149,-2.916,-2.9322,-2.9385,0.0,0.0,0.0,0.0,0.0,0.0,0.0,0.0,0.0,0.0,-2.2889,-2.2924,-2.2946,-2.3589,-2.4388,-2.5136,-2.5831,-2.6298,-2.635,-2.7011,-2.7511,-2.7587,-2.7526,-2.7511,-2.7587,-2.7542,-2.7496,-2.7496,-2.7496,-2.7496,-2.7481,-2.7438,-2.7392,-2.7392,-2.7329,-2.7299,-2.7299,-2.7299,-2.7299,-2.7297,-2.7554,-2.7686,-2.7686,-2.7936,-2.8097,-2.8144,-2.7648,-2.7556,-2.7847,-2.8551,-2.9014,-2.9386,-3.0101,-2.9938,-2.9433,-3.0131,-2.9671,-2.8799,-2.9447,-2.9379,-2.9014,-2.8959,-2.8952,-2.8982,-2.8982,-2.8994,-2.9005,-2.9005,-2.9005,-2.9005,-2.9005,-2.9005,-2.9005,-2.9005,-2.9005,-2.9005,-2.9005,-2.9005,-2.9005,-2.9005,-2.9005,-2.9005,-2.9005,-2.9005,-2.9005,-2.9005,-2.9005,-2.9005,-2.9005,-2.9005,-2.9005,-2.9005,-2.9062,-2.9078,-2.9078,-2.9145,-2.9156,-2.9089,-2.9267,-2.9343,-2.9283,-2.9532,-2.9653,-2.9653,-2.9671,-2.9533,-2.9283,-2.9484,-2.957,-2.957,-2.958,-2.9617,0.0,0.0,0.0,0.0,0.0,0.0,0.0,0.0,0.0,0.0,-2.2952,-2.2982,-2.3033,-2.3196,-2.3585,-2.4367,-2.4715,-2.506,-2.5533,-2.626,-2.6777,-2.6868,-2.7245,-2.7539,-2.7642,-2.76,-2.7572,-2.7572,-2.7572,-2.7542,-2.7496,-2.7483,-2.7467,-2.7467,-2.7452,-2.7511,-2.7686,-2.7644,-2.7701,-2.7886,-2.794,-2.7968,-2.795,-2.8061,-2.8102,-2.8088,-2.7897,-2.7869,-2.7986,-2.8238,-2.8433,-2.858,-2.9062,-2.9089,-2.8899,-2.9331,-2.9234,-2.8894,-2.9156,-2.9143,-2.9005,-2.9005,-2.9005,-2.9005,-2.9005,-2.9005,-2.9005,-2.9005,-2.9005,-2.9005,-2.9005,-2.9005,-2.9017,-2.9044,-2.9055,-2.9085,-2.9112,-2.9078,-2.9055,-2.9055,-2.9055,-2.9085,-2.9112,-2.9062,-2.9017,-2.9062,-2.9055,-2.9055,-2.9055,-2.9089,-2.916,-2.9262,-2.9275,-2.9346,-2.9475,-2.9514,-2.9514,-2.9494,-2.9551,-2.9589,-2.9551,-2.9662,-2.9706,-2.9706,-2.9834,-2.9782,-2.9551,-2.9625,-2.9652,-2.968,-2.9801,-2.9867,0.0,0.0,0.0,0.0,0.0,0.0,0.0,0.0,0.0,0.0,-2.2957,-2.3151,-2.3119,-2.3102,-2.3277,-2.3821,-2.4107,-2.444,-2.4936,-2.5586,-2.603,-2.6107,-2.6504,-2.6816,-2.6914,-2.6874,-2.683,-2.686,-2.686,-2.683,-2.6787,-2.6772,-2.6864,-2.7078,-2.7096,-2.7364,-2.7897,-2.7858,-2.7968,-2.8237,-2.8272,-2.8298,-2.8311,-2.842,-2.8446,-2.8451,-2.8451,-2.8368,-2.8281,-2.8281,-2.8321,-2.8425,-2.8651,-2.8731,-2.8755,-2.8929,-2.9005,-2.9005,-2.9005,-2.9005,-2.9005,-2.9005,-2.9005,-2.9005,-2.9005,-2.9005,-2.9005,-2.9005,-2.9005,-2.9005,-2.9005,-2.9017,-2.9051,-2.913,-2.9123,-2.9163,-2.9189,-2.9156,-2.9123,-2.9123,-2.9123,-2.9163,-2.9189,-2.9141,-2.91,-2.9185,-2.9195,-2.9228,-2.9283,-2.9343,-2.9405,-2.9486,-2.9514,-2.9598,-2.9722,-2.9748,-2.9767,-2.9731,-2.9809,-2.9815,-2.9799,-2.9872,-2.9912,-2.9912,-3.0052,-3.0078,-2.9927,-2.9915,-2.9907,-2.9907,-3.0041,-3.0099,0.0,0.0,0.0,0.0,0.0,0.0,0.0,0.0,0.0,0.0,-2.2856,-2.3382,-2.3163,-2.3342,-2.3526,-2.3526,-2.4099,-2.4575,-2.4575,-2.5039,-2.538,-2.538,-2.5343,-2.5347,-2.5415,-2.5361,-2.5347,-2.5415,-2.5415,-2.5415,-2.5415,-2.5347,-2.561,-2.6272,-2.6324,-2.6819,-2.7872,-2.7908,-2.8061,-2.8337,-2.8591,-2.8712,-2.8724,-2.9052,-2.9156,-2.9089,-2.9108,-2.891,-2.8601,-2.8601,-2.8767,-2.9005,-2.9005,-2.9005,-2.9005,-2.9005,-2.9005,-2.9005,-2.9005,-2.9005,-2.9005,-2.9005,-2.9005,-2.9005,-2.9005,-2.9005,-2.9005,-2.9005,-2.9005,-2.9005,-2.9005,-2.9044,-2.9112,-2.9178,-2.92,-2.92,-2.9211,-2.9211,-2.9211,-2.92,-2.92,-2.9211,-2.9211,-2.9211,-2.9267,-2.9398,-2.9409,-2.9476,-2.9678,-2.9705,-2.9713,-2.9713,-2.9765,-2.9817,-2.9817,-2.9886,-2.9894,-2.9826,-3.0007,-3.0082,-3.0007,-3.0202,-3.031,-3.031,-3.0373,-3.0404,-3.0404,-3.0324,-3.0292,-3.0292,-3.0292,-3.0292,-1.0696,0.0,0.0,0.0,0.0,0.0,0.0,0.0,0.0,0.0,-2.1728,-2.225,-2.3397,-2.3795,-2.3921,-2.3921,-2.3987,-2.4024,-2.4024,-2.4613,-2.5028,-2.5028,-2.5412,-2.573,-2.5894,-2.575,-2.573,0.0,-2.5763,-2.5755,-2.5906,-2.5737,-2.5819,-2.6131,-2.6579,-2.7115,-2.7761,-2.8324,-2.8761,-2.9026,-2.9041,-2.9052,-2.9052,-2.9112,-2.913,-2.9108,-2.9051,-2.8982,-2.8893,-2.8893,-2.8929,-2.9005,-2.9005,-2.9005,-2.9005,-2.9005,-2.9005,-2.9005,-2.9005,-2.9005,-2.9005,-2.9005,-2.9005,-2.9005,-2.9005,-2.904,-2.9067,-2.9067,-2.9119,-2.9134,-2.9134,-2.9156,-2.9178,-2.9251,-2.9262,-2.9296,-2.9464,-2.9484,-2.9444,-2.9304,-2.9343,-2.9426,-2.9474,-2.9523,-2.9579,-2.9678,-2.9687,-2.9705,-2.9775,-2.9817,-2.9883,-2.9981,-3.0003,-3.0073,-3.0215,-3.0254,-3.0254,-3.0241,-3.0299,-3.0311,-3.0286,-3.0329,-3.0373,-3.0373,-3.0398,-3.0404,-3.0404,-3.0386,-3.038,-3.038,-3.038,-3.0361,0.0,0.0,0.0,0.0,0.0,0.0,0.0,-1.7359,0.0,0.0,-2.0971,-2.1724,-2.2608,-2.323,-2.3611,-2.3611,-2.3886,-2.4039,-2.3949,-2.4218,-2.4444,-2.4444,-2.4743,-2.5008,-2.5127,-2.4968,-2.4921,-2.5127,-2.4938,-2.4933,-2.5127,-2.5031,-2.5152,-2.5585,-2.5937,-2.6627,-2.7684,-2.8175,-2.8717,-2.9344,-2.9294,-2.9283,-2.9283,-2.924,-2.9207,-2.9186,-2.9141,-2.9108,-2.9078,-2.9078,-2.9051,-2.9005,-2.9005,-2.9005,-2.9005,-2.9005,-2.9005,-2.9005,-2.9005,-2.9017,-2.9051,-2.9051,-2.9062,-2.9078,-2.9078,-2.91,-2.9134,-2.9134,-2.9167,-2.9218,-2.924,-2.9278,-2.9343,-2.9412,-2.9492,-2.958,-2.9698,-2.9734,-2.9689,-2.957,-2.9617,-2.9688,-2.9725,-2.9758,-2.9826,-2.9904,-2.9939,-2.9962,-3.0049,-3.0078,-3.0147,-3.0228,-3.0235,-3.0267,-3.0398,-3.0404,-3.0404,-3.0404,-3.0404,-3.0404,-3.0404,-3.0404,-3.0404,-3.0404,-3.0404,-3.0404,-3.0404,-3.0404,-3.0404,-3.0404,-3.0404,-3.0404,0.0,-1.3631,0.0,0.0,0.0,0.0,-1.6501,-1.7433,-1.8219,0.0,0.0,-2.1175,-2.1116,-2.1954,-2.2675,-2.2675,-2.3618,-2.43,-2.4155,-2.3989,-2.3878,-2.3878,-2.3847,-2.3847,-2.3868,-2.3696,-2.3653,-2.3858,-2.3718,-2.3685,-2.3827,-2.3837,-2.4145,-2.4824,-2.4929,-2.5776,-2.7471,-2.7563,-2.8123,-2.9118,-2.9211,-2.9248,-2.9248,-2.9359,-2.9355,-2.9302,-2.9302,-2.9251,-2.92,-2.92,-2.9123,-2.9028,-2.9028,-2.9028,-2.9028,-2.9028,-2.9028,-2.9028,-2.9028,-2.9062,-2.91,-2.91,-2.9145,-2.92,-2.92,-2.9218,-2.9229,-2.9243,-2.9246,-2.9278,-2.9339,-2.9464,-2.9561,-2.9616,-2.9777,-2.9902,-2.9918,-2.9926,-2.9934,-2.995,-2.9942,-2.9926,-2.9926,-2.9942,-3.0004,-3.0115,-3.0129,-3.0196,-3.0386,-3.0404,-3.0404,-3.0404,-3.0404,-3.0404,-3.0404,-3.0404,-3.0404,-3.0404,-3.0404,-3.0404,-3.0404,-3.0404,-3.0404,-3.0404,-3.0404,-3.0404,-3.0404,-3.0404,-3.0404,-3.0404,-3.0404,-3.0404,-1.5534,-1.6318,-1.7232,-1.6886,0.0,0.0,-1.6318,-1.6243,-1.6583,0.0,-1.7768,-1.8384,-1.9686,-2.0622,-2.12,-2.12,-2.2481,-2.3685,-2.4336,-2.4393,-2.4367,-2.4367,-2.4182,-2.4126,-2.433,-2.4126,-2.4087,-2.4339,-2.4339,-2.4238,-2.4058,-2.403,-2.4199,-2.457,-2.5045,-2.5561,-2.6079,-2.6728,-2.7165,-2.739,-2.804,-2.8356,-2.8374,-2.9029,-2.9312,-2.9302,-2.924,-2.92,-2.92,-2.92,-2.9178,-2.9156,-2.9156,-2.9156,-2.9156,-2.9156,-2.9156,-2.9156,-2.9156,-2.9167,-2.9178,-2.9178,-2.9189,-2.92,-2.92,-2.924,-2.9315,-2.9483,-2.9644,-2.9769,-2.9777,-2.9803,-2.9836,-2.9845,-2.9869,-2.9934,-3.0037,-3.0066,-3.0102,-3.0273,-3.0162,-3.0066,-3.0066,-3.0202,-3.0318,-3.0343,-3.0349,-3.0355,-3.0379,-3.0404,-3.0404,-3.0404,-3.0404,-3.0404,-3.0404,-3.0404,-3.0404,-3.0404,-3.0404,-3.0404,-3.0404,-3.0404,-3.0404,-3.0404,-3.0404,-3.0404,-3.0404,-3.0404,-3.0404,-3.0404,-3.0404,-3.0404,-1.7343,-1.769,-1.8321,-1.8339,0.0,0.0,0.0,-1.7096,-1.7337,-1.8172,-1.8005,-1.8098,0.0,0.0,-2.0196,-2.0196,-2.1551,-2.2739,-2.3182,-2.3971,-2.45,-2.45,-2.4375,-2.4348,-2.4491,-2.4257,-2.4154,-2.4284,-2.442,-2.4437,-2.4312,-2.4312,-2.4357,-2.45,-2.4792,-2.5199,-2.5708,-2.6098,-2.6498,-2.6907,-2.7315,-2.7706,-2.8096,-2.8103,-2.8557,-2.9318,-2.8841,-2.8905,-2.9294,-2.9294,-2.9294,-2.9294,-2.924,-2.92,-2.92,-2.92,-2.92,-2.92,-2.92,-2.9267,-2.9345,-2.9345,-2.9435,-2.9542,-2.9542,-2.958,-2.9617,-2.9725,-2.9828,-2.9902,-2.9902,-2.9958,-3.0,-3.0,-3.0078,-3.0168,-3.0235,-3.0248,-3.0286,-3.0373,-3.0311,-3.0248,-3.0248,-3.0323,-3.0404,-3.0404,-3.0404,-3.0404,-3.0404,-3.0404,-3.0404,-3.0404,-3.0404,-3.0404,-3.0404,-3.0404,-3.0404,-3.0404,-3.0404,-3.0404,-3.0404,-3.0404,-3.0404,-3.0404,-3.0404,-3.0414,-3.0455,-3.0455,-3.0428,-3.0404,-3.0428,-3.0455,0.0,0.0,0.0,0.0,0.0,-1.9129,0.0,0.0,0.0,-1.9045,0.0,0.0,0.0,0.0,0.0,0.0,0.0,0.0,0.0,-2.2736,0.0,-2.3989,-2.4156,-2.4249,-2.4249,-2.3915,-2.3833,-2.4155,-2.4088,-2.4165,-2.4481,-2.45,-2.45,-2.45,-2.45,-2.4816,-2.5466,-2.5466,-2.5801,-2.6442,-2.6591,-2.6999,-2.7613,-2.713,-2.7631,-2.8876,-2.817,-2.8283,-2.8964,-2.9142,-2.9124,-2.9004,-2.9209,-2.9267,-2.9278,-2.932,-2.9322,-2.9322,-2.9322,-2.9445,-2.9579,-2.9579,-2.9713,-2.9902,-2.9902,-2.9918,-2.9942,-2.9942,-2.9965,-2.9988,-2.9988,-3.0085,-3.0169,-3.0169,-3.0273,-3.0404,-3.0404,-3.0404,-3.0404,-3.0404,-3.0404,-3.0404,-3.0404,-3.0404,-3.0404,-3.0404,-3.0404,-3.0404,-3.0404,-3.0404,-3.0404,-3.0404,-3.0404,-3.0404,-3.0404,-3.0408,-3.0419,-3.0419,-3.0422,-3.0433,-3.0433,-3.0433,-3.0433,-3.0433,-3.0433,-3.0462,-3.0528,-3.0528,-3.0487,-3.0439,-3.0492,-3.0528,0.0,0.0,0.0,0.0,-2.1884,0.0,0.0,0.0,-1.9063,-1.7671,0.0,0.0,0.0,0.0,0.0,0.0,0.0,0.0,-1.884,-2.0158,-2.1484,-2.2208,-2.2906,-2.3351,-2.3351,-2.2685,-2.2844,-2.4335,-2.311,-2.294,-2.4425,-2.45,-2.45,-2.45,-2.45,-2.4537,-2.4648,-2.4648,-2.4685,-2.4778,-2.5503,-2.5875,-2.5977,-2.6609,-2.6999,-2.7185,-2.7074,-2.7158,-2.7425,-2.8183,-2.8139,-2.7665,-2.9035,-2.9551,-2.958,-2.9741,-2.982,-2.982,-2.982,-2.9836,-2.9842,-2.9842,-2.9878,-2.9902,-2.9902,-2.9977,-3.008,-3.008,-3.0215,-3.0343,-3.0343,-3.0355,-3.0361,-3.0361,-3.0373,-3.0404,-3.0404,-3.0404,-3.0404,-3.0404,-3.0404,-3.0404,-3.0404,-3.0404,-3.0404,-3.0404,-3.0404,-3.0404,-3.0404,-3.0404,-3.0404,-3.0404,-3.0404,-3.0404,-3.0404,-3.0446,-3.0482,-3.0482,-3.0543,-3.0587,-3.0587,-3.0587,-3.0587,-3.0587,-3.0587,-3.0571,-3.0582,-3.0582,-3.0575,-3.0587,-3.0598,-3.0582,0.0,0.0,0.0,0.0,0.0,0.0,-2.0277,0.0,-1.9695,0.0,0.0,0.0,0.0,0.0,0.0,0.0,-1.7746,0.0,0.0,0.0,-1.9137,0.0,0.0,0.0,-2.246,-2.22,-2.2301,-2.2996,-2.2394,-2.2505,-2.3683,-2.4231,-2.45,-2.45,-2.45,-2.45,-2.45,-2.45,-2.45,-2.45,-2.4834,-2.5296,-2.5811,-2.568,-2.618,-2.7109,-2.6647,-2.6736,-2.7237,-2.7611,-2.7568,-2.7377,-2.8135,-2.838,-2.828,-2.8361,-2.8714,-2.9147,-2.9147,-2.9532,-3.003,-3.0154,-3.0181,-3.0181,-3.0181,-3.0221,-3.0267,-3.0267,-3.0323,-3.0404,-3.0404,-3.0404,-3.0404,-3.0404,-3.0404,-3.0404,-3.0404,-3.0422,-3.0451,-3.0451,-3.0482,-3.0524,-3.0524,-3.046,-3.0408,-3.0441,-3.0451,-3.0472,-3.0515,-3.0524,-3.0524,-3.0524,-3.0524,-3.0524,-3.0524,-3.0539,-3.0564,-3.0564,-3.0575,-3.0593,-3.0593,-3.0593,-3.0593,-3.0593,-3.0593,-3.0617,-3.0656,-3.0656,-3.0672,-3.0717,-3.0689,-3.0656,-2.3457,0.0,0.0,0.0,0.0,0.0,0.0,0.0,0.0,0.0,0.0,0.0,0.0,0.0,0.0,0.0,0.0,-1.7267,0.0,0.0,0.0,0.0,0.0,0.0,0.0,-2.0938,-2.0938,-2.1625,-2.1254,-2.1625,-2.3128,-2.3795,-2.4249,-2.4481,-2.45,-2.45,-2.45,-2.45,-2.4525,-2.4549,-2.4549,-2.493,-2.5607,-2.5013,-2.545,-2.6616,-2.6017,-2.6115,-2.6712,-2.6958,-2.6923,-2.6794,-2.7179,-2.7096,-2.6844,-2.7535,-2.8196,-2.8774,-2.9003,-2.9577,-3.0202,-3.0355,-3.0404,-3.0404,-3.0404,-3.0404,-3.0404,-3.0404,-3.0404,-3.0404,-3.0404,-3.0404,-3.0404,-3.0404,-3.0408,-3.0436,-3.0436,-3.0487,-3.0522,-3.0531,-3.0564,-3.0603,-3.0607,-3.0522,-3.0462,-3.0509,-3.0527,-3.0532,-3.059,-3.0593,-3.0593,-3.0593,-3.0593,-3.0593,-3.0593,-3.0614,-3.0633,-3.0647,-3.065,-3.065,-3.065,-3.065,-3.065,-3.065,-3.065,-3.0672,-3.0728,-3.0728,-3.0741,-3.08,-3.0758,-3.0728,0.0,0.0,0.0,-2.3024,0.0,0.0,0.0,0.0,-2.0933,0.0,0.0,0.0,0.0,0.0,-2.0522,-1.8836,0.0,0.0,0.0,0.0,0.0,0.0,0.0,0.0,0.0,-1.8209,-1.8247,0.0,-1.9342,-1.9824,-2.3036,-2.324,-2.3619,-2.4462,-2.45,-2.45,-2.45,-2.45,-2.4566,-2.4692,-2.4692,-2.4783,-2.4933,-2.4914,-2.4914,-2.4977,-2.4959,-2.5019,-2.5237,-2.6071,-2.6002,-2.5447,-2.6303,-2.611,-2.5658,-2.8129,-2.9058,-2.9212,-3.0046,-3.0354,-3.0398,-3.0404,-3.0404,-3.0404,-3.0404,-3.0404,-3.0404,-3.0404,-3.0404,-3.0404,-3.0404,-3.0404,-3.0404,-3.0404,-3.0455,-3.0496,-3.0496,-3.0552,-3.0597,-3.0597,-3.0604,-3.0607,-3.06,-3.0607,-3.0591,-3.0593,-3.0607,-3.0594,-3.0597,-3.0593,-3.0593,-3.0593,-3.0593,-3.0593,-3.0593,-3.0656,-3.0726,-3.0796,-3.0798,-3.0798,-3.0798,-3.0798,-3.0798,-3.0798,-3.0798,-3.0799,-3.0799,-3.0799,-3.08,-3.08,-3.08,-3.0799,-2.5361,-2.5322,-2.5034,-2.3876,0.0,0.0,0.0,0.0,0.0,0.0,0.0,0.0,0.0,0.0,-2.0842,-1.9769,-1.8612,0.0,0.0,0.0,0.0,0.0,0.0,0.0,0.0,0.0,0.0,-1.9045,-1.9156,-2.0103,-2.2293,-2.3461,-2.4194,-2.4481,-2.45,-2.4532,-2.4621,-2.4621,-2.4707,-2.4825,-2.4825,-2.4908,-2.5024,-2.5024,-2.5086,-2.516,-2.516,-2.5182,-2.5257,-2.554,-2.5522,-2.5327,-2.5615,-2.5558,-2.5404,-2.6269,-2.6948,-2.764,-2.9044,-2.9929,-3.0404,-3.0404,-3.0,-2.964,-3.0231,-3.0,-2.966,-3.0231,-3.0422,-3.0467,-3.0467,-3.0496,-3.0527,-3.0527,-3.0544,-3.0575,-3.0575,-3.0622,-3.0667,-3.0662,-3.0732,-3.0791,-3.0807,-3.0792,-3.0767,-3.0682,-3.0677,-3.0691,-3.0794,-3.0798,-3.0801,-3.0807,-3.0807,-3.0807,-3.0807,-3.0817,-3.0845,-3.0851,-3.0871,-3.0871,-3.0871,-3.0871,-3.0871,-3.0871,-3.0871,-3.0871,-3.0871,-3.0871,-3.0871,-3.0871,-3.0871,-3.0848,-2.5416,-2.5374,-2.5144,-2.4306,-2.369,0.0,-2.1805,0.0,-2.1692,0.0,0.0,0.0,0.0,0.0,-2.1775,-2.0354,-1.8924,-1.747,0.0,-1.5249,0.0,0.0,0.0,0.0,0.0,0.0,-1.6502,-1.8172,-1.8284,0.0,0.0,-2.3079,-2.3958,-2.4547,-2.4613,-2.4673,-2.4772,-2.4772,-2.4832,-2.4962,-2.4962,-2.5031,-2.5171,-2.5171,-2.5228,-2.5308,-2.5308,-2.5308,-2.5308,-2.5308,-2.5308,-2.5308,-2.5327,-2.534,-2.5374,-2.5669,-2.6308,-2.7217,-2.8299,-2.9072,-2.9555,-2.9555,-2.9182,-2.8903,-2.9747,-2.9617,-2.9352,-3.0236,-3.0495,-3.0548,-3.0532,-3.0575,-3.0594,-3.0594,-3.0622,-3.0645,-3.0645,-3.071,-3.0776,-3.0773,-3.0848,-3.0895,-3.0894,-3.0897,-3.0875,-3.0774,-3.077,-3.0798,-3.0889,-3.089,-3.0892,-3.0894,-3.0894,-3.0894,-3.0894,-3.0894,-3.0894,-3.0894,-3.0894,-3.0894,-3.0894,-3.0894,-3.0894,-3.0894,-3.0894,-3.0894,-3.0894,-3.0894,-3.0894,-3.0894,-3.0894,-3.0872]},{"header":{"parameterUnit":"m.s-1","parameterCategory":1,"la1":30.6,"la2":29.2853,"lo1":-89.7004,"lo2":-87.6739,"dy":0.0162,"dx":0.0183,"nx":112,"ny":82,"refTime":"2024-07-19T18:00:00:Z","depth":0,"parameterNumber":3,"parameterNumberName":"V-component_of_WINDS"},"data":[0.0,0.0,0.0,0.0,0.0,0.0,0.0,0.0,0.0,0.0,0.0,0.0,0.0,0.0,0.0,0.0,0.0,0.0,0.0,0.0,0.0,0.0,0.0,0.0,0.0,0.0,0.0,0.0,0.0,0.0,0.0,0.0,0.0,0.0,0.0,0.0,0.0,0.0,0.0,0.0,0.0,0.0,0.0,0.0,0.0,0.0,0.0,0.0,0.0,0.0,0.0,0.0,0.0,0.0,0.0,0.0,0.0,0.0,0.0,0.0,0.0,0.0,0.0,0.0,0.0,0.0,0.0,0.0,0.0,0.0,0.0,0.0,0.0,0.0,0.0,0.0,0.0,0.0,0.0,0.0,0.0,0.0,0.0,0.0,0.0,0.0,0.0,0.0,0.0,0.0,0.0,-1.5566,-1.7976,-1.9763,-2.0525,-1.9527,-1.7996,-1.594,0.0,0.0,0.0,0.0,0.0,0.0,0.0,0.0,0.0,0.0,0.0,0.0,0.0,0.0,0.0,0.0,0.0,0.0,0.0,0.0,0.0,0.0,0.0,0.0,0.0,0.0,0.0,0.0,0.0,0.0,0.0,0.0,0.0,0.0,0.0,0.0,0.0,0.0,0.0,0.0,0.0,0.0,0.0,0.0,0.0,0.0,0.0,0.0,0.0,0.0,0.0,0.0,0.0,0.0,0.0,0.0,0.0,0.0,0.0,0.0,0.0,0.0,0.0,0.0,0.0,0.0,0.0,0.0,0.0,0.0,0.0,0.0,0.0,0.0,0.0,0.0,0.0,0.0,0.0,0.0,0.0,0.0,0.0,0.0,0.0,0.0,0.0,0.0,0.0,0.0,0.0,0.0,0.0,0.0,0.0,0.0,0.0,0.0,0.0,0.0,0.0,0.0,0.0,0.0,-1.5239,-1.9141,-1.9912,-2.0489,-2.1342,-2.0314,-1.8542,-1.5959,0.0,0.0,0.0,0.0,0.0,0.0,0.0,0.0,0.0,0.0,0.0,0.0,0.0,0.0,0.0,0.0,0.0,0.0,0.0,0.0,0.0,0.0,0.0,0.0,0.0,0.0,0.0,0.0,0.0,0.0,0.0,0.0,0.0,0.0,0.0,0.0,0.0,0.0,0.0,0.0,0.0,0.0,0.0,0.0,0.0,0.0,0.0,0.0,0.0,0.0,0.0,0.0,0.0,0.0,0.0,0.0,0.0,0.0,0.0,0.0,0.0,0.0,0.0,0.0,0.0,0.0,0.0,0.0,0.0,0.0,0.0,0.0,0.0,0.0,0.0,0.0,0.0,0.0,0.0,0.0,0.0,0.0,0.0,0.0,0.0,0.0,0.0,0.0,0.0,0.0,0.0,0.0,0.0,0.0,0.0,0.0,0.0,0.0,0.0,0.0,0.0,0.0,0.0,-1.386,-1.5967,-1.997,-2.0371,-2.084,-2.2095,-2.0917,-1.9063,-1.6618,-1.4395,0.0,0.0,0.0,0.0,0.0,0.0,0.0,0.0,0.0,0.0,0.0,0.0,0.0,0.0,0.0,0.0,0.0,0.0,0.0,0.0,0.0,0.0,0.0,0.0,0.0,0.0,0.0,0.0,0.0,0.0,0.0,0.0,0.0,0.0,0.0,0.0,0.0,0.0,0.0,0.0,0.0,0.0,0.0,0.0,0.0,0.0,0.0,0.0,0.0,0.0,0.0,0.0,0.0,0.0,0.0,0.0,0.0,0.0,0.0,0.0,0.0,0.0,0.0,0.0,0.0,0.0,0.0,0.0,0.0,0.0,0.0,0.0,0.0,0.0,0.0,0.0,0.0,0.0,0.0,0.0,0.0,0.0,0.0,0.0,0.0,0.0,0.0,0.0,0.0,0.0,0.0,0.0,0.0,0.0,0.0,0.0,0.0,0.0,0.0,0.0,0.0,0.0,-1.5027,-1.6514,-2.0039,-2.0394,-2.0946,-2.2319,-2.0864,-1.8908,-1.6632,-1.428,0.0,0.0,0.0,0.0,0.0,0.0,0.0,0.0,0.0,0.0,0.0,0.0,0.0,0.0,0.0,0.0,0.0,0.0,0.0,0.0,0.0,0.0,0.0,0.0,0.0,0.0,0.0,0.0,0.0,0.0,0.0,0.0,0.0,0.0,0.0,0.0,0.0,0.0,0.0,0.0,0.0,0.0,0.0,0.0,0.0,0.0,0.0,0.0,0.0,0.0,0.0,0.0,0.0,0.0,0.0,0.0,0.0,0.0,0.0,0.0,0.0,0.0,0.0,0.0,0.0,0.0,0.0,0.0,0.0,0.0,0.0,0.0,0.0,0.0,0.0,0.0,0.0,0.0,0.0,0.0,0.0,0.0,0.0,0.0,0.0,0.0,0.0,0.0,0.0,0.0,0.0,0.0,0.0,0.0,0.0,0.0,0.0,0.0,0.0,0.0,0.0,0.0,-1.5159,-1.7151,-2.009,-2.0394,-2.0751,-2.1595,-1.9648,-1.7383,-1.5098,-1.2818,0.0,0.0,0.0,0.0,0.0,0.0,0.0,0.0,0.0,0.0,0.0,0.0,0.0,0.0,0.0,0.0,0.0,0.0,0.0,0.0,0.0,0.0,0.0,0.0,0.0,0.0,0.0,0.0,0.0,0.0,0.0,0.0,0.0,0.0,0.0,0.0,0.0,0.0,0.0,0.0,0.0,0.0,0.0,0.0,0.0,0.0,0.0,0.0,0.0,0.0,0.0,0.0,0.0,0.0,0.0,0.0,0.0,0.0,0.0,0.0,0.0,0.0,0.0,0.0,0.0,0.0,0.0,0.0,0.0,0.0,0.0,0.0,0.0,0.0,0.0,0.0,0.0,0.0,0.0,0.0,0.0,0.0,0.0,0.0,0.0,0.0,0.0,0.0,0.0,0.0,0.0,0.0,0.0,0.0,0.0,0.0,0.0,0.0,0.0,0.0,0.0,0.0,-1.4748,-1.6645,0.0,-2.0394,-2.0734,-2.1527,-2.0271,-1.8115,-1.5012,0.0,0.0,0.0,0.0,0.0,0.0,0.0,0.0,0.0,0.0,0.0,0.0,0.0,0.0,0.0,0.0,0.0,0.0,0.0,0.0,0.0,0.0,0.0,0.0,0.0,0.0,0.0,0.0,0.0,0.0,0.0,0.0,0.0,0.0,0.0,0.0,0.0,0.0,0.0,0.0,0.0,0.0,0.0,0.0,0.0,0.0,0.0,0.0,0.0,0.0,0.0,0.0,0.0,0.0,0.0,0.0,0.0,0.0,0.0,0.0,0.0,0.0,0.0,0.0,0.0,0.0,0.0,0.0,0.0,0.0,0.0,0.0,0.0,0.0,0.0,0.0,0.0,0.0,0.0,0.0,0.0,0.0,0.0,0.0,0.0,0.0,0.0,0.0,0.0,0.0,0.0,0.0,0.0,0.0,0.0,0.0,0.0,0.0,0.0,0.0,0.0,0.0,-1.3697,-1.4941,-1.6888,0.0,-2.0394,-2.0606,-2.112,-1.9908,-1.7755,-1.4538,0.0,0.0,0.0,0.0,0.0,0.0,0.0,0.0,0.0,0.0,0.0,0.0,0.0,0.0,0.0,0.0,0.0,0.0,0.0,0.0,0.0,0.0,0.0,0.0,0.0,0.0,0.0,0.0,0.0,0.0,0.0,0.0,0.0,0.0,0.0,0.0,0.0,0.0,0.0,0.0,0.0,0.0,0.0,0.0,0.0,0.0,0.0,0.0,0.0,0.0,0.0,0.0,0.0,0.0,0.0,0.0,0.0,0.0,0.0,0.0,0.0,0.0,0.0,0.0,0.0,0.0,0.0,0.0,0.0,0.0,0.0,0.0,0.0,0.0,0.0,0.0,0.0,0.0,0.0,0.0,0.0,0.0,0.0,0.0,0.0,0.0,0.0,0.0,0.0,0.0,0.0,0.0,0.0,0.0,0.0,0.0,0.0,0.0,0.0,0.0,0.0,0.0,-1.3821,-1.5896,-1.8091,-2.0177,-2.0394,-2.0347,-2.0206,-1.8114,-1.5802,0.0,0.0,0.0,0.0,0.0,0.0,0.0,0.0,0.0,0.0,0.0,0.0,0.0,0.0,0.0,0.0,0.0,0.0,0.0,0.0,0.0,0.0,0.0,0.0,0.0,0.0,0.0,0.0,0.0,0.0,0.0,0.0,0.0,0.0,0.0,0.0,0.0,0.0,0.0,0.0,0.0,0.0,0.0,0.0,0.0,0.0,0.0,0.0,0.0,0.0,0.0,0.0,0.0,0.0,0.0,0.0,0.0,0.0,0.0,0.0,0.0,0.0,0.0,0.0,0.0,0.0,0.0,0.0,0.0,0.0,0.0,0.0,0.0,0.0,0.0,0.0,0.0,0.0,0.0,0.0,0.0,0.0,0.0,0.0,0.0,0.0,0.0,0.0,0.0,0.0,0.0,0.0,0.0,0.0,0.0,0.0,0.0,0.0,0.0,0.0,0.0,0.0,0.0,-1.3807,-1.5775,-1.7931,-2.0165,-1.9929,-1.9768,-2.0167,-1.8402,-1.6152,-1.3464,0.0,0.0,0.0,0.0,0.0,0.0,0.0,0.0,0.0,0.0,0.0,0.0,0.0,0.0,0.0,0.0,0.0,0.0,0.0,0.0,0.0,0.0,0.0,0.0,0.0,0.0,0.0,0.0,0.0,0.0,0.0,0.0,0.0,0.0,0.0,0.0,0.0,0.0,0.0,0.0,0.0,0.0,0.0,0.0,0.0,0.0,0.0,0.0,0.0,0.0,0.0,0.0,0.0,0.0,0.0,0.0,0.0,0.0,0.0,0.0,0.0,0.0,0.0,0.0,0.0,0.0,0.0,0.0,0.0,0.0,0.0,0.0,0.0,0.0,0.0,0.0,0.0,0.0,0.0,0.0,0.0,0.0,0.0,0.0,0.0,0.0,0.0,0.0,0.0,0.0,0.0,0.0,0.0,0.0,0.0,0.0,0.0,0.0,0.0,0.0,0.0,0.0,-1.3846,-1.5983,-1.8224,-2.0188,-1.974,-1.9521,-2.0039,-1.855,-1.6414,-1.3661,0.0,0.0,0.0,0.0,0.0,0.0,0.0,0.0,0.0,0.0,0.0,0.0,0.0,0.0,0.0,0.0,0.0,0.0,0.0,0.0,0.0,0.0,0.0,0.0,0.0,0.0,0.0,0.0,0.0,0.0,0.0,0.0,0.0,0.0,0.0,0.0,0.0,0.0,0.0,0.0,0.0,0.0,0.0,0.0,0.0,0.0,0.0,0.0,0.0,0.0,0.0,0.0,0.0,0.0,0.0,0.0,0.0,0.0,0.0,0.0,0.0,0.0,0.0,0.0,0.0,0.0,0.0,0.0,0.0,0.0,0.0,0.0,0.0,0.0,0.0,0.0,0.0,0.0,0.0,0.0,0.0,0.0,0.0,0.0,0.0,0.0,0.0,0.0,0.0,0.0,0.0,0.0,0.0,0.0,0.0,0.0,0.0,0.0,0.0,0.0,0.0,0.0,-1.3877,-1.647,-1.8838,-2.0257,-1.978,-1.952,-1.9862,-1.8507,-1.6542,-1.3956,0.0,0.0,0.0,0.0,0.0,0.0,0.0,0.0,0.0,0.0,0.0,0.0,0.0,0.0,0.0,0.0,0.0,0.0,0.0,0.0,0.0,0.0,0.0,0.0,0.0,0.0,0.0,0.0,0.0,0.0,0.0,0.0,0.0,0.0,0.0,0.0,0.0,0.0,0.0,0.0,0.0,0.0,0.0,0.0,0.0,0.0,0.0,0.0,0.0,0.0,0.0,0.0,0.0,0.0,0.0,0.0,0.0,0.0,0.0,0.0,-1.0533,0.0,0.0,0.0,0.0,0.0,0.0,0.0,0.0,0.0,0.0,0.0,0.0,0.0,0.0,0.0,0.0,0.0,0.0,0.0,0.0,0.0,0.0,0.0,0.0,0.0,0.0,0.0,0.0,0.0,0.0,0.0,0.0,0.0,0.0,0.0,0.0,0.0,0.0,0.0,0.0,0.0,-1.3838,-1.6891,-1.9407,-2.0308,-2.0125,-1.9932,-1.9895,-1.8223,-1.6198,-1.3935,-1.2363,0.0,0.0,0.0,0.0,0.0,0.0,0.0,0.0,0.0,0.0,0.0,0.0,0.0,0.0,0.0,0.0,0.0,0.0,0.0,0.0,0.0,0.0,0.0,0.0,0.0,0.0,0.0,0.0,0.0,0.0,0.0,0.0,0.0,0.0,0.0,0.0,0.0,0.0,0.0,0.0,0.0,0.0,0.0,0.0,0.0,0.0,0.0,0.0,0.0,0.0,0.0,0.0,0.0,0.0,0.0,0.0,0.0,0.0,0.0,0.0,-1.1496,0.0,0.0,0.0,0.0,0.0,0.0,0.0,0.0,0.0,0.0,0.0,0.0,0.0,0.0,0.0,0.0,0.0,0.0,0.0,0.0,0.0,0.0,0.0,0.0,0.0,0.0,0.0,0.0,0.0,0.0,0.0,0.0,0.0,0.0,0.0,0.0,0.0,0.0,0.0,0.0,-1.4747,-1.7366,-1.9572,-2.0673,-2.0364,-1.9985,-1.973,-1.846,-1.684,-1.4879,-1.3349,0.0,0.0,0.0,0.0,0.0,0.0,0.0,0.0,0.0,0.0,0.0,0.0,0.0,0.0,0.0,0.0,0.0,0.0,0.0,0.0,0.0,0.0,0.0,0.0,0.0,0.0,0.0,0.0,0.0,0.0,0.0,0.0,0.0,0.0,0.0,0.0,0.0,0.0,0.0,0.0,0.0,0.0,0.0,0.0,0.0,0.0,0.0,0.0,0.0,0.0,0.0,0.0,0.0,-1.4363,-1.4687,-1.5231,-1.5231,-1.5471,-1.5809,-1.4201,-1.3648,-1.3789,-1.2475,0.0,0.0,0.0,0.0,0.0,0.0,0.0,0.0,0.0,0.0,0.0,0.0,0.0,0.0,0.0,0.0,0.0,0.0,0.0,0.0,0.0,0.0,0.0,0.0,-1.6696,-1.6615,-1.4126,0.0,0.0,0.0,0.0,0.0,0.0,0.0,0.0,0.0,0.0,0.0,-1.5867,-1.7971,-1.9789,-2.1014,-2.0699,-2.0193,-1.9726,-1.8933,-1.7759,-1.6096,-1.461,-1.3442,0.0,0.0,0.0,0.0,0.0,0.0,0.0,0.0,0.0,0.0,0.0,0.0,0.0,0.0,0.0,0.0,0.0,0.0,0.0,0.0,0.0,0.0,0.0,0.0,0.0,0.0,0.0,0.0,0.0,0.0,0.0,0.0,-0.8731,-0.9469,0.0,0.0,0.0,0.0,0.0,0.0,0.0,0.0,0.0,0.0,0.0,0.0,0.0,-1.3982,-1.5288,-1.5704,-1.6273,-1.6988,-1.74,-1.7652,-1.773,-1.773,-1.7761,-1.7807,-1.7319,0.0,-1.5727,-1.4261,0.0,0.0,0.0,0.0,0.0,0.0,0.0,0.0,0.0,0.0,0.0,0.0,0.0,0.0,0.0,0.0,0.0,0.0,0.0,0.0,0.0,0.0,-1.8839,-1.8112,-1.8639,-1.8989,0.0,-1.6035,-1.4585,-1.4281,-1.3146,0.0,0.0,0.0,0.0,0.0,0.0,0.0,-1.6261,-1.8863,-2.072,-2.0921,-2.1271,-2.1207,-2.0506,-1.9404,-1.8179,-1.6834,-1.5116,-1.3876,-1.3313,-1.1833,0.0,0.0,0.0,0.0,0.0,0.0,0.0,0.0,0.0,0.0,0.0,0.0,0.0,0.0,0.0,0.0,0.0,0.0,0.0,0.0,0.0,0.0,0.0,0.0,0.0,0.0,0.0,0.0,0.0,-0.8538,-0.9729,-1.042,-1.0582,-1.0652,0.0,0.0,0.0,0.0,0.0,0.0,0.0,0.0,0.0,-1.5185,-1.5608,-1.6239,-1.7096,-1.7308,-1.7774,-1.8501,-1.8733,-1.9008,-1.9377,-1.9377,-1.9377,-1.9377,-1.9261,-1.8941,-1.8346,-1.6187,-1.5451,-1.556,0.0,0.0,0.0,0.0,-1.5373,-1.5888,-1.6757,-1.6797,-1.6443,-1.6354,0.0,0.0,0.0,0.0,0.0,0.0,0.0,-1.6696,0.0,0.0,-1.9503,-1.9442,-2.0139,-2.0709,-2.0296,-1.9079,-1.758,0.0,-1.5506,-1.4865,-1.3184,0.0,0.0,0.0,0.0,-1.6487,-1.8052,-1.9711,-2.0882,-2.1313,-2.1556,-2.1353,-2.05,-1.9847,-1.9059,-1.8093,-1.6404,-1.5332,-1.5096,-1.3432,-1.2126,0.0,0.0,0.0,0.0,0.0,0.0,0.0,0.0,0.0,0.0,0.0,0.0,0.0,0.0,0.0,0.0,0.0,0.0,0.0,0.0,0.0,0.0,0.0,0.0,0.0,0.0,0.0,0.0,-0.9679,-1.0534,-1.1019,-1.14,-1.1597,0.0,0.0,0.0,0.0,0.0,0.0,-1.4579,-1.5126,-1.595,-1.7117,-1.7674,-1.8221,-1.873,-1.8745,-1.9008,-1.9549,-1.9549,-1.9811,-2.0304,-2.0202,-2.0168,-2.0168,-2.0113,-2.0078,-1.9906,-1.7827,-1.7127,-1.7242,-1.5992,-1.6081,-1.6972,-1.7167,-1.7468,-1.7963,-1.916,-1.9205,-1.8684,-1.8342,-1.8039,-1.7584,-1.6581,0.0,0.0,0.0,0.0,-1.7638,-1.8764,-1.9472,-1.9998,-2.0449,-2.109,-2.1603,-2.1603,-2.122,-2.0193,0.0,-1.7652,-1.7177,-1.4971,0.0,0.0,0.0,0.0,-1.7654,-1.9601,-2.0395,-2.0996,-2.1538,-2.1603,-2.1314,-2.0628,-2.0188,-1.9699,-1.9113,-1.7482,-1.6538,-1.655,-1.4758,-1.3363,-1.2492,0.0,0.0,0.0,0.0,0.0,0.0,0.0,0.0,0.0,0.0,0.0,0.0,0.0,0.0,0.0,0.0,0.0,0.0,0.0,0.0,0.0,0.0,0.0,0.0,0.0,0.0,0.0,0.0,0.0,-1.1566,-1.2755,0.0,0.0,0.0,0.0,-1.46,-1.5206,-1.6095,-1.7324,-1.7363,-1.7922,-1.9118,-1.9195,-1.9534,-2.0196,-2.0196,-2.021,-2.0258,-2.0258,-2.0273,-2.0287,-1.9962,-1.9823,-1.9806,-1.9563,-1.945,-1.9409,-1.8961,-1.8931,-1.9085,-1.8236,-1.8007,-1.813,-1.8345,-1.8827,-1.9421,-1.9688,-1.9842,-2.0045,-2.0842,-2.0295,-1.928,-1.9214,-1.8834,0.0,0.0,-1.975,-2.0424,-2.0999,-2.1179,-2.1212,-2.1245,-2.1293,-2.1309,-2.1309,-2.1494,-2.1396,0.0,-1.9138,-1.8068,-1.8038,0.0,-1.7371,-1.7998,-1.8739,-1.9486,-2.0187,-2.0855,-2.1276,-2.1309,-2.1309,-2.1309,-2.1245,-2.0352,-1.9736,-1.9578,-1.7869,-1.6894,-1.6969,-1.5353,-1.4241,-1.3818,-1.2392,0.0,0.0,0.0,0.0,0.0,0.0,0.0,0.0,0.0,0.0,0.0,0.0,0.0,0.0,0.0,0.0,0.0,0.0,0.0,0.0,0.0,0.0,0.0,0.0,0.0,0.0,0.0,0.0,-1.4181,-1.5061,0.0,-1.5261,-1.5807,-1.6275,-1.6522,-1.7027,-1.7723,-1.8641,-1.8672,-1.9059,-1.9919,-1.9934,-2.0058,-2.0304,-2.0083,-1.998,-1.9977,-2.0204,-2.0288,-2.0303,-2.0589,-2.069,-2.069,-2.0588,-2.0563,-2.0548,-2.0429,-1.9983,-1.9313,-1.8797,-1.8867,-1.9265,-1.9597,-1.9983,-2.0382,-2.0671,-2.0797,-2.0891,-2.1197,-2.0984,-2.0623,-2.0623,-2.0489,-2.0386,-2.0573,-2.0802,-2.1062,-2.1244,-2.1293,-2.1293,-2.1293,-2.1293,-2.1293,-2.1293,-2.1388,-2.1368,-2.1108,-2.071,-2.0129,-1.9165,-1.9132,-1.9186,-1.9037,-1.9572,-2.0218,-2.0872,-2.1147,-2.1293,-2.1293,-2.1023,-2.0845,-2.0845,-2.0161,-1.9533,-1.9058,-1.7883,-1.7066,-1.6696,-1.5772,-1.4899,-1.4113,-1.3283,-1.1869,0.0,0.0,0.0,0.0,0.0,0.0,0.0,0.0,0.0,0.0,0.0,0.0,0.0,0.0,0.0,0.0,0.0,0.0,0.0,0.0,0.0,0.0,0.0,0.0,0.0,0.0,-1.4566,-1.5885,-1.6683,-1.7087,-1.6946,-1.7696,-1.8171,-1.811,-1.8609,-1.9115,-1.961,-1.9641,-1.9899,-2.0436,-2.0573,-2.0627,-2.0591,-2.0518,-2.0411,-2.0281,-2.0503,-2.0612,-2.0607,-2.0912,-2.1076,-2.1076,-2.1076,-2.1076,-2.1076,-2.1076,-2.064,-1.999,-1.9764,-1.9922,-2.0303,-2.0576,-2.0793,-2.1007,-2.1475,-2.1759,-2.1923,-2.2005,-2.2037,-2.2037,-2.2037,-2.2037,-2.2037,-2.2037,-2.1859,-2.1665,-2.1665,-2.1487,-2.1293,-2.1293,-2.1293,-2.1293,-2.1293,-2.1293,-2.1293,-2.1293,-2.1433,-2.1246,-2.0223,-2.0364,-2.0497,-2.0096,-2.0381,-2.0792,-2.1245,-2.1246,-2.123,-2.123,-2.0811,-2.053,-2.053,-1.9938,-1.9291,-1.8601,-1.767,-1.6922,-1.6399,-1.5625,-1.4905,-1.4212,-1.3402,-1.2369,-1.1129,0.0,0.0,0.0,0.0,0.0,0.0,0.0,0.0,0.0,0.0,0.0,0.0,0.0,0.0,0.0,0.0,0.0,0.0,0.0,0.0,0.0,0.0,0.0,-1.4738,-1.5184,-1.5765,-1.6503,-1.7572,-1.8007,-1.7362,-1.8531,-1.9317,-1.9317,-1.995,-2.0335,-2.0318,-2.0349,-2.05,-2.079,-2.1136,-2.1277,-2.1204,-2.1575,-2.1575,-2.1184,-2.1213,-2.1193,-2.1193,-2.0949,-2.0838,-2.0838,-2.0838,-2.0838,-2.0838,-2.0838,-2.099,-2.1222,-2.1199,-2.1184,-2.1204,-2.1224,-2.1245,-2.1371,-2.2099,-2.2671,-2.3167,-2.3427,-2.3496,-2.3496,-2.3496,-2.3496,-2.3496,-2.3496,-2.2993,-2.2426,-2.2426,-2.1892,-2.1325,-2.1325,-2.1325,-2.1309,-2.1325,-2.1325,-2.1309,-2.1325,-2.1325,-2.1293,-2.1293,-2.1293,-2.1293,-2.1293,-2.1293,0.0,-2.1277,-2.1167,-2.1071,-2.1103,-2.0663,-2.0393,-2.0393,-1.9707,-1.9008,-1.8297,-1.727,-1.6511,-1.6097,-1.4949,-1.4284,-1.4227,-1.2778,-1.2167,-1.2429,0.0,0.0,0.0,0.0,0.0,0.0,0.0,0.0,0.0,0.0,0.0,0.0,0.0,0.0,0.0,0.0,0.0,0.0,0.0,0.0,0.0,-1.4785,-1.5759,-1.5913,-1.6794,-1.7713,-1.8439,-1.9241,-1.9655,-1.9471,-1.9794,-2.0027,-2.0027,-2.0641,-2.0921,-2.0685,-2.1345,-2.1565,-2.1099,-2.1463,-2.1514,-2.1204,-2.1117,-2.1029,-2.0926,-2.1155,-2.1275,-2.1268,-2.1648,-2.1824,-2.1824,-2.1824,-2.1824,-2.1824,-2.1824,-2.1869,-2.1859,-2.1182,-2.1035,-2.1265,-2.1791,-2.2359,-2.2903,-2.3097,-2.3272,-2.3393,-2.3479,-2.3496,-2.3496,-2.3496,-2.3496,-2.3496,-2.3496,-2.335,-2.3204,-2.3204,-2.2637,-2.2102,-2.2102,-2.1681,-2.1439,-2.1989,-2.1681,-2.1455,-2.1989,-2.1681,-2.1293,-2.1293,-2.1293,-2.1293,-2.1293,-2.1087,0.0,-2.0942,-2.0596,-2.0512,-2.0844,-2.0379,-2.0037,-2.0037,-1.9536,-1.862,-1.7238,-1.6852,-1.6436,-1.5835,-1.5073,-1.4648,-1.4633,-1.3375,-1.2766,0.0,0.0,0.0,0.0,0.0,0.0,0.0,0.0,0.0,0.0,0.0,0.0,0.0,0.0,0.0,0.0,0.0,0.0,0.0,0.0,0.0,0.0,-1.6663,-1.7622,-1.799,-1.8393,-1.8915,-1.9641,-2.0058,-2.0412,-2.0705,-2.0718,-2.0773,-2.0923,-2.1286,-2.1349,-2.0989,-2.1523,-2.1715,-2.1414,-2.181,-2.1881,-2.1621,-2.16,-2.1528,-2.1389,-2.158,-2.1673,-2.1687,-2.2039,-2.2208,-2.2208,-2.2208,-2.2208,-2.2208,-2.2208,-2.2208,-2.2161,0.0,0.0,0.0,0.0,-2.2642,-2.3188,-2.3301,-2.3569,-2.3885,-2.3978,-2.4174,-2.4369,-2.4369,-2.4369,-2.4369,-2.4369,-2.416,-2.3917,-2.3917,-2.3399,-2.2864,-2.2864,-2.2523,-2.2329,-2.2767,-2.228,-2.1892,-2.2313,-2.1698,0.0,-2.1087,-2.1198,-2.1293,-2.1293,-2.1006,-2.0794,-2.0794,-2.0375,-2.015,-2.0441,-1.9912,-1.9558,-1.9558,-1.9067,0.0,0.0,0.0,-1.6493,-1.5533,-1.5054,0.0,0.0,0.0,0.0,0.0,0.0,0.0,0.0,-1.2872,-1.2692,0.0,0.0,0.0,0.0,0.0,0.0,0.0,0.0,0.0,0.0,0.0,0.0,0.0,0.0,0.0,0.0,-1.8484,-1.9626,-2.0227,-1.9857,-1.9718,-2.0243,-2.0366,-2.0641,-2.1242,-2.1329,-2.1491,-2.1777,-2.1843,-2.1695,-2.1281,0.0,0.0,0.0,0.0,-2.2294,-2.2194,-2.2518,-2.248,-2.2208,-2.2208,-2.2208,-2.2208,-2.2208,-2.225,-2.2306,-2.2306,-2.2348,-2.2419,-2.2334,-2.2264,-2.2208,-2.2208,-2.224,-2.2287,-2.2287,-2.2526,-2.2875,-2.3113,0.0,0.0,-2.4552,-2.4977,-2.541,-2.541,-2.5429,-2.5448,-2.5486,-2.504,-2.4558,-2.4612,-2.4128,-2.3609,-2.3609,-2.3561,-2.3512,-2.3593,-2.3042,-2.2507,-2.2457,-2.163,-2.0873,-2.0745,-2.0974,-2.1183,-2.1183,-2.0893,-2.0663,-2.0662,-2.0185,-1.9884,-1.9919,0.0,0.0,-1.912,-1.8568,-1.8039,-1.7623,-1.738,-1.6686,-1.5423,-1.5217,-1.5202,-1.5365,-1.5146,-1.5567,-1.6708,-1.6726,-1.6754,-1.6772,-1.4127,-1.3821,0.0,0.0,0.0,0.0,0.0,0.0,0.0,0.0,0.0,0.0,0.0,0.0,0.0,0.0,0.0,-1.7884,-1.9192,-2.015,-2.0289,-2.0641,-2.0749,-2.035,-2.0782,-2.1165,-2.1288,-2.1538,-2.173,-2.1807,-2.2042,-2.2027,-2.1614,-2.241,-2.2651,-2.2126,-2.2431,-2.2503,-2.2194,-2.2263,-2.2263,-2.2208,0.0,0.0,-2.2208,-2.2208,-2.2475,-2.2929,-2.2929,-2.3234,-2.3684,-2.3164,-2.2634,-2.2208,-2.2208,-2.2457,-2.286,-2.286,-2.3194,-2.3687,-2.373,-2.3858,-2.4006,-2.4032,-2.4131,-2.4235,-2.4235,-2.4313,0.0,-2.4768,-2.4867,-2.4907,-2.5295,-2.4855,-2.4306,-2.4306,-2.3885,-2.3642,-2.4193,-2.3771,-2.3183,-2.2872,-2.2161,-2.1325,-2.0471,-2.0362,-2.0413,-2.0413,-2.012,-1.9871,-1.9782,-1.9332,-1.9161,-1.9479,-1.9314,-1.9184,-1.9184,-1.9053,-1.8592,-1.7669,-1.7551,-1.7192,-1.6443,-1.6825,-1.6835,-1.6411,-1.636,-1.6438,-1.6708,-1.6803,-1.6919,-1.7019,-1.6301,-1.6177,0.0,0.0,0.0,0.0,0.0,0.0,0.0,0.0,0.0,0.0,0.0,-1.5408,-1.6085,0.0,-1.8577,-1.9592,-2.0349,-2.0919,-2.1242,-2.1596,-2.155,-2.0872,-2.1381,-2.1879,-2.2045,-2.2203,-2.2298,-2.2258,-2.241,-2.2337,-2.1979,-2.246,-2.2706,-2.2658,-2.2824,-2.2965,-2.315,-2.315,-2.315,-2.315,-2.315,-2.315,-2.315,-2.315,-2.3319,-2.36,-2.36,-2.3783,-2.4064,-2.3741,-2.3417,-2.3122,-2.2784,-2.2625,-2.2603,-2.2603,-2.2785,-2.3054,-2.3054,-2.3216,-2.3457,-2.3522,-2.3752,-2.4021,-2.4063,-2.4292,-2.4542,-2.4748,-2.4863,-2.4942,-2.5188,-2.4837,-2.4393,-2.4393,-2.4141,-2.3983,-2.4314,-2.3841,-2.3261,-2.3004,-2.2272,-2.1391,-2.0409,-2.0139,-2.0074,-2.0185,-1.9909,-1.9639,-1.953,-1.9157,-1.895,-1.9087,-1.9011,-1.8936,-1.8936,-1.8879,-1.8631,-1.8082,-1.8035,-1.7787,-1.7169,-1.7436,-1.7464,-1.7155,-1.714,-1.7295,-1.7604,-1.7664,-1.7745,-1.7796,-1.7453,-1.7301,0.0,0.0,0.0,0.0,0.0,0.0,0.0,0.0,-1.4346,-1.5265,-1.6282,-1.7285,-1.8238,-1.91,-2.0042,-2.1119,-2.1411,-2.1689,-2.2228,-2.2394,-2.2267,-2.1658,-2.2072,-2.2491,-2.2777,-2.2783,-2.275,-2.2711,-2.264,-2.248,-2.2194,-2.232,-2.2615,-2.3069,-2.3224,-2.3558,-2.4078,-2.4092,-2.4092,-2.4092,-2.4092,-2.4092,-2.4092,-2.4092,-2.4149,-2.4275,-2.4388,-2.4374,-2.4261,-2.4261,-2.4205,-2.4036,-2.3516,-2.3009,-2.2559,-2.2433,-2.2376,-2.2405,-2.2531,-2.2851,-2.3209,-2.3228,-2.3518,-2.3941,-2.4106,-2.428,-2.4497,-2.4739,-2.4717,-2.4664,-2.4724,-2.4497,-2.4261,-2.424,-2.4219,-2.4219,-2.4219,-2.3759,-2.3254,-2.292,-2.2239,-2.1461,-2.0538,-2.0097,-1.989,-1.9947,-1.9714,-1.9493,-1.9384,-1.9116,-1.8884,-1.876,-1.8697,-1.8653,-1.8653,-1.8556,-1.8498,-1.8498,-1.8498,-1.8273,-1.7801,-1.7773,-1.7773,-1.7773,-1.7773,-1.7955,-1.8366,-1.8386,-1.8307,-1.8095,-1.776,-1.7666,-1.0095,-1.0928,-1.2223,-1.3966,-1.4169,-1.4602,0.0,0.0,-1.7378,-1.7746,-1.8898,-1.9718,-1.9271,-2.0227,-2.1119,-2.1273,-2.1797,-2.2212,-2.2289,-2.2809,-2.3049,-2.2672,-2.2692,-2.2768,-2.2802,-2.276,-2.2712,-2.2694,-2.2411,-2.224,-2.2208,-2.2704,-2.3027,-2.3097,-2.3684,-2.4008,-2.4092,-2.4092,-2.4092,-2.4092,-2.4092,-2.4092,-2.4092,-2.4092,-2.4388,-2.4936,-2.5458,-2.54,-2.4908,-2.4908,-2.4585,-2.4078,-2.4008,-2.3938,-2.3811,-2.321,-2.2999,-2.3069,-2.367,-2.3931,-2.3893,-2.3449,-2.325,-2.325,-2.3511,-2.3239,-2.3088,-2.4156,-2.4103,-2.3809,-2.4105,-2.4162,-2.4099,-2.3979,-2.3943,-2.3943,-2.3943,-2.3882,-2.3549,-2.2572,-2.2283,-2.1901,-2.083,-2.0139,-1.9591,-1.9179,-1.8988,-1.8898,-1.8879,-1.8793,-1.8673,-1.8556,-1.8537,-1.8517,-1.8517,-1.8517,-1.8498,-1.8498,-1.8498,-1.847,-1.84,-1.84,-1.84,-1.84,-1.84,-1.8238,-1.7882,-1.8002,-1.7605,-1.6723,-1.6858,-1.7284,-1.3067,-1.3783,0.0,0.0,-1.6097,-1.6589,-1.7695,-1.8165,-1.8485,-1.8841,-1.9647,-2.0335,-2.0443,-2.0919,-2.155,0.0,-2.2531,-2.2792,-2.3389,-2.3375,-2.3197,-2.2888,-2.2797,-2.2746,-2.2746,-2.273,-2.2618,-2.2411,-2.2602,-2.2704,-2.2704,-2.3333,-2.3839,-2.4179,-2.4486,-2.4795,-2.5147,-2.5161,-2.5161,-2.5161,-2.5161,-2.5161,-2.5161,-2.5161,-2.5302,-2.5528,-2.5781,-2.5753,-2.5514,-2.5514,-2.5386,-2.5119,-2.4767,-2.4613,-2.4542,-2.3909,-2.3684,-2.3727,-2.3994,-2.4092,-2.4075,-2.3879,-2.378,-2.378,-2.3967,-2.3774,-2.3643,-2.4137,-2.3837,-2.3406,-2.3537,-2.3384,-2.3201,-2.3157,-2.3135,-2.3135,-2.3135,-2.3135,-2.2995,-2.2452,-2.2431,-2.2177,-2.121,-2.0876,-2.0557,-1.9951,-1.925,-1.8798,-1.8755,-1.8711,-1.8653,-1.8517,-1.8498,-1.8498,-1.8498,-1.8498,-1.8498,-1.8498,-1.8498,-1.8498,-1.8498,-1.8498,-1.8498,-1.8498,-1.8498,-1.8268,-1.7787,-1.7848,-1.7557,-1.6892,-1.6723,-1.6837,-1.504,0.0,0.0,-1.6789,-1.7507,-1.8053,-1.7974,-1.8491,-1.9069,-1.9438,-1.9869,-2.0338,-2.0919,-2.128,-2.1811,-2.2855,-2.3051,-2.3322,-2.4059,-2.3653,-2.3186,-2.2867,-2.2754,-2.2649,-2.2572,-2.2549,-2.2543,-2.2433,-2.2845,-2.3168,-2.3375,-2.3994,-2.4542,-2.4992,-2.5161,-2.5444,-2.5893,-2.5893,-2.5893,-2.5893,-2.5893,-2.5893,-2.5893,-2.5893,-2.5893,-2.5893,-2.5893,-2.5893,-2.5893,-2.5893,-2.5893,-2.5851,-2.5428,-2.526,-2.5203,-2.4767,-2.4486,-2.4359,-2.4542,-2.4599,-2.4582,-2.4501,-2.4456,-2.4456,-2.4622,-2.4346,-2.3985,-2.4221,-2.3689,-2.3031,-2.2987,-2.2754,-2.2532,-2.2486,-2.2486,-2.2486,-2.2486,-2.2486,-2.2463,-2.237,-2.2417,-2.2298,-2.1662,-2.1487,-2.1278,-2.0775,-1.9883,-1.9171,-1.8976,-1.8767,-1.8615,-1.8517,-1.8498,-1.8498,-1.8498,-1.8498,-1.8498,-1.8498,-1.8498,-1.8439,-1.8307,-1.8307,-1.8248,-1.8149,-1.8149,-1.7915,-1.7441,-1.7441,-1.7227,-1.682,-1.6479,-1.6358,0.0,0.0,-1.6821,-1.7421,-1.804,-1.8548,-1.8808,-1.9128,-1.9457,-1.9734,-1.9806,-1.9909,-2.0268,-2.1194,-2.1983,-2.2279,-2.3148,-2.3788,-2.3803,-2.3516,-2.3135,-2.2733,-2.2703,-2.2572,0.0,-2.2231,-2.2447,-2.3027,-2.3083,-2.3364,-2.4022,-2.4641,-2.4978,-2.5006,-2.5556,-2.5879,-2.5893,-2.5893,-2.5893,-2.5893,-2.5893,-2.5893,-2.5893,-2.5893,-2.5893,-2.5893,-2.5893,-2.5893,-2.5893,-2.5893,-2.5893,-2.5893,-2.5879,-2.5865,-2.5865,-2.5837,-2.5472,-2.5063,-2.5626,-2.5837,-2.5766,-2.5307,-2.5083,-2.5031,-2.5291,-2.4408,-2.3491,-2.4269,-2.3588,-2.2592,-2.2463,-2.2417,-2.237,-2.2254,-2.2208,-2.2208,-2.2208,-2.2208,-2.2208,-2.2208,-2.2208,-2.2194,-2.218,-2.1687,-2.1302,-2.1288,-2.0745,-2.0161,-1.963,-1.8956,-1.8498,-1.8498,-1.8498,-1.8498,-1.8498,-1.8498,-1.8498,-1.8498,-1.8498,-1.8307,-1.7841,-1.7808,-1.7639,-1.724,-1.724,-1.701,-1.6531,-1.6531,-1.6306,-1.5836,-1.5836,-1.5814,0.0,0.0,-1.7436,-1.8035,-1.8343,-1.8562,-1.8836,-1.9157,-1.9431,-1.9508,-1.9836,-2.022,-2.0573,-2.1118,-2.1807,-2.2809,-2.2868,-2.3031,-2.3715,-2.3083,-2.2452,-2.2133,-2.2246,0.0,0.0,0.0,0.0,-2.3041,-2.3516,-2.4036,-2.4655,-2.5274,-2.5584,-2.5584,-2.5781,-2.5893,-2.5893,-2.5893,-2.5893,-2.5893,-2.5893,-2.5893,-2.5893,-2.5893,-2.5893,-2.5893,-2.5893,-2.5893,-2.5893,-2.5893,-2.5893,-2.5893,-2.5893,-2.5893,-2.5893,-2.5893,-2.5767,-2.5626,-2.5823,-2.5893,-2.5865,-2.5709,-2.5638,-2.5611,-2.5692,-2.5113,-2.4408,-2.4275,-2.3596,-2.2847,-2.2376,-2.2278,-2.2254,-2.2208,-2.2208,-2.2208,-2.2208,-2.2208,-2.2208,-2.2208,-2.2208,-2.2208,-2.2208,-2.2025,-2.1898,-2.1898,-2.0667,-1.9683,-1.9479,-1.8897,-1.8498,-1.8498,-1.8498,-1.8498,-1.8498,-1.8498,-1.8498,-1.8498,-1.8498,-1.8288,-1.7808,-1.7787,-1.7618,-1.722,-1.7199,-1.6968,-1.65,-1.65,-1.6262,-1.5792,-1.5792,-1.5792,0.0,-1.7913,-1.7745,-1.8343,-1.8498,-1.8562,-1.8836,-1.9157,-1.9431,-1.9527,-1.9836,-2.0185,-2.04,-2.0724,-2.1345,-2.2419,-2.2313,-2.2423,-2.3288,-2.2709,-2.223,-2.2261,-2.2418,-2.2461,0.0,0.0,0.0,-2.3431,-2.4064,-2.4683,-2.5302,-2.5683,-2.5893,-2.5893,-2.5893,-2.5893,-2.5893,-2.5893,-2.5893,-2.5893,-2.5893,-2.5893,-2.5893,-2.5893,-2.5893,-2.5893,-2.5893,-2.5893,-2.5893,-2.5893,-2.5893,-2.5893,-2.5893,-2.5893,-2.5893,-2.5893,-2.5893,-2.5893,-2.5893,-2.5893,-2.5893,-2.5893,-2.5893,-2.5893,-2.5893,-2.5472,-2.4866,-2.4261,-2.3628,-2.2999,-2.263,-2.2362,-2.225,-2.2475,-2.2362,-2.2208,-2.2208,-2.2208,-2.2208,-2.2208,-2.2208,-2.2208,-2.2208,-2.2208,-2.2208,-2.2208,-2.099,-2.0091,-2.0091,-1.9536,-1.9087,-1.8849,-1.8821,-1.8677,-1.8282,-1.8254,-1.8189,-1.8036,-1.8049,-1.7835,-1.7359,-1.7338,-1.7131,-1.6714,-1.6714,-1.6543,-1.6262,-1.6262,-1.6088,-1.5792,-1.5792,-1.5792,-1.7646,-1.7674,-1.7829,-1.8357,-1.8512,-1.8604,-1.8874,-1.9157,-1.9472,-1.9687,-1.976,-1.9745,0.0,0.0,-2.0518,-2.1158,-2.1516,-2.1982,-2.2651,-2.2468,-2.2475,0.0,0.0,0.0,0.0,0.0,0.0,-2.4134,0.0,-2.5274,-2.5865,-2.5893,-2.5893,-2.5893,-2.5893,-2.5893,-2.5893,-2.5893,-2.5893,-2.5893,-2.5893,-2.5893,-2.5893,-2.5893,-2.5893,-2.5893,-2.5893,-2.5893,-2.5893,-2.5893,-2.5893,-2.5893,-2.5893,-2.5893,-2.5893,-2.5893,-2.5893,-2.5893,-2.5893,-2.5893,-2.5893,-2.5893,-2.5893,-2.5893,-2.5893,-2.5486,-2.4922,-2.4317,-2.3684,-2.3182,-2.3154,-2.2742,-2.2447,-2.3013,-2.2676,-2.225,-2.225,-2.2222,-2.2208,-2.2208,-2.2208,-2.2208,-2.2208,-2.2208,-2.2184,-2.2161,-2.1656,-2.1299,-2.1293,-2.0773,-2.0161,-1.9522,-1.9425,-1.901,-1.7977,-1.7835,-1.7659,-1.7272,-1.7212,-1.6989,-1.6522,-1.65,-1.6284,-1.5814,-1.5792,-1.5792,-1.5792,-1.5792,-1.5792,-1.5792,-1.5792,-1.5792,-1.8147,-1.8596,-1.8877,-1.8568,-1.8849,-1.9199,-1.9255,-1.9339,-1.9299,-1.8918,-1.9146,-1.9081,-1.7993,0.0,0.0,-2.0478,-2.086,0.0,-2.3213,-2.3098,0.0,-2.3769,0.0,-2.3909,-2.4078,-2.45,0.0,0.0,-2.4908,-2.5274,-2.5865,-2.5893,-2.5893,-2.5893,-2.5893,-2.5893,-2.5893,-2.5893,-2.5893,-2.5893,-2.5893,-2.5893,-2.5893,-2.5893,-2.5893,-2.5893,-2.5893,-2.5893,-2.5893,-2.5893,-2.5893,-2.5893,-2.5893,-2.5893,-2.5893,-2.5893,-2.5893,-2.5893,-2.5893,-2.5893,-2.5893,-2.5893,-2.5893,-2.5893,-2.5893,-2.5781,-2.5528,-2.495,-2.4655,-2.4416,-2.3966,-2.3727,-2.3642,-2.3797,-2.3361,-2.2859,-2.2859,-2.2531,-2.2208,-2.2208,-2.2208,-2.2208,-2.2208,-2.2208,-2.2067,-2.1664,-2.1479,-2.136,-2.1305,-2.0773,-2.033,-2.0154,-1.9791,-1.9448,-1.9155,-1.8414,-1.7904,-1.7796,-1.7413,-1.6989,-1.6522,-1.65,-1.6284,-1.5814,-1.5792,-1.5792,-1.5792,-1.5792,-1.5792,-1.5792,-1.5792,-1.5792,-1.8807,-1.9368,-1.9691,-1.9059,-1.9157,-1.9293,-1.8879,-1.8786,-1.8578,-1.7825,-1.8204,0.0,-1.6566,0.0,0.0,0.0,0.0,0.0,-2.246,-2.2904,-2.3361,0.0,-2.4317,0.0,-2.4866,-2.5203,-2.5486,0.0,-2.5528,-2.5528,-2.5879,-2.5893,-2.5893,-2.5893,-2.5893,-2.5893,-2.5893,-2.5893,-2.5893,-2.5893,-2.5893,-2.5893,-2.5893,-2.5893,-2.5893,-2.5893,-2.5893,-2.5893,-2.5893,-2.5893,-2.5893,-2.5893,-2.5893,-2.5893,-2.5893,-2.5893,-2.5893,-2.5893,-2.5893,-2.5893,-2.5893,-2.5893,-2.5893,-2.5893,-2.5893,-2.5893,-2.5767,-2.5175,-2.5006,-2.4922,-2.4585,-2.4289,-2.4163,-2.443,-2.4008,-2.3473,-2.3154,-2.2817,-2.2531,-2.225,-2.2208,-2.2208,-2.2208,-2.1996,-2.1746,-2.1447,-2.1191,-2.1046,-2.0996,-2.0891,-2.0739,-2.0476,-2.0166,-1.9795,-1.9324,-1.852,-1.7874,-1.7418,-1.7093,-1.6707,-1.621,-1.6431,-1.631,-1.5814,-1.602,-1.6042,-1.5792,-1.5792,-1.5792,-1.5792,-1.5792,-1.5924,-1.9376,-1.9887,-2.0245,-1.9578,-1.948,-1.9266,-1.8243,-1.7942,-1.7598,-1.6627,0.0,-1.6966,-1.5327,-1.6639,-1.7885,-1.7636,0.0,-2.0442,-2.1293,-2.2405,-2.3389,-2.412,-2.4753,-2.5344,-2.5837,-2.5964,-2.6245,-2.6764,-2.6399,-2.6146,-2.6146,-2.6146,-2.6146,-2.6146,-2.5978,-2.5936,-2.602,-2.5936,-2.5936,-2.602,-2.602,-2.602,-2.602,-2.6104,-2.6048,-2.5893,-2.5978,-2.5964,-2.5893,-2.5893,-2.5893,-2.5893,-2.5893,-2.5893,-2.5893,-2.5893,-2.5893,-2.5893,-2.5893,-2.5893,-2.5893,-2.5893,-2.5893,-2.5893,-2.5893,-2.5893,-2.5781,-2.5274,-2.5133,-2.5133,-2.5133,-2.4725,-2.4472,-2.5006,-2.4655,-2.4036,-2.3389,-2.3097,-2.2817,-2.2306,-2.2137,-2.2091,-2.2091,-2.165,-2.1264,-2.1191,-2.0784,-2.0459,-2.0409,-2.0921,-2.1099,-2.0563,-2.0462,-2.0037,-1.9102,-1.8407,-1.7636,-1.6762,-1.6643,-1.6403,-1.5924,-1.6427,-1.6499,-1.6008,-1.6403,-1.6379,-1.5922,-1.5828,-1.5792,-1.5792,-1.5792,-1.6045,-1.927,-1.9887,-2.0245,-1.9578,-1.9817,-1.9851,-1.8344,-1.7614,0.0,0.0,0.0,-1.5019,-1.4269,-1.5015,0.0,-1.7406,0.0,0.0,0.0,0.0,-2.3519,0.0,0.0,0.0,0.0,0.0,0.0,0.0,-2.7214,-2.7482,-2.7482,-2.7482,-2.7482,-2.7482,-2.6441,-2.6132,-2.6652,-2.6146,-2.6146,-2.6652,-2.6652,-2.6652,-2.6666,-2.72,-2.6905,-2.5921,-2.6427,0.0,-2.5893,-2.5893,-2.5893,-2.5893,-2.5893,-2.5893,-2.5893,-2.5893,-2.5893,-2.5893,-2.5893,-2.5893,-2.5893,-2.5893,-2.5893,-2.5893,-2.5893,-2.5893,-2.5879,-2.5767,-2.5725,-2.5725,-2.5725,-2.5655,-2.5598,-2.5711,-2.5288,-2.4683,-2.405,-2.3094,-2.2334,-2.2222,-2.1841,-2.1544,-2.1544,-2.108,-2.0585,-2.0131,-2.0003,-1.9773,-1.9317,-2.0131,-2.0695,-2.059,-2.0192,-1.9851,-1.9649,-1.8351,-1.7448,-1.7255,-1.6847,-1.6559,-1.6475,-1.6979,-1.7207,-1.7123,-1.6775,-1.6559,-1.6463,-1.603,-1.5792,-1.5792,-1.5792,-1.5819,-1.9305,-2.0119,-2.0646,-1.9649,-1.9901,-1.9866,-1.7789,0.0,0.0,0.0,0.0,-1.3669,-1.2625,0.0,0.0,0.0,0.0,0.0,0.0,0.0,0.0,0.0,0.0,0.0,0.0,0.0,0.0,0.0,-2.7902,-2.8143,-2.7833,-2.7805,-2.7491,-2.6822,-2.6511,-2.6218,-2.5853,-2.5896,-2.6048,-2.6329,-2.6329,-2.6512,-2.6807,-2.6807,-2.6849,-2.6863,-2.6483,-2.6357,-2.6343,-2.602,-2.5893,-2.5893,-2.5893,-2.5893,-2.5893,-2.5893,-2.5893,-2.5893,-2.5893,-2.5893,-2.5893,-2.5893,-2.5893,-2.5893,-2.5893,-2.5893,-2.5893,-2.5893,-2.5893,-2.5893,-2.5893,-2.5893,-2.5893,-2.5893,-2.5456,-2.4759,-2.3858,-2.2937,-2.2069,-2.1474,-2.1153,-2.0981,-2.0981,-2.0535,-2.0105,-1.9824,-1.9552,-1.9303,-1.904,-1.9448,-1.9875,-2.0156,-1.9952,-1.9798,-1.9798,-1.8595,-1.7712,-1.7436,-1.7159,-1.6763,-1.6223,-1.6967,-1.7267,-1.6991,-1.6727,-1.6739,-1.7015,-1.6487,-1.6223,-1.6235,-1.6185,-1.6147,-1.9348,-2.0133,-2.0639,-1.9649,-1.9803,-1.9571,-1.7243,-1.6087,0.0,0.0,0.0,-1.251,-1.1484,0.0,0.0,0.0,0.0,0.0,0.0,0.0,0.0,0.0,0.0,0.0,0.0,0.0,0.0,0.0,-2.8434,-2.8675,-2.8227,-2.8072,-2.7485,-2.6315,-2.649,-2.6087,-2.5024,-2.5327,-2.5633,-2.5911,-2.5911,-2.6288,-2.7003,-2.6512,-2.6764,-2.7538,-2.6526,-2.6287,-2.6582,-2.6104,-2.5893,-2.5893,-2.5893,-2.5893,-2.5893,-2.5893,-2.5893,-2.5893,-2.5893,-2.5893,-2.5893,-2.5893,-2.5893,-2.5893,-2.5893,-2.5893,-2.5893,-2.5893,-2.5893,-2.5893,-2.5893,-2.5893,-2.5866,-2.5729,-2.5228,-2.4468,-2.3335,-2.2558,-2.1813,-2.0803,-2.051,-2.0434,-2.0434,-1.9978,-1.963,-1.963,-1.9265,-1.8987,-1.8987,-1.8987,-1.9172,-1.9578,-1.963,-1.963,-1.963,-1.8751,-1.7977,-1.7423,-1.752,-1.7135,-1.6164,-1.7171,-1.7531,-1.7111,-1.6991,-1.7147,-1.758,-1.6908,-1.6575,-1.6563,-1.638,-1.6294,-1.9256,-1.9494,-1.955,-1.9418,-1.9452,-1.9003,-1.7126,0.0,0.0,0.0,-1.2093,-1.143,-1.1844,-1.2123,0.0,0.0,0.0,0.0,0.0,0.0,0.0,0.0,0.0,0.0,0.0,0.0,0.0,0.0,-2.8691,-2.949,-2.9448,-2.89,-2.8277,-2.7571,-2.6521,-2.5673,-2.5024,-2.4442,-2.4749,-2.591,-2.591,-2.6543,-2.7721,-2.7665,-2.7355,-2.6891,-2.6778,-2.6441,0.0,-2.5921,-2.5893,-2.5893,-2.5893,-2.5893,-2.5893,-2.5893,-2.5893,-2.5893,-2.5893,-2.5893,-2.5893,-2.5893,-2.5893,-2.5893,-2.5893,-2.5893,-2.5893,-2.5893,-2.5893,-2.5893,-2.5893,-2.5893,-2.5757,-2.5202,-2.4585,-2.3771,-2.2629,-2.1917,-2.1328,-2.0714,-2.0207,-1.9875,-1.9875,-1.9422,-1.9066,-1.9066,-1.904,-1.8987,-1.8987,-1.8987,-1.9013,-1.9066,-1.9066,-1.9066,-1.9066,-1.8532,-1.7977,-1.7423,-1.7869,-1.7869,-1.7267,-1.8277,-1.8819,-1.877,-1.8301,-1.8085,-1.8133,-1.7023,-1.652,-1.6495,-1.5927,-1.5647,-1.8694,-1.9129,-1.9305,-1.8961,-1.9143,-1.8933,-1.7098,0.0,-1.4457,-1.3248,-1.1995,-1.1167,-1.1408,-1.1697,-1.2372,0.0,-1.4137,-1.5212,0.0,0.0,0.0,0.0,0.0,0.0,0.0,0.0,0.0,-2.6707,-2.8107,-2.8712,-2.8182,-2.8429,-2.7966,-2.6645,-2.6117,-2.5201,-2.388,-2.4714,-2.5194,-2.5243,-2.605,-2.6684,-2.7143,-2.6742,-2.6662,-2.6789,-2.6373,-2.5896,0.0,-2.5367,-2.537,-2.537,-2.537,-2.5591,-2.5866,-2.5481,-2.5591,-2.5839,-2.5481,-2.5591,-2.5893,-2.5893,-2.5893,-2.5893,-2.5893,-2.5893,-2.5893,-2.5893,-2.5893,-2.5893,-2.5893,-2.5619,-2.5188,-2.4538,-2.3944,-2.3209,-2.2056,-2.1383,-2.0716,-1.9808,-1.9474,-1.9317,-1.9317,-1.9146,-1.8987,-1.8987,-1.8987,-1.8987,-1.8987,-1.8987,-1.8987,-1.8987,-1.8987,-1.8987,-1.8987,-1.8506,-1.8109,-1.7905,-1.8085,-1.7965,-1.7411,-1.8121,-1.8518,-1.8518,-1.7623,-1.748,-1.8151,-1.6991,-1.6443,-1.6417,-1.6154,-1.5821,-1.8063,-1.8666,-1.9031,-1.861,-1.8694,-1.8442,0.0,0.0,-1.419,-1.2953,-1.1856,-1.1085,-1.105,-1.1493,-1.2166,-1.3116,-1.3629,-1.4778,-1.7277,0.0,0.0,0.0,0.0,0.0,0.0,0.0,0.0,-2.5979,-2.7269,-2.7664,-2.6828,-2.7242,-2.6881,-2.5547,-2.5508,-2.4732,-2.3089,-2.4387,-2.4944,-2.4777,-2.5718,-2.6259,-2.6407,-2.5788,-2.5794,-2.622,-2.5566,-2.5178,0.0,-2.4782,-2.4821,-2.4977,-2.4793,-2.5104,-2.5564,-2.4921,-2.5104,-2.5522,-2.4921,-2.4978,-2.5342,-2.5342,-2.5342,-2.5342,-2.5342,-2.5605,-2.5866,-2.5674,-2.5495,-2.5342,-2.5342,-2.5034,-2.4498,-2.3696,-2.3202,-2.257,-2.1272,-2.0712,-2.0143,-1.9202,-1.8987,-1.8987,-1.8987,-1.8987,-1.8987,-1.8987,-1.8987,-1.8987,-1.8987,-1.8987,-1.8987,-1.8987,-1.8987,-1.8987,-1.8987,-1.865,-1.8374,-1.8205,-1.835,-1.8117,-1.7405,-1.7891,-1.8085,-1.7917,-1.7117,-1.7093,-1.7847,-1.6863,-1.6374,-1.6347,-1.6128,-1.5825,-1.745,-1.8035,-1.8512,-1.8498,-1.8049,-1.7281,0.0,-1.478,-1.3558,-1.2279,-1.1521,-1.105,-1.0932,-1.1505,-1.2106,-1.2457,-1.3956,-1.5523,-1.6834,0.0,0.0,0.0,0.0,0.0,0.0,0.0,0.0,-2.5148,-2.6219,0.0,-2.5847,-2.5367,-2.4937,-2.4544,-2.47,-2.4226,-2.3011,-2.3011,-2.3587,-2.4705,-2.4705,-2.511,-2.579,-2.5127,-2.4896,-2.4987,-2.4325,-2.4394,0.0,-2.4266,-2.4394,-2.4935,-2.4266,-2.4423,-2.492,-2.4266,-2.4423,-2.4907,-2.4237,-2.4021,-2.4021,-2.4021,-2.4021,-2.4021,-2.4021,-2.4894,-2.5784,-2.5174,-2.4538,-2.4021,-2.4021,-2.4021,-2.3732,-2.26,-2.23,-2.1843,-2.0176,-1.9808,-1.9652,-1.9122,-1.8987,-1.8987,-1.8987,-1.8987,-1.8987,-1.8987,-1.8987,-1.8987,-1.8987,-1.8987,-1.8987,-1.8987,-1.8987,-1.8987,-1.8987,-1.8987,-1.8758,-1.8229,-1.8698,-1.8472,-1.7358,-1.7817,-1.7809,-1.7219,-1.7219,-1.7191,-1.7202,-1.6613,-1.6301,-1.6301,-1.569,-1.541,-1.5637,-1.6126,-1.6491,-1.607,-1.614,-1.5972,-1.4752,-1.4162,-1.3544,-1.2265,-1.1521,-1.105,-1.092,-1.1085,-1.1656,-1.2918,-1.3458,0.0,0.0,0.0,0.0,0.0,0.0,0.0,0.0,0.0,-2.4496,-2.3197,-2.501,-2.5505,-2.3971,-2.4171,-2.4355,-2.4357,-2.3721,-2.3007,-2.2249,-2.3193,-2.3621,-2.3542,-2.4456,-2.4767,-2.4474,-2.4265,-2.4004,-2.3696,-2.3857,-2.3604,-2.3095,-2.331,-2.3505,-2.3682,-2.3475,-2.3771,-2.4237,-2.3623,-2.3771,-2.4237,-2.3581,-2.364,-2.3992,-2.3992,-2.3992,-2.3992,-2.3992,-2.4281,-2.4553,-2.4381,-2.415,-2.3904,-2.3492,-2.3094,-2.2631,-2.1879,-2.1121,-2.0458,-1.9908,-1.9519,-1.9191,-1.9023,-1.8987,-1.8987,-1.8987,-1.8987,-1.8987,-1.8987,-1.8987,-1.8987,-1.8987,-1.8987,-1.8987,-1.8987,-1.8987,-1.8987,-1.8987,-1.8987,-1.8756,-1.8169,-1.8282,-1.8051,-1.7257,-1.7401,-1.7396,-1.7202,-1.6782,-1.6585,-1.6585,-1.5968,-1.569,-1.569,-1.5497,-1.541,0.0,-1.4907,-1.527,-1.4893,-1.4921,-1.4766,-1.3783,-1.3361,-1.2883,-1.1872,-1.1352,-1.105,-1.092,-1.1271,-1.1882,-1.2802,-1.3467,0.0,0.0,0.0,0.0,0.0,0.0,0.0,0.0,-2.2945,-2.3474,-2.218,-2.3666,-2.4102,-2.2957,-2.3095,-2.3272,-2.3379,-2.2897,-2.2459,-2.2139,-2.3048,-2.3379,-2.3203,-2.4097,-2.4217,-2.3559,-2.3559,-2.3282,-2.2775,-2.3109,-2.2979,0.0,-2.2702,-2.2889,-2.3088,-2.2859,-2.313,-2.3581,-2.298,-2.3148,-2.3581,-2.298,-2.3022,-2.331,-2.331,-2.331,-2.331,-2.331,-2.3475,-2.3669,-2.3669,-2.3505,-2.322,-2.2871,-2.2503,-2.2068,-2.1276,-2.0586,-1.9985,-1.9603,-1.9254,-1.8987,-1.8987,-1.8987,-1.8987,-1.8987,-1.8987,-1.8987,-1.8987,-1.8987,-1.8987,-1.8987,-1.8987,-1.8987,-1.8987,-1.8801,-1.8655,-1.8655,-1.8655,-1.8509,-1.812,-1.7902,-1.7479,-1.6894,-1.6866,-1.6754,-1.6528,-1.614,-1.5968,-1.5968,-1.5575,-1.541,-1.541,-1.541,-1.541,0.0,-1.4092,-1.4541,-1.4541,-1.4148,-1.3614,-1.3009,-1.2419,0.0,-1.1223,-1.1085,-1.1066,-1.1021,-1.188,-1.2551,-1.2423,0.0,0.0,0.0,0.0,0.0,0.0,0.0,0.0,0.0,-2.1788,-2.2439,-2.1881,-2.2375,-2.2684,-2.2615,-2.2157,-2.1883,-2.1837,-2.2208,-2.2415,-2.2448,-2.2565,-2.29,-2.3409,-2.3586,-2.3433,-2.2919,-2.2919,-2.2654,0.0,-2.2197,-2.2531,-2.301,-2.242,-2.2531,-2.298,-2.242,-2.2531,-2.298,-2.242,-2.2561,-2.295,-2.2389,-2.2197,-2.2197,-2.2197,-2.2197,-2.2197,-2.2197,-2.258,-2.3027,-2.3027,-2.2641,-2.2197,-2.2197,-2.2161,-2.1873,-2.0863,-2.0557,-2.0273,-1.9215,-1.8987,-1.8987,-1.8987,-1.8987,-1.8987,-1.8987,-1.8987,-1.8987,-1.8987,-1.8987,-1.8987,-1.8987,-1.896,-1.8934,-1.8934,-1.8402,-1.8038,-1.8038,-1.8038,-1.8011,-1.7984,-1.7451,-1.6866,-1.6255,-1.6255,-1.5968,-1.541,-1.541,-1.541,-1.541,-1.541,-1.541,-1.541,-1.541,-1.541,-1.0644,0.0,-1.197,-1.197,-1.2209,-1.2279,0.0,-1.1774,-1.183,0.0,0.0,-1.1174,-1.1912,-1.1777,-1.216,0.0,0.0,0.0,0.0,0.0,0.0,0.0,0.0,0.0,0.0,-2.1657,-2.1897,-2.1397,-2.2201,-2.2374,-2.1592,-2.1778,-2.1743,-2.1385,-2.147,-2.1641,-2.1886,-2.2021,-2.2238,-2.2495,-2.2558,-2.2498,-2.2378,-2.2378,-2.2306,-2.2197,-2.2197,-2.2278,-2.2389,-2.208,-2.2142,-2.2389,-2.2092,-2.2142,-2.2389,-2.2247,-2.2278,-2.2389,-2.2247,-2.2197,-2.2197,-2.2197,-2.2197,-2.2197,-2.2197,-2.2309,-2.242,-2.242,-2.2309,-2.2197,-2.2197,-2.1897,-2.1428,-2.0779,-2.0286,-1.9793,-1.9131,-1.8987,-1.8987,-1.8987,-1.8987,-1.8987,-1.8987,-1.8987,-1.8987,-1.8987,-1.8987,-1.8987,-1.8987,-1.8602,-1.8321,-1.8321,-1.7754,-1.7424,-1.7424,-1.7424,-1.7202,-1.6754,-1.6585,-1.6255,-1.5633,-1.5604,-1.5546,-1.541,-1.541,-1.541,-1.541,-1.541,-1.541,-1.541,-1.541,-1.541,-0.8985,-1.0157,-1.1167,-1.1436,-1.1759,-1.1914,-1.1591,0.0,0.0,0.0,0.0,0.0,-1.1749,0.0,0.0,0.0,0.0,0.0,0.0,0.0,0.0,0.0,0.0,0.0,0.0,-2.1443,-2.1456,-2.1213,-2.1707,-2.1776,-2.1224,-2.1422,-2.1445,-2.1201,-2.119,-2.1296,-2.1466,-2.16,-2.1726,-2.1819,-2.1999,-2.2061,-2.2061,-2.2166,-2.2197,-2.2197,-2.2197,-2.2154,-2.2061,-2.1925,-2.1937,-2.198,-2.1906,-2.1937,-2.198,-2.203,-2.203,-2.198,-2.198,-2.1999,-2.2092,-2.2154,-2.2197,-2.2197,-2.2197,-2.2197,-2.2197,-2.2197,-2.2197,-2.2197,-2.2197,-2.1981,-2.1572,-2.0803,-2.0382,-1.9949,-1.9167,-1.8987,-1.8987,-1.8987,-1.8987,-1.8907,-1.8617,-1.8602,-1.8483,-1.8228,-1.8174,-1.8174,-1.8174,-1.7902,-1.7683,-1.7683,-1.7146,-1.6782,-1.6782,-1.6528,-1.6358,-1.6312,-1.6054,-1.5748,-1.541,-1.541,-1.541,-1.541,-1.541,-1.541,-1.541,-1.541,-1.541,-1.541,-1.541,-1.5264,-0.8145,-0.9691,-1.1188,-1.1522,-1.1814,-1.2009,-1.1886,0.0,0.0,0.0,0.0,0.0,0.0,0.0,0.0,0.0,0.0,0.0,0.0,0.0,0.0,0.0,0.0,0.0,-2.1221,-2.119,-2.119,-2.119,-2.119,-2.119,-2.119,-2.119,-2.119,-2.119,-2.119,-2.119,-2.119,-2.1336,-2.142,-2.1463,-2.1737,-2.1874,-2.1906,-2.2092,-2.2154,-2.2154,-2.2154,-2.2061,-2.1874,-2.1831,-2.1781,-2.1698,-2.1781,-2.1781,-2.1698,-2.1843,-2.1812,-2.1698,-2.173,-2.1812,-2.1925,-2.2123,-2.2197,-2.2197,-2.2197,-2.2197,-2.2197,-2.2197,-2.2197,-2.2197,-2.2197,-2.2125,-2.1849,-2.0947,-2.061,-2.0209,-1.9192,-1.8928,-1.8854,-1.8735,-1.8735,-1.8563,-1.8038,-1.7957,-1.7793,-1.7285,-1.7202,-1.7202,-1.7202,-1.7118,-1.7062,-1.7062,-1.6528,-1.6169,-1.6169,-1.569,-1.5633,-1.614,-1.569,-1.541,-1.541,-1.541,-1.541,-1.541,-1.541,-1.5381,-1.5362,-1.5362,-1.5303,-1.5206,-1.5206,-1.4874,-0.8963,-1.0257,-1.0964,-1.0026,-1.099,-1.1988,0.0,0.0,0.0,0.0,0.0,0.0,0.0,0.0,0.0,0.0,0.0,0.0,0.0,0.0,0.0,0.0,0.0,-2.1285,-2.1221,-2.119,-2.119,-2.119,-2.119,-2.119,-2.119,-2.119,-2.119,-2.119,-2.119,-2.119,-2.119,-2.1336,-2.1506,-2.1655,-2.1698,-2.1781,-2.1894,-2.1925,-2.1968,-2.1968,-2.1968,-2.1843,-2.173,-2.1537,-2.1569,-2.1698,-2.1537,-2.158,-2.1698,-2.173,-2.173,-2.173,-2.1843,-2.1874,-2.1925,-2.2123,-2.2197,-2.2197,-2.2197,-2.2197,-2.2197,-2.2197,-2.2197,-2.2197,-2.2197,-2.1861,-2.1488,-2.132,-2.0574,-1.9742,-1.9051,-1.8568,-1.8093,-1.7589,-1.7479,-1.7451,-1.7341,-1.7341,-1.7313,-1.7202,-1.7202,-1.7202,-1.7202,-1.6754,-1.6443,-1.6443,-1.5892,-1.5555,-1.5555,-1.5439,-1.5439,-1.5517,-1.5439,-1.541,-1.541,-1.541,-1.541,-1.541,-1.541,-1.5332,-1.5235,-1.5235,-1.4863,-1.4213,-1.4323,-1.4034,-0.779,-0.8942,-0.9856,-0.9404,-1.1255,-1.3026,0.0,0.0,0.0,0.0,0.0,0.0,0.0,0.0,0.0,0.0,0.0,0.0,0.0,0.0,0.0,0.0,0.0,-2.119,-2.119,-2.119,-2.119,-2.119,-2.119,-2.119,-2.119,-2.119,-2.119,-2.119,-2.119,-2.119,-2.119,-2.1253,-2.1348,-2.1434,-2.1517,-2.1569,-2.1632,-2.1831,-2.1874,-2.1812,-2.1874,-2.1769,-2.1549,-2.1431,-2.14,-2.1434,-2.14,-2.1411,-2.1434,-2.1434,-2.1434,-2.1454,-2.1569,-2.162,-2.1663,-2.1843,-2.1917,-2.1917,-2.1917,-2.1917,-2.1843,-2.1463,-2.1757,-2.2092,-2.1726,-2.1244,-2.0808,-2.037,-1.9538,-1.8726,-1.8412,-1.7963,-1.7534,-1.7257,-1.7202,-1.7062,-1.668,-1.668,-1.6585,-1.6179,-1.6169,-1.6226,-1.6226,-1.5997,-1.5796,-1.5796,-1.5584,-1.541,-1.541,-1.541,-1.541,-1.541,-1.541,-1.5362,-1.5284,-1.5284,-1.5254,-1.5196,-1.5196,-1.5137,-1.5088,-1.4715,-1.4371,-1.3995,-1.3696,-1.3243,-0.6948,-0.7974,-0.9081,-0.9358,0.0,0.0,-1.3313,0.0,0.0,0.0,0.0,0.0,0.0,0.0,0.0,0.0,0.0,0.0,0.0,0.0,-2.0056,-2.1075,-2.119,-2.119,-2.119,-2.119,-2.119,-2.119,-2.119,-2.119,-2.119,-2.119,-2.119,-2.119,-2.119,-2.119,-2.119,-2.119,-2.119,-2.119,-2.1305,-2.1368,-2.142,-2.1663,-2.1737,-2.1624,-2.1737,-2.1632,-2.1368,-2.1368,-2.1273,-2.1221,-2.1305,-2.1273,-2.119,-2.119,-2.119,-2.1221,-2.1368,-2.1388,-2.1431,-2.1624,-2.1592,-2.1454,-2.1454,-2.1328,-2.1051,-2.0494,-2.0953,-2.1526,-2.0921,-2.0463,-2.0031,-1.9549,-1.8705,-1.7999,-1.7793,-1.737,-1.6977,-1.6719,-1.6669,-1.651,-1.5941,-1.596,-1.5845,-1.5303,-1.5313,-1.5381,-1.5362,-1.5362,-1.5332,-1.5303,-1.5303,-1.5303,-1.5303,-1.5303,-1.5303,-1.5303,-1.5303,-1.5254,-1.5156,-1.5156,-1.5098,-1.5,-1.5,-1.4911,-1.4695,-1.4163,-1.3765,-1.3394,-1.2948,-1.2428,-0.7798,-0.8717,-0.9493,-0.9997,0.0,0.0,-1.2758,0.0,0.0,0.0,0.0,0.0,0.0,0.0,0.0,0.0,0.0,0.0,0.0,0.0,-2.0056,-2.1075,-2.119,-2.119,-2.119,-2.119,-2.119,-2.119,-2.119,-2.119,-2.119,-2.119,-2.119,-2.119,-2.119,-2.119,-2.119,-2.119,-2.119,-2.119,-2.1221,-2.1273,-2.1388,-2.142,-2.142,-2.142,-2.142,-2.1336,-2.1221,-2.1221,-2.1221,-2.119,-2.1221,-2.1221,-2.119,-2.119,-2.119,-2.1221,-2.1368,-2.1388,-2.1431,-2.1624,-2.1253,-2.0698,-2.0698,-2.0193,-1.9639,-1.9596,-1.977,-1.9955,-1.9922,-1.9511,-1.9231,-1.9674,-1.8964,-1.8033,-1.7462,-1.6931,-1.6257,-1.5332,-1.5167,-1.5137,-1.5088,-1.5176,-1.5274,-1.5215,-1.5313,-1.5362,-1.5235,-1.5215,-1.5186,-1.5029,-1.5029,-1.5029,-1.5029,-1.5029,-1.5029,-1.5029,-1.5029,-1.5029,-1.5,-1.5,-1.5009,-1.5,-1.5,-1.4606,-1.3782,-1.3752,-1.3017,-1.1663,-1.1825,-1.1522,-0.6899,-0.8097,-0.9337,-0.9886,0.0,0.0,0.0,0.0,0.0,0.0,0.0,0.0,0.0,0.0,0.0,0.0,0.0,0.0,0.0,-1.9482,-1.9941,-2.0618,-2.1006,-2.119,-2.119,-2.119,-2.119,-2.119,-2.119,-2.119,-2.119,-2.119,-2.119,-2.119,-2.119,-2.119,-2.119,-2.119,-2.119,-2.119,-2.119,-2.1221,-2.1273,-2.1368,-2.1368,-2.1273,-2.1368,-2.1305,-2.119,-2.119,-2.0924,-2.0463,-1.9998,-2.0096,-2.0463,-1.9998,-1.9835,-1.9835,-1.989,-1.9922,-1.9922,-2.0009,-1.9835,-1.9617,-1.9617,-1.942,-1.909,-1.869,-1.8623,-1.8723,-1.8957,-1.8714,-1.8422,-1.8365,-1.7454,-1.6604,-1.6621,-1.6061,-1.5438,-1.5058,-1.5,-1.497,-1.4843,-1.497,-1.5029,-1.4902,-1.5049,-1.5137,-1.5098,-1.5098,-1.5068,-1.5009,-1.5,-1.5,-1.5,-1.4872,-1.4804,-1.4804,-1.4941,-1.4941,-1.4813,-1.4419,-1.4142,-1.4052,-1.3653,-1.3282,-1.294,-1.2551,-1.2035,-1.1483,-1.1185,-1.0965,-0.671,-0.7911,-0.9261,0.0,0.0,0.0,0.0,0.0,0.0,0.0,0.0,0.0,0.0,0.0,0.0,0.0,0.0,0.0,-1.8561,-1.9091,-1.9631,-2.0125,-2.0492,-2.0787,-2.0937,-2.096,-2.1017,-2.1178,-2.119,-2.119,-2.119,-2.119,-2.119,-2.119,-2.119,-2.119,-2.119,-2.119,-2.1094,-2.086,-2.086,-2.0955,-2.119,-2.1305,-2.1273,-2.1221,-2.1305,-2.1146,-2.086,-2.086,-2.0431,-1.9704,-1.921,-1.9309,-1.9704,-1.9177,-1.9011,-1.9011,-1.9011,-1.9011,-1.9011,-1.9011,-1.8844,-1.8677,-1.8677,-1.8509,-1.824,-1.7765,-1.7706,-1.7808,-1.7935,-1.7911,-1.7764,-1.7487,-1.6637,-1.5958,-1.6036,-1.5498,-1.4982,-1.4851,-1.4823,-1.4793,-1.4666,-1.4784,-1.4872,-1.4715,-1.4872,-1.497,-1.4911,-1.4911,-1.4882,-1.4862,-1.4823,-1.4823,-1.4823,-1.4508,-1.4321,-1.4321,-1.4261,-1.4231,-1.4321,-1.3683,-1.329,-1.3199,-1.2726,-1.2389,-1.2182,-1.1725,-1.1389,-1.1209,-1.0776,-1.0656,-0.7588,-0.8422,0.0,0.0,0.0,0.0,0.0,0.0,0.0,0.0,0.0,0.0,0.0,0.0,0.0,0.0,-1.7011,-1.8063,-1.8005,-1.8514,-1.9091,-1.962,-1.9688,-1.9884,-2.0354,-2.037,-2.0607,-2.1155,-2.119,-2.1158,-2.119,-2.119,-2.119,-2.119,-2.119,-2.119,-2.119,-2.119,-2.0796,-2.0107,-2.0107,-2.0463,-2.119,-2.119,-2.119,-2.119,-2.119,-2.0764,-2.0107,-2.0063,-1.9639,-1.9011,-1.8977,-1.8977,-1.8977,-1.8977,-1.8977,-1.8977,-1.8977,-1.8977,-1.8977,-1.8977,-1.8533,-1.8003,-1.8003,-1.7467,-1.6908,-1.6899,-1.7028,-1.7123,-1.6934,-1.7028,-1.7192,-1.7192,-1.6893,-1.6416,-1.5836,-1.5377,-1.4983,-1.4588,-1.4515,-1.4515,-1.4515,-1.4606,-1.4715,-1.4715,-1.4872,-1.4911,-1.4715,-1.4677,-1.4636,-1.4506,-1.4485,-1.4485,-1.4485,-1.3881,-1.3472,-1.3472,-1.2856,-1.2787,-1.3472,-1.2848,-1.2473,-1.2473,-1.2481,-1.2151,-1.1483,-1.1483,-1.1178,-1.0593,-1.0593,-1.0593,-0.6902,-0.824,0.0,0.0,0.0,0.0,0.0,0.0,0.0,0.0,0.0,0.0,0.0,0.0,0.0,-1.5691,-1.6273,-1.6846,-1.6813,-1.7651,-1.834,-1.8496,-1.8796,-1.9254,-1.9854,-1.9108,-1.8915,-1.9793,-1.9456,-1.934,-1.965,-1.9639,-1.9639,-1.9639,-1.9639,-1.9639,-1.9639,-1.9639,-1.954,-1.9342,-1.9342,-1.9441,-1.9639,-1.9639,-1.9639,-1.9639,-1.9639,-1.954,-1.9299,-1.88,-1.8767,-1.8911,-1.791,-1.7842,-1.824,-1.7706,-1.7501,-1.7501,-1.7501,-1.7501,-1.7501,-1.7501,-1.7373,-1.7235,-1.7235,-1.7072,-1.6844,-1.6569,-1.6529,-1.649,-1.6129,-1.6112,-1.6219,-1.648,-1.6274,-1.5827,-1.539,-1.4964,-1.4653,-1.4533,-1.4515,-1.4515,-1.4515,-1.4536,-1.4556,-1.4556,-1.4625,-1.4625,-1.4565,-1.4151,-1.3842,-1.3791,-1.3381,-1.31,-1.31,-1.2917,-1.2787,-1.2787,-1.2182,-1.2089,-1.2757,-1.2151,-1.1787,-1.1787,-1.1389,-1.1083,-1.087,-1.087,-1.0776,-1.0593,-1.0593,-1.0593,-0.7382,0.0,0.0,0.0,0.0,0.0,0.0,0.0,0.0,0.0,0.0,0.0,0.0,0.0,0.0,-1.5247,-1.5796,-1.6226,-1.5979,-1.6751,-1.7316,-1.7316,-1.7581,-1.7986,-1.86,-1.7974,-1.785,-1.8645,-1.8365,-1.8331,-1.8733,-1.8754,-1.8847,-1.9,-1.9011,-1.9011,-1.9011,-1.9011,-1.8877,-1.861,-1.861,-1.8442,-1.8172,-1.8744,-1.9011,-1.8977,-1.871,-1.861,-1.8543,-1.7833,-1.7808,-1.808,-1.7235,-1.7176,-1.7501,-1.7072,-1.6908,-1.6908,-1.6908,-1.6908,-1.6908,-1.6908,-1.6908,-1.6881,-1.6716,-1.667,-1.6587,-1.6184,-1.6065,-1.601,-1.5753,-1.5689,-1.5753,-1.601,-1.5753,-1.5386,-1.5157,-1.479,-1.4515,-1.4515,-1.4515,-1.4515,-1.4515,-1.4515,-1.4515,-1.4515,-1.4258,-1.41,-1.41,-1.3511,-1.31,-1.31,-1.2726,-1.2512,-1.2512,-1.2266,-1.2089,-1.2089,-1.1514,-1.1327,-1.1725,-1.1358,-1.1146,-1.1146,-1.0776,-1.0593,-1.0593,-1.0593,-1.0593,-1.0593,-1.0593,-1.0593,0.0,0.0,0.0,0.0,0.0,0.0,0.0,0.0,0.0,0.0,0.0,0.0,0.0,0.0,-1.5281,-1.4619,-1.541,-1.594,-1.541,-1.5835,-1.6226,-1.6226,-1.6226,-1.642,-1.6981,-1.6934,-1.708,-1.7605,-1.7585,-1.774,-1.8119,-1.815,-1.8303,-1.8678,-1.8688,-1.8688,-1.8688,-1.8729,-1.8429,-1.7784,-1.7823,-1.7459,-1.6833,-1.8176,-1.8811,-1.8777,-1.8172,-1.7901,-1.7833,-1.7166,-1.6908,-1.6908,-1.6908,-1.6908,-1.6908,-1.6908,-1.6908,-1.6908,-1.6908,-1.6908,-1.6899,-1.6862,-1.6853,-1.678,-1.6386,-1.6257,-1.6142,-1.5679,-1.5602,-1.5625,-1.5524,-1.5547,-1.5588,-1.5515,-1.53,-1.5093,-1.5056,-1.4763,-1.4515,-1.4515,-1.4515,-1.4485,-1.4417,-1.4417,-1.4387,-1.4327,-1.3791,-1.342,-1.342,-1.2826,-1.242,-1.242,-1.2358,-1.2328,-1.2328,-1.1756,-1.1428,-1.1428,-1.0902,-1.0593,-1.0593,-1.0593,-1.0593,-1.0593,-1.0593,-1.0593,-1.0593,-1.0593,-1.0593,-1.0593,-1.0593,-1.0593,0.0,0.0,0.0,0.0,0.0,0.0,0.0,0.0,0.0,0.0,0.0,0.0,0.0,-1.4639,-1.469,-1.4526,-1.4704,-1.4852,-1.4704,-1.5216,-1.5575,-1.5575,-1.5575,-1.5817,-1.6417,-1.5615,-1.5414,-1.6325,-1.5946,-1.5858,-1.6264,-1.6283,-1.633,-1.6425,-1.6392,-1.6392,-1.6392,-1.6732,-1.6665,-1.6207,-1.6509,-1.6433,-1.6006,-1.6945,-1.7339,-1.7339,-1.721,-1.7141,-1.7107,-1.6978,-1.6908,-1.6908,-1.6908,-1.6908,-1.6908,-1.6908,-1.6908,-1.6908,-1.6908,-1.6908,-1.6853,-1.6541,-1.645,-1.6367,-1.5955,-1.5826,-1.5638,-1.4704,-1.4827,-1.5023,-1.4197,-1.435,-1.4641,-1.4096,-1.455,-1.501,-1.4708,-1.457,-1.4515,-1.4515,-1.4515,-1.4327,-1.3821,-1.3731,-1.3541,-1.3009,-1.2826,-1.2726,-1.2726,-1.212,-1.1725,-1.1725,-1.1296,-1.1021,-1.1021,-1.087,-1.0776,-1.0776,-1.0688,-1.0593,-1.0593,-1.0593,-1.0593,-1.0593,-1.0593,-1.0593,-1.0593,-1.0593,-1.0593,-1.0593,-1.0593,-1.0593,0.0,0.0,0.0,0.0,0.0,0.0,0.0,0.0,0.0,0.0,0.0,0.0,0.0,-1.4378,-1.4515,-1.4515,-1.4515,-1.4515,-1.4515,-1.4764,-1.4961,-1.4961,-1.4961,-1.5098,-1.541,-1.4872,-1.4708,-1.5234,-1.499,-1.4992,-1.5386,-1.5404,-1.5496,-1.568,-1.5689,-1.5689,-1.5689,-1.5909,-1.5909,-1.5689,-1.5909,-1.59,-1.5707,-1.634,-1.6734,-1.6908,-1.6908,-1.6908,-1.6908,-1.6908,-1.6908,-1.6908,-1.6908,-1.6908,-1.6908,-1.6908,-1.6908,-1.6881,-1.6688,-1.6624,-1.656,-1.6147,-1.5812,-1.5477,-1.5067,-1.4719,-1.4313,-1.3545,-1.3599,-1.372,-1.318,-1.329,-1.345,-1.31,-1.3687,-1.4188,-1.3644,-1.3541,-1.3541,-1.3541,-1.3541,-1.342,-1.307,-1.3009,-1.2917,-1.2543,-1.2243,-1.2027,-1.2027,-1.1452,-1.1083,-1.1083,-1.0776,-1.0593,-1.0593,-1.0593,-1.0593,-1.0593,-1.0593,-1.0593,-1.0593,-1.0593,-1.0593,-1.0593,-1.0593,-1.0593,-1.0593,-1.0593,-1.0593,-1.0593,-1.0593,-1.0593,0.0,0.0,0.0,0.0,0.0,0.0,0.0,0.0,0.0,0.0,0.0,0.0,-1.3902,-1.4167,-1.4433,-1.4506,-1.4515,-1.4515,-1.4515,-1.4515,-1.4476,-1.4485,-1.4485,-1.4485,-1.4485,-1.4485,-1.4485,-1.4515,-1.4515,-1.4653,-1.4983,-1.5001,-1.5148,-1.5478,-1.5487,-1.5487,-1.5487,-1.5551,-1.5551,-1.5487,-1.5487,-1.5524,-1.5597,-1.5945,-1.6321,-1.6697,-1.6697,-1.6697,-1.6697,-1.6771,-1.6807,-1.6807,-1.6881,-1.6862,-1.6817,-1.6881,-1.6748,-1.649,-1.6235,-1.5999,-1.5764,-1.5384,-1.4871,-1.434,-1.395,-1.3423,-1.2901,-1.2445,-1.242,-1.2473,-1.2358,-1.242,-1.2473,-1.2358,-1.2734,-1.3047,-1.2604,-1.2512,-1.2512,-1.2512,-1.242,-1.2328,-1.2328,-1.2235,-1.2174,-1.2174,-1.1694,-1.1334,-1.1334,-1.0902,-1.0593,-1.0593,-1.0593,-1.0593,-1.0593,-1.0593,-1.0593,-1.0593,-1.0593,-1.0593,-1.0593,-1.0593,-1.0593,-1.0593,-1.0593,-1.0593,-1.0593,-1.0593,-1.0593,-1.0593,-1.0593,-1.0593,0.0,0.0,0.0,0.0,0.0,0.0,0.0,0.0,0.0,0.0,0.0,0.0,-1.3847,-1.3928,-1.4084,-1.4451,-1.4515,-1.4515,-1.4515,-1.4515,-1.4455,-1.4327,-1.4336,-1.4336,-1.4336,-1.4336,-1.4357,-1.4476,-1.4515,-1.4533,-1.4588,-1.4588,-1.4616,-1.4671,-1.4671,-1.4671,-1.4671,-1.501,-1.501,-1.4671,-1.4671,-1.4845,-1.5184,-1.5239,-1.5478,-1.5854,-1.5854,-1.5854,-1.5881,-1.6248,-1.6361,-1.6398,-1.6771,-1.6697,-1.6431,-1.678,-1.6086,-1.5037,-1.5339,-1.4807,-1.3974,-1.3591,-1.338,-1.3244,-1.285,-1.2637,-1.2452,-1.1802,-1.2058,-1.2358,-1.1787,-1.2058,-1.2358,-1.1756,-1.1701,-1.1911,-1.2389,-1.2512,-1.2512,-1.2512,-1.2027,-1.1632,-1.1632,-1.1209,-1.0839,-1.0839,-1.0776,-1.0719,-1.0719,-1.0656,-1.0593,-1.0593,-1.0593,-1.0593,-1.0593,-1.0593,-1.0593,-1.0593,-1.0593,-1.0593,-1.0593,-1.0593,-1.0593,-1.0593,-1.0593,-1.0593,-1.0593,-1.0593,-1.0593,-1.0593,-1.0593,-1.0593,0.0,0.0,0.0,0.0,0.0,0.0,0.0,0.0,0.0,0.0,0.0,-1.2649,-1.3157,-1.3424,-1.3709,-1.4093,-1.4157,-1.424,-1.4478,-1.4515,-1.4446,-1.4327,-1.4366,-1.4327,-1.4139,-1.4237,-1.4327,-1.4396,-1.4396,-1.4426,-1.4515,-1.4515,-1.4515,-1.4515,-1.4515,-1.4515,-1.4515,-1.468,-1.468,-1.4515,-1.4515,-1.4607,-1.4772,-1.4772,-1.5111,-1.5689,-1.5689,-1.5689,-1.5707,-1.589,-1.5964,-1.5949,-1.5748,-1.5546,-1.5389,-1.517,-1.4714,-1.4131,-1.4082,-1.377,-1.3284,-1.2893,-1.25,-1.217,-1.1987,-1.1694,-1.1358,-1.1083,-1.1209,-1.1358,-1.1083,-1.1202,-1.1358,-1.1083,-1.0989,-1.1083,-1.1358,-1.1445,-1.1445,-1.1445,-1.1202,-1.0989,-1.0989,-1.0776,-1.0593,-1.0593,-1.0593,-1.0593,-1.0593,-1.0593,-1.0593,-1.0593,-1.0593,-1.0593,-1.0593,-1.0593,-1.0593,-1.0593,-1.0593,-1.0593,-1.0593,-1.0593,-1.0593,-1.0593,-1.0593,-1.0593,-1.0593,-1.0593,-1.0593,-1.0593,-1.0168,-0.9977,0.0,0.0,0.0,0.0,0.0,0.0,0.0,0.0,0.0,0.0,0.0,-1.1968,-1.2384,-1.2776,-1.3186,-1.3587,-1.3733,-1.3868,-1.4187,-1.4323,-1.4327,-1.4207,-1.4297,-1.4258,-1.398,-1.4109,-1.4207,-1.4207,-1.4207,-1.4267,-1.4357,-1.4417,-1.4455,-1.4455,-1.4485,-1.4515,-1.4515,-1.4515,-1.4515,-1.4515,-1.4327,-1.4258,-1.4228,-1.407,-1.432,-1.4925,-1.526,-1.5291,-1.5165,-1.5255,-1.5204,-1.4988,-1.4598,-1.4385,-1.4244,-1.3835,-1.3449,-1.3112,-1.2915,-1.2677,-1.2434,-1.2103,-1.1694,-1.1272,-1.1272,-1.0965,-1.0593,-1.0593,-1.0593,-1.0593,-1.0593,-1.0593,-1.0593,-1.0593,-1.0593,-1.0593,-1.0593,-1.0593,-1.0593,-1.0593,-1.0593,-1.0593,-1.0593,-1.0593,-1.0593,-1.0593,-1.0593,-1.0593,-1.0593,-1.0593,-1.0593,-1.0593,-1.0561,-1.053,-1.053,-1.0466,-1.0466,-1.053,-1.0364,-1.0269,-1.0333,-1.0104,-0.9977,-0.9977,-0.9945,-1.0072,-1.0333,-1.0136,-1.0072,-1.004,-0.9492,-0.923,0.0,0.0,0.0,0.0,0.0,0.0,0.0,0.0,0.0,0.0,-1.1694,-1.1712,-1.1755,-1.2084,-1.2494,-1.2877,-1.3233,-1.3436,-1.3462,-1.38,-1.398,-1.383,-1.395,-1.398,-1.383,-1.392,-1.401,-1.401,-1.401,-1.401,-1.404,-1.4207,-1.4297,-1.4297,-1.4417,-1.4515,-1.4515,-1.4515,-1.4515,-1.4476,-1.3851,-1.3541,-1.3541,-1.2879,-1.262,-1.2752,-1.4012,-1.4192,-1.3657,-1.4041,-1.38,-1.3276,-1.3639,-1.3525,-1.322,-1.3573,-1.2825,-1.1672,-1.2047,-1.1536,-1.074,-1.0719,-1.0681,-1.0656,-1.0656,-1.0624,-1.0593,-1.0593,-1.0593,-1.0593,-1.0593,-1.0593,-1.0593,-1.0593,-1.0593,-1.0593,-1.0593,-1.0593,-1.0593,-1.0593,-1.0593,-1.0593,-1.0593,-1.0593,-1.0593,-1.0593,-1.0593,-1.0593,-1.0593,-1.0593,-1.0593,-1.0593,-1.0434,-1.0333,-1.0333,-1.0142,-1.011,-1.0301,-0.9722,-0.9428,-0.955,-0.8748,-0.8328,-0.8328,-0.8194,-0.8608,-0.955,-0.8909,-0.8619,-0.8619,-0.8587,-0.8458,0.0,0.0,0.0,0.0,0.0,0.0,0.0,0.0,0.0,0.0,-1.1569,-1.1553,-1.1452,-1.1692,-1.2049,-1.2449,-1.2627,-1.2768,-1.3045,-1.338,-1.357,-1.3433,-1.377,-1.3881,-1.3631,-1.3761,-1.386,-1.386,-1.386,-1.392,-1.401,-1.4079,-1.4109,-1.4109,-1.4139,-1.398,-1.3541,-1.367,-1.3511,-1.3078,-1.2917,-1.2856,-1.2848,-1.2604,-1.2512,-1.2543,-1.3009,-1.307,-1.2864,-1.3018,-1.292,-1.2687,-1.2411,-1.2198,-1.2044,-1.1813,-1.1369,-1.0947,-1.1083,-1.0896,-1.0593,-1.0593,-1.0593,-1.0593,-1.0593,-1.0593,-1.0593,-1.0593,-1.0593,-1.0593,-1.0593,-1.0593,-1.0561,-1.0428,-1.0396,-1.0371,-1.0238,-1.0333,-1.0396,-1.0396,-1.0396,-1.0371,-1.0238,-1.0434,-1.0561,-1.0434,-1.0396,-1.0396,-1.0396,-1.0301,-1.004,-0.9614,-0.9512,-0.9288,-0.8871,-0.8742,-0.8742,-0.8807,-0.8613,-0.8484,-0.8544,-0.8226,-0.8064,-0.8064,-0.7577,-0.7702,-0.8544,-0.8285,-0.8188,-0.8161,-0.7707,-0.7447,0.0,0.0,0.0,0.0,0.0,0.0,0.0,0.0,0.0,0.0,-1.1073,-1.1167,-1.1276,-1.1267,-1.1353,-1.1619,-1.179,-1.1953,-1.2229,-1.2722,-1.3013,-1.2946,-1.3287,-1.3406,-1.3163,-1.3289,-1.3377,-1.3319,-1.3319,-1.3377,-1.3465,-1.3494,-1.3614,-1.3797,-1.3806,-1.3532,-1.3009,-1.3139,-1.2856,-1.2205,-1.2074,-1.2012,-1.1981,-1.1772,-1.171,-1.1748,-1.1748,-1.1896,-1.2151,-1.2151,-1.2058,-1.181,-1.1358,-1.1209,-1.1146,-1.0744,-1.0593,-1.0593,-1.0593,-1.0593,-1.0593,-1.0593,-1.0593,-1.0593,-1.0593,-1.0593,-1.0593,-1.0593,-1.0593,-1.0593,-1.0593,-1.0561,-1.0466,-1.0244,-1.0206,-1.0149,-1.0015,-1.011,-1.0206,-1.0206,-1.0206,-1.0149,-1.0015,-1.0212,-1.0269,-0.9907,-0.9875,-0.9779,-0.955,-0.9428,-0.9166,-0.8699,-0.8603,-0.8382,-0.7929,-0.7832,-0.7837,-0.7897,-0.7674,-0.7572,-0.7637,-0.7344,-0.7181,-0.7181,-0.6662,-0.6634,-0.7116,-0.7251,-0.7284,-0.7284,-0.6798,-0.6535,0.0,0.0,0.0,0.0,0.0,0.0,0.0,0.0,0.0,0.0,-1.0176,-1.0533,-1.1141,-1.0761,-1.0352,-1.0352,-1.0698,-1.0974,-1.0974,-1.1743,-1.2344,-1.2344,-1.2464,-1.25,-1.2361,-1.2472,-1.25,-1.2361,-1.2361,-1.2361,-1.2361,-1.25,-1.2804,-1.3314,-1.3341,-1.3225,-1.2923,-1.294,-1.2604,-1.1919,-1.1298,-1.0986,-1.0954,-1.0288,-1.011,-1.0301,-1.0308,-1.0737,-1.1483,-1.1483,-1.1115,-1.0593,-1.0593,-1.0593,-1.0593,-1.0593,-1.0593,-1.0593,-1.0593,-1.0593,-1.0593,-1.0593,-1.0593,-1.0593,-1.0593,-1.0593,-1.0593,-1.0593,-1.0593,-1.0593,-1.0593,-1.0428,-1.0238,-1.0047,-0.9983,-0.9983,-0.9951,-0.9951,-0.9951,-0.9983,-0.9983,-0.9951,-0.9951,-0.9951,-0.9722,-0.9058,-0.8956,-0.8731,-0.8091,-0.7994,-0.7962,-0.7962,-0.7767,-0.7642,-0.7642,-0.7451,-0.7419,-0.7609,-0.7031,-0.6704,-0.6859,-0.6042,-0.5583,-0.5583,-0.5458,-0.5395,-0.5395,-0.5723,-0.5888,-0.5888,-0.5888,-0.5785,-0.4692,0.0,0.0,0.0,0.0,0.0,0.0,0.0,0.0,0.0,-0.9195,-0.9416,-0.9962,-0.9614,-0.9242,-0.9242,-0.9661,-0.9982,-0.9982,-1.0447,-1.0818,-1.0818,-1.1447,-1.1692,-1.1225,-1.16,-1.1692,0.0,-1.1571,-1.1636,-1.1197,-1.1628,-1.1732,-1.1464,-1.2043,-1.1895,-1.09,-1.1229,-1.1076,-1.0421,-1.032,-1.0288,-1.0288,-1.0238,-1.0244,-1.0308,-1.0466,-1.0656,-1.0839,-1.0839,-1.0744,-1.0593,-1.0593,-1.0593,-1.0593,-1.0593,-1.0593,-1.0593,-1.0593,-1.0593,-1.0593,-1.0593,-1.0593,-1.0593,-1.0593,-1.0498,-1.0364,-1.0364,-1.0276,-1.0174,-1.0174,-1.011,-1.0047,-0.9894,-0.9862,-0.9696,-0.9043,-0.8909,-0.9107,-0.9734,-0.9428,-0.9032,-0.8941,-0.871,-0.8447,-0.8091,-0.8059,-0.7994,-0.7804,-0.7642,-0.7381,-0.6887,-0.6789,-0.6564,-0.6079,-0.5984,-0.5984,-0.605,-0.5855,-0.5789,-0.5818,-0.5587,-0.5458,-0.5458,-0.5428,-0.5395,-0.5395,-0.5495,-0.5528,-0.5528,-0.5528,-0.5524,0.0,0.0,0.0,0.0,0.0,0.0,0.0,-0.6772,0.0,0.0,-0.8314,-0.864,-0.9163,-0.8917,-0.8623,-0.8623,-0.8782,-0.8988,-0.9223,-0.9662,-0.9938,-0.9938,-1.0439,-1.0615,-1.028,-1.0759,-1.0868,-1.028,-1.0779,-1.0841,-1.028,-1.0561,-1.0676,-1.05,-1.0976,-1.0894,-1.011,-1.036,-1.024,-0.9676,-0.9766,-0.9798,-0.9798,-0.9926,-1.0021,-1.0085,-1.0212,-1.0308,-1.0333,-1.0333,-1.0466,-1.0593,-1.0593,-1.0593,-1.0593,-1.0593,-1.0593,-1.0593,-1.0593,-1.0561,-1.0466,-1.0466,-1.0434,-1.0333,-1.0333,-1.0269,-1.0174,-1.0174,-1.0079,-0.9989,-0.9926,-0.969,-0.9428,-0.9274,-0.9017,-0.8657,-0.8166,-0.8037,-0.8199,-0.8689,-0.8458,-0.8129,-0.8069,-0.7869,-0.7609,-0.7214,-0.7153,-0.7055,-0.6765,-0.6634,-0.6408,-0.6013,-0.598,-0.5815,-0.5428,-0.5395,-0.5395,-0.5395,-0.5395,-0.5395,-0.5395,-0.5395,-0.5395,-0.5395,-0.5395,-0.5395,-0.5395,-0.5395,-0.5395,-0.5395,-0.5395,-0.5395,0.0,-0.4978,0.0,0.0,0.0,0.0,-0.5945,-0.6003,-0.6118,0.0,0.0,-0.7891,-0.8424,-0.8372,-0.8225,-0.8225,-0.8017,-0.8072,-0.8613,-0.9119,-0.9406,-0.9406,-0.9484,-0.9484,-0.9432,-0.9906,-1.001,-0.9458,-0.9855,-0.9932,-0.9536,-0.951,-0.9633,-0.9935,-1.004,-1.0024,-0.9897,-0.993,-0.9752,-0.9426,-0.9456,-0.9468,-0.9468,-0.9504,-0.9644,-0.9804,-0.9804,-0.9894,-0.9983,-0.9983,-1.0206,-1.053,-1.053,-1.053,-1.053,-1.053,-1.053,-1.053,-1.053,-1.0434,-1.0269,-1.0269,-1.0142,-0.9983,-0.9983,-0.9989,-0.9958,-0.9856,-0.9786,-0.969,-0.9568,-0.9043,-0.8511,-0.8388,-0.7874,-0.7386,-0.7321,-0.7288,-0.7256,-0.719,-0.7223,-0.7288,-0.7288,-0.7223,-0.6961,-0.6367,-0.6301,-0.6075,-0.5495,-0.5395,-0.5395,-0.5395,-0.5395,-0.5395,-0.5395,-0.5395,-0.5395,-0.5395,-0.5395,-0.5395,-0.5395,-0.5395,-0.5395,-0.5395,-0.5395,-0.5395,-0.5395,-0.5395,-0.5395,-0.5395,-0.5395,-0.5395,-0.5217,-0.546,-0.5745,-0.5732,0.0,0.0,-0.546,-0.5376,-0.5468,0.0,-0.5988,-0.624,-0.6778,-0.7,-0.7119,-0.7119,-0.7413,-0.7753,-0.8025,-0.8162,-0.8242,-0.8242,-0.8653,-0.8751,-0.8289,-0.8751,-0.8856,-0.8262,-0.8321,-0.8553,-0.8935,-0.8955,-0.8778,-0.837,-0.9023,-0.9146,-0.8663,-0.8878,-0.8925,-0.8866,-0.9077,-0.9179,-0.9185,-0.9572,-0.9772,-0.9804,-0.9926,-0.9983,-0.9983,-0.9983,-1.0047,-1.011,-1.011,-1.011,-1.011,-1.011,-1.011,-1.011,-1.011,-1.0079,-1.0047,-1.0047,-1.0015,-0.9983,-0.9983,-0.9926,-0.9702,-0.8979,-0.8361,-0.7907,-0.7874,-0.7777,-0.7647,-0.7614,-0.7517,-0.7256,-0.6728,-0.6597,-0.6433,-0.5885,-0.6239,-0.6597,-0.6597,-0.6145,-0.5756,-0.5624,-0.5591,-0.5557,-0.5425,-0.5395,-0.5395,-0.5395,-0.5395,-0.5395,-0.5395,-0.5395,-0.5395,-0.5395,-0.5395,-0.5395,-0.5395,-0.5395,-0.5395,-0.5395,-0.5395,-0.5395,-0.5395,-0.5395,-0.5395,-0.5395,-0.5395,-0.5395,-0.5593,-0.579,-0.5997,-0.6003,0.0,0.0,0.0,-0.5596,-0.5675,-0.5948,-0.5894,-0.5924,0.0,0.0,-0.6611,-0.6611,-0.7054,-0.7443,-0.7532,-0.776,-0.7901,-0.7901,-0.8156,-0.8235,-0.7928,-0.8441,-0.8672,-0.8362,-0.8082,-0.8029,-0.8342,-0.8342,-0.8209,-0.7901,-0.8325,-0.8462,-0.8291,-0.8417,-0.8578,-0.871,-0.8842,-0.8969,-0.9095,-0.9199,-0.9382,-0.9632,-0.958,-0.9636,-0.9766,-0.9766,-0.9766,-0.9766,-0.9926,-0.9983,-0.9983,-0.9983,-0.9983,-0.9983,-0.9983,-0.9722,-0.9358,-0.9358,-0.9069,-0.8716,-0.8716,-0.8657,-0.8528,-0.8069,-0.7679,-0.7386,-0.7386,-0.7158,-0.6892,-0.6892,-0.6634,-0.6309,-0.598,-0.5914,-0.5818,-0.5458,-0.5686,-0.5914,-0.5914,-0.562,-0.5395,-0.5395,-0.5395,-0.5395,-0.5395,-0.5395,-0.5395,-0.5395,-0.5395,-0.5395,-0.5395,-0.5395,-0.5395,-0.5395,-0.5395,-0.5395,-0.5395,-0.5395,-0.5395,-0.5395,-0.5395,-0.5226,-0.4858,-0.4858,-0.5024,-0.5395,-0.5024,-0.4858,0.0,0.0,0.0,0.0,0.0,-0.61,0.0,0.0,0.0,-0.6234,0.0,0.0,0.0,0.0,0.0,0.0,0.0,0.0,0.0,-0.7387,0.0,-0.7766,-0.782,-0.785,-0.785,-0.8235,-0.8528,-0.8613,-0.8089,-0.7793,-0.7895,-0.7901,-0.7901,-0.7901,-0.7901,-0.8003,-0.8213,-0.8213,-0.8321,-0.856,-0.8608,-0.874,-0.8939,-0.8782,-0.8945,-0.9348,-0.9119,-0.9087,-0.9202,-0.9223,-0.9148,-0.9075,-0.9526,-0.9722,-0.969,-0.9562,-0.9492,-0.9492,-0.9492,-0.9037,-0.8447,-0.8447,-0.7962,-0.7386,-0.7386,-0.7321,-0.7223,-0.7223,-0.7125,-0.7027,-0.7027,-0.6601,-0.6207,-0.6207,-0.5782,-0.5395,-0.5395,-0.5395,-0.5395,-0.5395,-0.5395,-0.5395,-0.5395,-0.5395,-0.5395,-0.5395,-0.5395,-0.5395,-0.5395,-0.5395,-0.5395,-0.5395,-0.5395,-0.5395,-0.5395,-0.5259,-0.5193,-0.5193,-0.5057,-0.499,-0.499,-0.499,-0.499,-0.499,-0.499,-0.4688,-0.4087,-0.4087,-0.4386,-0.4957,-0.4353,-0.4087,0.0,0.0,0.0,0.0,-0.6301,0.0,0.0,0.0,-0.624,-0.5784,0.0,0.0,0.0,0.0,0.0,0.0,0.0,0.0,-0.6167,-0.6599,-0.7006,-0.7243,-0.7498,-0.7644,-0.7644,-0.748,-0.756,-0.7966,-0.7565,-0.7454,-0.7877,-0.7901,-0.7901,-0.7901,-0.7901,-0.7913,-0.7949,-0.7949,-0.7961,-0.7991,-0.8225,-0.8345,-0.8409,-0.8614,-0.874,-0.88,-0.8764,-0.8498,-0.8091,-0.8214,-0.787,-0.7381,-0.8291,-0.8683,-0.8587,-0.7934,-0.7712,-0.7712,-0.7712,-0.7647,-0.7544,-0.7544,-0.7484,-0.7386,-0.7386,-0.699,-0.6531,-0.6531,-0.6079,-0.5624,-0.5624,-0.5557,-0.5524,-0.5524,-0.5458,-0.5395,-0.5395,-0.5395,-0.5395,-0.5395,-0.5395,-0.5395,-0.5395,-0.5395,-0.5395,-0.5395,-0.5395,-0.5395,-0.5395,-0.5395,-0.5395,-0.5395,-0.5395,-0.5395,-0.5395,-0.4788,-0.442,-0.442,-0.3818,-0.3451,-0.3451,-0.3451,-0.3451,-0.3451,-0.3451,-0.3416,-0.3316,-0.3316,-0.3382,-0.3451,-0.3351,-0.3316,0.0,0.0,0.0,0.0,0.0,0.0,-0.5671,0.0,-0.5647,0.0,0.0,0.0,0.0,0.0,0.0,0.0,-0.5616,0.0,0.0,0.0,-0.6264,0.0,0.0,0.0,-0.7352,-0.7267,-0.7273,-0.7472,-0.7303,-0.734,-0.7695,-0.7844,-0.7901,-0.7901,-0.7901,-0.7901,-0.7901,-0.7901,-0.7901,-0.7901,-0.8009,-0.7976,-0.783,-0.779,-0.7755,-0.7709,-0.7547,-0.7446,-0.7394,-0.7431,-0.729,-0.7016,-0.7047,-0.7273,-0.7578,-0.7269,-0.7226,-0.7267,-0.7267,-0.709,-0.6761,-0.6375,-0.6243,-0.6243,-0.6243,-0.6046,-0.5815,-0.5815,-0.562,-0.5395,-0.5395,-0.5395,-0.5395,-0.5395,-0.5395,-0.5395,-0.5395,-0.5057,-0.4755,-0.4755,-0.442,-0.412,-0.412,-0.4824,-0.5259,-0.4821,-0.4755,-0.4622,-0.4187,-0.412,-0.412,-0.412,-0.412,-0.412,-0.412,-0.3851,-0.3651,-0.3651,-0.3382,-0.3215,-0.3215,-0.3215,-0.3215,-0.3215,-0.3215,-0.2982,-0.2547,-0.2547,-0.2347,-0.198,-0.2382,-0.2547,-0.5093,0.0,0.0,0.0,0.0,0.0,0.0,0.0,0.0,0.0,0.0,0.0,0.0,0.0,0.0,0.0,0.0,-0.5444,0.0,0.0,0.0,0.0,0.0,0.0,0.0,-0.6854,-0.6854,-0.7079,-0.6957,-0.7079,-0.7571,-0.7731,-0.785,-0.7895,-0.7901,-0.7901,-0.7901,-0.7901,-0.7821,-0.7681,-0.7681,-0.7503,-0.7132,-0.6937,-0.6819,-0.676,-0.6577,-0.6511,-0.6536,-0.6597,-0.6495,-0.6278,-0.5808,-0.5914,-0.6321,-0.6452,-0.6542,-0.6643,-0.6696,-0.6456,-0.6042,-0.5557,-0.5395,-0.5395,-0.5395,-0.5395,-0.5395,-0.5395,-0.5395,-0.5395,-0.5395,-0.5395,-0.5395,-0.5395,-0.5259,-0.5093,-0.5093,-0.4522,-0.3984,-0.3918,-0.3482,-0.3115,-0.3082,-0.3984,-0.4553,-0.4084,-0.3951,-0.3749,-0.3249,-0.3215,-0.3215,-0.3215,-0.3215,-0.3215,-0.3215,-0.3015,-0.2815,-0.2648,-0.2614,-0.2614,-0.2614,-0.2614,-0.2614,-0.2614,-0.2614,-0.2347,-0.1812,-0.1812,-0.1577,-0.1109,-0.1612,-0.1812,0.0,0.0,0.0,-0.4684,0.0,0.0,0.0,0.0,-0.5171,0.0,0.0,0.0,0.0,0.0,-0.5045,-0.5091,0.0,0.0,0.0,0.0,0.0,0.0,0.0,0.0,0.0,-0.5961,-0.5973,0.0,-0.6331,-0.6489,-0.754,-0.7607,-0.7703,-0.7889,-0.7901,-0.7901,-0.7901,-0.7901,-0.7628,-0.7139,-0.7139,-0.6815,-0.6245,-0.6241,-0.6241,-0.6228,-0.6223,-0.5891,-0.5364,-0.5571,-0.5231,-0.4601,-0.4697,-0.4663,-0.464,-0.5023,-0.5156,-0.5184,-0.5399,-0.5455,-0.5428,-0.5395,-0.5395,-0.5395,-0.5395,-0.5395,-0.5395,-0.5395,-0.5395,-0.5395,-0.5395,-0.5395,-0.5395,-0.5395,-0.4858,-0.432,-0.432,-0.3751,-0.3182,-0.298,-0.2913,-0.288,-0.2744,-0.288,-0.3047,-0.3215,-0.3082,-0.3013,-0.3182,-0.3215,-0.3215,-0.3215,-0.3215,-0.3215,-0.3215,-0.2547,-0.1846,-0.121,-0.1176,-0.1176,-0.1176,-0.1176,-0.1176,-0.1176,-0.1176,-0.1143,-0.1143,-0.1143,-0.1109,-0.1109,-0.1109,-0.1143,-0.4301,-0.4408,-0.447,-0.4398,0.0,0.0,0.0,0.0,0.0,0.0,0.0,0.0,0.0,0.0,-0.4884,-0.4496,-0.4468,0.0,0.0,0.0,0.0,0.0,0.0,0.0,0.0,0.0,0.0,-0.6234,-0.627,-0.658,-0.7297,-0.7623,-0.7832,-0.7895,-0.7901,-0.7735,-0.7381,-0.7381,-0.7085,-0.6507,-0.6507,-0.6182,-0.5605,-0.5605,-0.5418,-0.5062,-0.5062,-0.4952,-0.4767,-0.4849,-0.473,-0.4494,-0.4545,-0.4535,-0.4508,-0.4662,-0.4752,-0.4874,-0.5121,-0.5277,-0.5395,-0.5395,-0.5324,-0.5226,-0.5365,-0.5324,-0.523,-0.5365,-0.5057,-0.4655,-0.4655,-0.432,-0.3951,-0.3951,-0.3649,-0.3382,-0.3382,-0.2713,-0.2144,-0.2211,-0.1745,-0.1344,-0.1412,-0.1311,-0.1444,-0.2213,-0.228,-0.2079,-0.1681,-0.1614,-0.1547,-0.1412,-0.1412,-0.1412,-0.1412,-0.1177,-0.0942,-0.0707,-0.0707,-0.0707,-0.0707,-0.0707,-0.0707,-0.0707,-0.0707,-0.0707,-0.0707,-0.0707,-0.0707,-0.0707,-0.0707,-0.0841,-0.4082,-0.4218,-0.4292,-0.4095,-0.3991,0.0,-0.3771,0.0,-0.3849,0.0,0.0,0.0,0.0,0.0,-0.4554,-0.4095,-0.4066,-0.4033,0.0,-0.3749,0.0,0.0,0.0,0.0,0.0,0.0,-0.5402,-0.5948,-0.5985,0.0,0.0,-0.7277,-0.7411,-0.7622,-0.7408,-0.7133,-0.6783,-0.6783,-0.648,-0.5878,-0.5878,-0.5578,-0.5007,-0.5007,-0.4818,-0.4491,-0.4491,-0.4491,-0.4491,-0.4491,-0.4491,-0.4491,-0.4267,-0.4184,-0.4218,-0.4468,-0.4668,-0.4799,-0.4958,-0.4963,-0.4913,-0.4913,-0.4655,-0.4416,-0.4579,-0.4525,-0.4452,-0.4485,-0.4184,-0.3785,-0.3749,-0.3382,-0.3013,-0.3013,-0.2713,-0.2445,-0.2445,-0.1777,-0.1243,-0.131,-0.0841,-0.0438,-0.0506,-0.0337,-0.0472,-0.1276,-0.1377,-0.1176,-0.0741,-0.0708,-0.064,-0.0506,-0.0506,-0.0506,-0.0506,-0.0506,-0.0506,-0.0506,-0.0506,-0.0506,-0.0506,-0.0506,-0.0506,-0.0506,-0.0506,-0.0506,-0.0506,-0.0506,-0.0506,-0.0506,-0.0506,-0.064]}]]